[[{"header":{"parameterUnit":"m.s-1","parameterCategory":1,"la1":31.0,"la2":29.5877,"lo1":-88.7671,"lo2":-86.6584,"dy":0.0162,"dx":0.0185,"nx":115,"ny":88,"refTime":"2024-02-11T06:00:00:Z","depth":0,"parameterNumber":2,"parameterNumberName":"U-component_of_WINDS"},"data":[0.0,0.0,0.0,0.0,0.0,0.0,0.0,0.0,0.0,0.0,0.0,0.0,0.0,0.0,0.0,0.0,0.0,0.0,0.0,0.0,0.0,0.0,0.0,0.0,0.0,0.0,0.0,0.0,0.0,0.0,0.0,0.0,0.0,0.0,0.0,0.0,0.0,0.0,0.0,0.0,0.0,0.0,0.0,0.0,0.0,0.0,0.0,0.0,0.0,0.0,0.0,0.0,0.0,0.0,0.0,0.0,0.0,0.0,0.0,0.0,0.0,0.0,0.0,0.0,0.0,0.0,0.0,0.0,0.0,0.0,0.0,0.0,0.0,0.0,0.0,0.0,0.0,0.0,0.0,0.0,0.0,0.0,0.0,0.0,0.0,0.0,0.0,0.0,0.0,0.0,0.0,0.0,0.0,0.0,0.0,0.0,0.0,0.0,0.0,0.0,0.0,0.0,0.0,0.0,0.0,0.0,0.0,0.0,0.0,0.0,0.0,0.0,0.0,0.0,0.0,0.0,0.0,0.0,0.0,0.0,0.0,0.0,0.0,0.0,0.0,0.0,0.0,0.0,0.0,0.0,0.0,0.0,0.0,0.0,0.0,0.0,0.0,0.0,0.0,0.0,0.0,0.0,0.0,0.0,0.0,0.0,0.0,0.0,0.0,0.0,0.0,0.0,0.0,0.0,0.0,0.0,0.0,0.0,0.0,0.0,0.0,0.0,0.0,0.0,0.0,0.0,0.0,0.0,0.0,0.0,0.0,0.0,0.0,0.0,0.0,0.0,0.0,0.0,0.0,0.0,0.0,0.0,0.0,0.0,0.0,0.0,0.0,0.0,0.0,0.0,0.0,0.0,0.0,0.0,0.0,0.0,0.0,0.0,0.0,0.0,0.0,0.0,0.0,0.0,0.0,0.0,0.0,0.0,0.0,0.0,0.0,0.0,0.0,0.0,0.0,0.0,0.0,0.0,0.0,0.0,0.0,0.0,0.0,0.0,0.0,0.0,0.0,0.0,0.0,0.0,0.0,0.0,0.0,0.0,0.0,0.0,0.0,0.0,0.0,0.0,0.0,0.0,0.0,0.0,0.0,0.0,0.0,0.0,0.0,0.0,0.0,0.0,0.0,0.0,0.0,0.0,0.0,0.0,0.0,0.0,0.0,0.0,0.0,0.0,0.0,0.0,0.0,0.0,0.0,0.0,0.0,0.0,0.0,0.0,0.0,0.0,0.0,0.0,0.0,0.0,0.0,0.0,0.0,0.0,0.0,0.0,0.0,0.0,0.0,0.0,0.0,0.0,0.0,0.0,0.0,0.0,0.0,0.0,0.0,0.0,0.0,0.0,0.0,0.0,0.0,0.0,0.0,0.0,0.0,0.0,0.0,0.0,0.0,0.0,0.0,0.0,0.0,0.0,0.0,0.0,0.0,0.0,0.0,0.0,0.0,0.0,0.0,0.0,0.0,0.0,0.0,0.0,0.0,0.0,0.0,0.0,0.0,0.0,0.0,0.0,0.0,0.0,0.0,0.0,0.0,0.0,0.0,0.0,0.0,0.0,0.0,0.0,0.0,0.0,0.0,0.0,0.0,0.0,0.0,0.0,0.0,0.0,0.0,0.0,0.0,0.0,0.0,0.0,0.0,0.0,0.0,0.0,0.0,0.0,0.0,0.0,0.0,0.0,0.0,0.0,0.0,0.0,0.0,0.0,0.0,0.0,0.0,0.0,0.0,0.0,0.0,0.0,0.0,0.0,0.0,0.0,0.0,0.0,0.0,0.0,0.0,0.0,0.0,0.0,0.0,0.0,0.0,0.0,0.0,0.0,0.0,0.0,0.0,0.0,0.0,0.0,0.0,0.0,0.0,0.0,0.0,0.0,0.0,0.0,0.0,0.0,0.0,0.0,0.0,0.0,0.0,0.0,0.0,0.0,0.0,0.0,0.0,0.0,0.0,0.0,0.0,0.0,0.0,0.0,0.0,0.0,0.0,0.0,0.0,0.0,0.0,0.0,0.0,0.0,0.0,0.0,0.0,0.0,0.0,0.0,0.0,0.0,0.0,0.0,0.0,0.0,0.0,0.0,0.0,0.0,0.0,0.0,0.0,0.0,0.0,0.0,0.0,0.0,0.0,0.0,0.0,0.0,0.0,0.0,0.0,0.0,0.0,0.0,0.0,0.0,0.0,0.0,0.0,0.0,0.0,0.0,0.0,0.0,0.0,0.0,0.0,0.0,0.0,0.0,0.0,0.0,0.0,0.0,0.0,0.0,0.0,0.0,0.0,0.0,0.0,0.0,0.0,0.0,0.0,0.0,0.0,0.0,0.0,0.0,0.0,0.0,0.0,0.0,0.0,0.0,0.0,0.0,0.0,0.0,0.0,0.0,0.0,0.0,0.0,0.0,0.0,0.0,0.0,0.0,0.0,0.0,0.0,0.0,0.0,0.0,0.0,0.0,0.0,0.0,0.0,0.0,0.0,0.0,0.0,0.0,0.0,0.0,0.0,0.0,0.0,0.0,0.0,0.0,0.0,0.0,0.0,0.0,0.0,0.0,0.0,0.0,0.0,0.0,0.0,0.0,0.0,0.0,0.0,0.0,0.0,0.0,0.0,0.0,0.0,0.0,0.0,0.0,0.0,0.0,0.0,0.0,0.0,0.0,0.0,0.0,0.0,0.0,0.0,0.0,0.0,0.0,0.0,0.0,0.0,0.0,0.0,0.0,0.0,0.0,0.0,0.0,0.0,0.0,0.0,0.0,0.0,0.0,0.0,0.0,0.0,0.0,0.0,0.0,0.0,0.0,0.0,0.0,0.0,0.0,0.0,0.0,0.0,0.0,0.0,0.0,0.0,0.0,0.0,0.0,0.0,0.0,0.0,0.0,0.0,0.0,0.0,0.0,0.0,0.0,0.0,0.0,0.0,0.0,0.0,0.0,0.0,0.0,0.0,0.0,0.0,0.0,0.0,0.0,0.0,0.0,0.0,0.0,0.0,0.0,0.0,0.0,0.0,0.0,0.0,0.0,0.0,0.0,0.0,0.0,0.0,0.0,0.0,0.0,0.0,0.0,0.0,0.0,0.0,0.0,0.0,0.0,0.0,0.0,0.0,0.0,0.0,0.0,0.0,0.0,0.0,0.0,0.0,0.0,0.0,0.0,0.0,0.0,0.0,0.0,0.0,0.0,0.0,0.0,0.0,0.0,0.0,0.0,0.0,0.0,0.0,0.0,0.0,0.0,0.0,0.0,0.0,0.0,0.0,0.0,0.0,0.0,0.0,0.0,0.0,0.0,0.0,0.0,0.0,0.0,0.0,0.0,0.0,0.0,0.0,0.0,0.0,0.0,0.0,0.0,0.0,0.0,0.0,0.0,0.0,0.0,0.0,0.0,0.0,0.0,0.0,0.0,0.0,0.0,0.0,0.0,0.0,0.0,0.0,0.0,0.0,0.0,0.0,0.0,0.0,0.0,0.0,0.0,0.0,0.0,0.0,0.0,0.0,0.0,0.0,0.0,0.0,0.0,0.0,0.0,0.0,0.0,0.0,0.0,0.0,0.0,0.0,0.0,0.0,0.0,0.0,0.0,0.0,0.0,0.0,0.0,0.0,0.0,0.0,0.0,0.0,0.0,0.0,0.0,0.0,0.0,0.0,0.0,0.0,0.0,0.0,0.0,0.0,0.0,0.0,0.0,0.0,0.0,0.0,0.0,0.0,0.0,0.0,0.0,0.0,0.0,0.0,0.0,0.0,0.0,0.0,0.0,0.0,0.0,0.0,0.0,0.0,0.0,0.0,0.0,0.0,0.0,0.0,0.0,0.0,0.0,0.0,0.0,0.0,0.0,0.0,0.0,0.0,0.0,0.0,0.0,0.0,0.0,0.0,0.0,0.0,0.0,0.0,0.0,0.0,0.0,0.0,0.0,0.0,0.0,0.0,0.0,0.0,0.0,0.0,0.0,0.0,0.0,0.0,0.0,0.0,0.0,0.0,0.0,0.0,0.0,0.0,0.0,0.0,0.0,0.0,0.0,0.0,0.0,0.0,0.0,0.0,0.0,0.0,0.0,0.0,0.0,0.0,0.0,0.0,0.0,0.0,0.0,0.0,0.0,0.0,0.0,0.0,0.0,0.0,0.0,0.0,0.0,0.0,0.0,0.0,0.0,0.0,0.0,0.0,0.0,0.0,0.0,0.0,0.0,0.0,0.0,0.0,0.0,0.0,0.0,0.0,0.0,0.0,0.0,0.0,0.0,0.0,0.0,0.0,0.0,0.0,0.0,0.0,0.0,0.0,0.0,-3.0762,0.0,0.0,0.0,0.0,0.0,0.0,0.0,0.0,0.0,0.0,0.0,0.0,0.0,0.0,0.0,0.0,0.0,0.0,0.0,0.0,0.0,0.0,0.0,0.0,0.0,0.0,0.0,0.0,0.0,0.0,0.0,0.0,0.0,0.0,0.0,0.0,0.0,0.0,0.0,0.0,0.0,0.0,0.0,0.0,0.0,0.0,0.0,0.0,0.0,0.0,0.0,0.0,0.0,0.0,0.0,0.0,0.0,0.0,0.0,0.0,0.0,0.0,0.0,0.0,0.0,0.0,0.0,0.0,0.0,0.0,0.0,0.0,0.0,0.0,0.0,0.0,0.0,0.0,0.0,0.0,0.0,0.0,0.0,0.0,0.0,0.0,0.0,0.0,0.0,0.0,0.0,0.0,0.0,0.0,0.0,0.0,0.0,0.0,0.0,0.0,0.0,0.0,0.0,0.0,0.0,0.0,0.0,0.0,0.0,0.0,-3.0157,-3.0276,-3.0042,-3.0176,-3.0859,0.0,0.0,0.0,0.0,0.0,0.0,0.0,0.0,0.0,0.0,0.0,0.0,0.0,0.0,0.0,0.0,0.0,0.0,0.0,0.0,0.0,0.0,0.0,0.0,0.0,0.0,0.0,0.0,0.0,0.0,0.0,0.0,0.0,0.0,0.0,0.0,0.0,0.0,0.0,0.0,0.0,0.0,0.0,0.0,0.0,0.0,0.0,0.0,0.0,0.0,0.0,0.0,0.0,0.0,0.0,0.0,0.0,0.0,0.0,0.0,0.0,0.0,0.0,0.0,0.0,0.0,0.0,0.0,0.0,0.0,0.0,0.0,0.0,0.0,0.0,0.0,0.0,0.0,0.0,0.0,0.0,0.0,0.0,0.0,0.0,0.0,0.0,0.0,0.0,0.0,0.0,0.0,0.0,0.0,0.0,0.0,0.0,0.0,0.0,0.0,0.0,0.0,0.0,0.0,0.0,0.0,0.0,0.0,0.0,0.0,0.0,0.0,-3.0351,-3.0332,-3.1016,0.0,0.0,0.0,0.0,0.0,0.0,0.0,0.0,0.0,0.0,0.0,0.0,0.0,0.0,0.0,0.0,0.0,0.0,0.0,0.0,0.0,0.0,0.0,0.0,0.0,0.0,0.0,0.0,0.0,0.0,0.0,0.0,0.0,0.0,0.0,0.0,0.0,0.0,0.0,0.0,0.0,0.0,0.0,0.0,0.0,0.0,0.0,0.0,0.0,0.0,0.0,0.0,0.0,0.0,0.0,0.0,0.0,0.0,0.0,0.0,0.0,0.0,0.0,0.0,0.0,0.0,0.0,0.0,0.0,0.0,0.0,0.0,0.0,0.0,0.0,0.0,0.0,0.0,0.0,0.0,0.0,0.0,0.0,0.0,0.0,0.0,0.0,0.0,0.0,0.0,0.0,0.0,0.0,0.0,0.0,0.0,0.0,0.0,0.0,0.0,0.0,0.0,0.0,0.0,0.0,0.0,0.0,0.0,0.0,0.0,-3.0898,-3.0972,-3.121,0.0,-3.1484,0.0,0.0,0.0,0.0,0.0,0.0,0.0,0.0,0.0,0.0,0.0,0.0,0.0,0.0,0.0,0.0,0.0,0.0,0.0,0.0,0.0,0.0,0.0,0.0,0.0,0.0,0.0,0.0,0.0,0.0,0.0,0.0,0.0,0.0,0.0,0.0,0.0,0.0,0.0,0.0,0.0,0.0,0.0,0.0,0.0,0.0,0.0,0.0,0.0,0.0,0.0,0.0,0.0,0.0,0.0,0.0,0.0,0.0,0.0,0.0,0.0,0.0,0.0,0.0,0.0,0.0,0.0,0.0,0.0,0.0,0.0,0.0,0.0,0.0,0.0,0.0,0.0,0.0,0.0,0.0,0.0,0.0,0.0,0.0,0.0,0.0,0.0,0.0,0.0,0.0,0.0,0.0,0.0,0.0,0.0,0.0,0.0,0.0,0.0,0.0,0.0,0.0,0.0,0.0,0.0,0.0,0.0,0.0,0.0,0.0,-3.0858,-3.1623,-3.1544,-3.1523,0.0,0.0,0.0,0.0,0.0,0.0,0.0,0.0,0.0,0.0,0.0,0.0,0.0,0.0,0.0,0.0,0.0,0.0,0.0,0.0,0.0,0.0,0.0,0.0,0.0,0.0,0.0,0.0,0.0,0.0,0.0,0.0,0.0,0.0,0.0,0.0,0.0,0.0,0.0,0.0,0.0,0.0,0.0,0.0,0.0,0.0,0.0,0.0,0.0,0.0,0.0,0.0,0.0,0.0,0.0,0.0,0.0,0.0,0.0,0.0,0.0,0.0,0.0,0.0,0.0,0.0,0.0,0.0,0.0,0.0,0.0,0.0,0.0,0.0,0.0,0.0,0.0,0.0,0.0,0.0,0.0,0.0,0.0,0.0,0.0,0.0,0.0,0.0,0.0,0.0,0.0,0.0,0.0,0.0,0.0,0.0,0.0,0.0,0.0,0.0,0.0,0.0,0.0,0.0,0.0,0.0,0.0,0.0,0.0,0.0,-3.0527,-3.0915,-3.1976,-3.1565,-3.1406,-3.1504,0.0,0.0,0.0,0.0,0.0,0.0,0.0,0.0,0.0,0.0,0.0,0.0,0.0,0.0,0.0,0.0,0.0,0.0,0.0,0.0,0.0,0.0,0.0,0.0,0.0,0.0,0.0,0.0,0.0,0.0,0.0,0.0,0.0,0.0,0.0,0.0,0.0,0.0,0.0,0.0,0.0,0.0,0.0,0.0,0.0,0.0,0.0,0.0,0.0,0.0,0.0,0.0,0.0,0.0,0.0,0.0,0.0,0.0,0.0,0.0,0.0,0.0,0.0,0.0,0.0,0.0,0.0,0.0,0.0,0.0,0.0,0.0,0.0,0.0,0.0,0.0,0.0,0.0,0.0,0.0,0.0,0.0,0.0,0.0,0.0,0.0,0.0,0.0,0.0,0.0,0.0,0.0,0.0,0.0,0.0,0.0,0.0,0.0,0.0,0.0,0.0,0.0,0.0,0.0,0.0,0.0,0.0,0.0,-3.0857,-3.0917,-3.1055,-3.1544,-3.1113,-3.1113,0.0,0.0,0.0,0.0,0.0,0.0,0.0,0.0,0.0,0.0,0.0,0.0,0.0,0.0,0.0,0.0,0.0,0.0,0.0,0.0,0.0,0.0,0.0,0.0,0.0,0.0,0.0,0.0,0.0,0.0,0.0,0.0,0.0,0.0,0.0,0.0,0.0,0.0,0.0,0.0,0.0,0.0,0.0,0.0,0.0,0.0,0.0,0.0,0.0,0.0,0.0,0.0,0.0,0.0,0.0,0.0,0.0,0.0,0.0,0.0,0.0,0.0,0.0,0.0,0.0,0.0,0.0,0.0,0.0,0.0,0.0,0.0,0.0,0.0,0.0,0.0,0.0,0.0,0.0,0.0,0.0,0.0,0.0,0.0,0.0,0.0,0.0,0.0,0.0,0.0,0.0,0.0,0.0,0.0,0.0,0.0,0.0,0.0,0.0,0.0,0.0,0.0,0.0,0.0,0.0,0.0,0.0,0.0,0.0,-3.075,-3.0344,-3.0413,-3.1187,-3.0948,-3.1265,0.0,0.0,0.0,0.0,0.0,0.0,0.0,0.0,0.0,0.0,0.0,0.0,0.0,0.0,0.0,0.0,0.0,0.0,0.0,0.0,0.0,0.0,0.0,0.0,0.0,0.0,0.0,0.0,0.0,0.0,0.0,0.0,0.0,0.0,0.0,0.0,0.0,0.0,0.0,0.0,0.0,0.0,0.0,0.0,0.0,0.0,0.0,0.0,0.0,0.0,0.0,0.0,0.0,0.0,0.0,0.0,0.0,0.0,0.0,0.0,0.0,0.0,0.0,0.0,0.0,0.0,0.0,0.0,0.0,0.0,0.0,0.0,0.0,0.0,0.0,0.0,0.0,0.0,0.0,0.0,0.0,0.0,0.0,0.0,0.0,0.0,0.0,0.0,0.0,0.0,0.0,0.0,0.0,0.0,0.0,0.0,0.0,0.0,0.0,0.0,0.0,0.0,0.0,0.0,0.0,0.0,0.0,0.0,0.0,-3.0178,0.0,-3.0758,-3.1293,-3.1767,-3.2128,0.0,0.0,0.0,0.0,0.0,0.0,0.0,0.0,0.0,0.0,0.0,0.0,0.0,0.0,0.0,0.0,0.0,0.0,0.0,0.0,0.0,0.0,0.0,0.0,0.0,0.0,0.0,0.0,0.0,0.0,0.0,0.0,0.0,0.0,0.0,0.0,0.0,0.0,0.0,0.0,0.0,0.0,0.0,0.0,0.0,0.0,0.0,0.0,0.0,0.0,0.0,0.0,0.0,0.0,0.0,0.0,0.0,0.0,0.0,0.0,0.0,0.0,0.0,0.0,0.0,0.0,0.0,0.0,0.0,0.0,0.0,0.0,0.0,0.0,0.0,0.0,0.0,0.0,0.0,0.0,0.0,0.0,0.0,0.0,0.0,0.0,0.0,0.0,0.0,0.0,0.0,0.0,0.0,0.0,0.0,0.0,0.0,0.0,0.0,0.0,0.0,0.0,0.0,0.0,0.0,0.0,0.0,0.0,-2.6574,-2.8965,-3.1133,-3.2081,-3.1909,-3.342,-3.3901,0.0,0.0,0.0,0.0,0.0,0.0,0.0,0.0,0.0,0.0,0.0,0.0,0.0,0.0,0.0,0.0,0.0,0.0,0.0,0.0,0.0,0.0,0.0,0.0,0.0,0.0,0.0,0.0,0.0,0.0,0.0,0.0,0.0,0.0,0.0,0.0,0.0,0.0,0.0,0.0,0.0,0.0,0.0,0.0,0.0,0.0,0.0,0.0,0.0,0.0,0.0,0.0,0.0,0.0,0.0,0.0,0.0,0.0,0.0,0.0,0.0,0.0,0.0,0.0,0.0,0.0,0.0,0.0,0.0,0.0,0.0,0.0,0.0,0.0,0.0,0.0,0.0,0.0,0.0,0.0,0.0,0.0,0.0,0.0,0.0,0.0,0.0,0.0,0.0,0.0,0.0,0.0,0.0,0.0,0.0,0.0,0.0,0.0,0.0,0.0,0.0,0.0,0.0,0.0,0.0,0.0,0.0,0.0,0.0,-2.9823,-3.0893,-3.2509,-3.4497,-3.32,-3.3289,0.0,0.0,0.0,0.0,0.0,0.0,0.0,0.0,0.0,0.0,0.0,0.0,0.0,0.0,0.0,0.0,0.0,0.0,0.0,0.0,0.0,0.0,0.0,0.0,0.0,0.0,0.0,0.0,0.0,0.0,0.0,0.0,0.0,0.0,0.0,0.0,0.0,0.0,0.0,0.0,0.0,0.0,0.0,0.0,0.0,0.0,0.0,0.0,0.0,0.0,0.0,0.0,0.0,0.0,0.0,0.0,0.0,0.0,0.0,0.0,0.0,0.0,0.0,0.0,0.0,0.0,0.0,0.0,0.0,0.0,0.0,0.0,0.0,0.0,0.0,0.0,0.0,0.0,0.0,0.0,0.0,0.0,0.0,0.0,0.0,0.0,0.0,0.0,0.0,0.0,0.0,0.0,0.0,0.0,0.0,0.0,0.0,0.0,0.0,0.0,0.0,0.0,0.0,0.0,0.0,0.0,0.0,0.0,0.0,-3.0832,-3.2619,-3.3673,-3.3971,-3.4207,-3.4397,-3.4534,0.0,0.0,0.0,0.0,0.0,0.0,0.0,0.0,0.0,0.0,0.0,0.0,0.0,0.0,0.0,0.0,0.0,0.0,0.0,0.0,0.0,0.0,0.0,0.0,0.0,0.0,0.0,0.0,0.0,0.0,0.0,0.0,0.0,0.0,0.0,0.0,0.0,0.0,0.0,0.0,0.0,0.0,0.0,0.0,0.0,0.0,0.0,0.0,0.0,0.0,0.0,0.0,0.0,0.0,0.0,0.0,0.0,0.0,0.0,0.0,0.0,0.0,0.0,0.0,0.0,0.0,0.0,0.0,0.0,0.0,0.0,0.0,0.0,0.0,0.0,0.0,0.0,0.0,0.0,0.0,0.0,0.0,0.0,0.0,0.0,0.0,0.0,0.0,0.0,0.0,0.0,0.0,0.0,0.0,0.0,0.0,0.0,0.0,0.0,0.0,0.0,0.0,0.0,0.0,0.0,0.0,0.0,0.0,-3.1517,-3.5549,-3.5459,-3.1102,-3.575,-3.6635,0.0,0.0,0.0,0.0,0.0,0.0,0.0,0.0,0.0,0.0,0.0,0.0,0.0,0.0,0.0,0.0,0.0,0.0,0.0,0.0,0.0,0.0,0.0,0.0,0.0,0.0,0.0,0.0,0.0,0.0,0.0,0.0,0.0,0.0,0.0,0.0,0.0,0.0,0.0,0.0,0.0,0.0,0.0,0.0,0.0,0.0,0.0,0.0,0.0,0.0,0.0,0.0,0.0,0.0,0.0,0.0,0.0,0.0,0.0,0.0,0.0,0.0,0.0,0.0,0.0,0.0,0.0,0.0,0.0,0.0,0.0,0.0,0.0,0.0,0.0,0.0,0.0,0.0,0.0,0.0,0.0,0.0,0.0,0.0,0.0,0.0,0.0,0.0,0.0,0.0,0.0,0.0,0.0,0.0,0.0,0.0,0.0,0.0,0.0,0.0,0.0,0.0,0.0,0.0,0.0,0.0,0.0,0.0,0.0,-3.0605,-3.3172,-3.4449,-3.4009,-3.3987,-3.3942,0.0,0.0,0.0,0.0,0.0,0.0,0.0,0.0,0.0,0.0,0.0,0.0,0.0,0.0,0.0,0.0,0.0,0.0,0.0,0.0,0.0,0.0,0.0,0.0,0.0,0.0,0.0,0.0,0.0,0.0,0.0,0.0,0.0,0.0,0.0,0.0,0.0,0.0,0.0,0.0,0.0,0.0,0.0,0.0,0.0,0.0,0.0,0.0,0.0,0.0,0.0,0.0,0.0,0.0,0.0,0.0,0.0,0.0,0.0,0.0,0.0,0.0,0.0,0.0,0.0,0.0,0.0,0.0,0.0,0.0,0.0,0.0,0.0,0.0,0.0,0.0,0.0,0.0,0.0,0.0,0.0,0.0,0.0,0.0,0.0,0.0,0.0,0.0,0.0,0.0,0.0,0.0,0.0,0.0,0.0,0.0,0.0,0.0,0.0,0.0,0.0,0.0,0.0,0.0,0.0,0.0,0.0,0.0,-2.871,-3.0508,-3.2458,-3.358,-3.401,-3.4247,-3.3853,0.0,0.0,0.0,0.0,0.0,0.0,0.0,0.0,0.0,0.0,0.0,0.0,0.0,0.0,0.0,0.0,0.0,0.0,0.0,0.0,0.0,0.0,0.0,0.0,0.0,0.0,0.0,0.0,0.0,0.0,0.0,0.0,0.0,0.0,0.0,0.0,0.0,0.0,0.0,0.0,0.0,0.0,0.0,0.0,0.0,0.0,0.0,0.0,0.0,0.0,0.0,0.0,0.0,0.0,0.0,0.0,0.0,0.0,0.0,0.0,0.0,0.0,0.0,0.0,0.0,0.0,0.0,0.0,0.0,0.0,0.0,0.0,0.0,0.0,0.0,0.0,0.0,0.0,0.0,0.0,0.0,0.0,0.0,0.0,0.0,0.0,0.0,0.0,0.0,0.0,0.0,0.0,0.0,0.0,0.0,0.0,0.0,0.0,0.0,0.0,0.0,0.0,0.0,0.0,0.0,0.0,0.0,0.0,-2.7261,-3.0918,-3.2915,-3.3477,-3.2611,-3.5176,-3.4912,0.0,0.0,0.0,0.0,0.0,0.0,0.0,0.0,0.0,0.0,0.0,0.0,0.0,0.0,0.0,0.0,0.0,0.0,0.0,0.0,0.0,0.0,0.0,0.0,0.0,0.0,0.0,0.0,0.0,0.0,0.0,0.0,0.0,0.0,0.0,0.0,0.0,0.0,0.0,0.0,0.0,0.0,0.0,0.0,0.0,0.0,0.0,0.0,0.0,0.0,0.0,0.0,0.0,0.0,0.0,0.0,0.0,0.0,0.0,0.0,0.0,0.0,0.0,0.0,0.0,0.0,0.0,0.0,0.0,0.0,0.0,0.0,0.0,0.0,0.0,0.0,0.0,0.0,0.0,0.0,0.0,0.0,0.0,0.0,0.0,0.0,0.0,0.0,0.0,0.0,0.0,0.0,0.0,0.0,0.0,0.0,0.0,0.0,0.0,0.0,0.0,0.0,0.0,0.0,0.0,0.0,0.0,0.0,-2.717,-3.1774,-3.5369,-3.6396,-3.4548,-3.3353,-3.2515,0.0,0.0,0.0,0.0,0.0,0.0,0.0,0.0,0.0,0.0,0.0,0.0,0.0,0.0,0.0,0.0,0.0,0.0,0.0,0.0,0.0,0.0,0.0,0.0,0.0,0.0,0.0,0.0,0.0,0.0,0.0,0.0,0.0,0.0,0.0,0.0,0.0,0.0,0.0,0.0,0.0,0.0,0.0,0.0,0.0,0.0,0.0,0.0,-5.0298,0.0,0.0,0.0,0.0,0.0,0.0,0.0,0.0,0.0,0.0,0.0,0.0,0.0,0.0,0.0,0.0,0.0,0.0,0.0,0.0,0.0,0.0,0.0,0.0,0.0,0.0,0.0,0.0,0.0,0.0,0.0,0.0,0.0,0.0,0.0,0.0,0.0,0.0,0.0,0.0,0.0,0.0,0.0,0.0,0.0,0.0,0.0,0.0,0.0,0.0,0.0,0.0,0.0,0.0,0.0,0.0,0.0,0.0,0.0,-2.9495,-3.2187,-3.6072,-3.7392,-3.557,-3.4449,-3.3844,0.0,0.0,0.0,0.0,0.0,0.0,0.0,0.0,0.0,0.0,0.0,0.0,0.0,0.0,0.0,0.0,0.0,0.0,0.0,0.0,0.0,0.0,0.0,0.0,0.0,0.0,0.0,0.0,0.0,0.0,0.0,0.0,0.0,0.0,0.0,0.0,0.0,0.0,0.0,0.0,0.0,0.0,0.0,0.0,0.0,0.0,0.0,0.0,0.0,0.0,0.0,0.0,0.0,0.0,0.0,0.0,0.0,0.0,0.0,0.0,0.0,0.0,0.0,0.0,0.0,0.0,0.0,0.0,0.0,0.0,0.0,0.0,0.0,0.0,0.0,0.0,0.0,0.0,0.0,0.0,0.0,0.0,0.0,0.0,0.0,0.0,0.0,0.0,0.0,0.0,0.0,0.0,0.0,0.0,0.0,0.0,0.0,0.0,0.0,0.0,0.0,0.0,0.0,0.0,0.0,0.0,0.0,-3.1065,-3.2253,-3.2505,-3.6194,-3.7558,-3.6295,-3.7027,-3.7014,-3.6037,0.0,0.0,0.0,0.0,0.0,0.0,0.0,0.0,0.0,0.0,0.0,0.0,0.0,0.0,0.0,0.0,0.0,0.0,0.0,0.0,0.0,0.0,0.0,0.0,0.0,0.0,0.0,0.0,0.0,0.0,0.0,0.0,0.0,0.0,0.0,0.0,0.0,0.0,-3.0255,-3.2844,0.0,0.0,0.0,0.0,0.0,0.0,0.0,0.0,-4.5935,0.0,0.0,0.0,0.0,0.0,0.0,0.0,0.0,0.0,0.0,0.0,0.0,0.0,0.0,0.0,0.0,0.0,0.0,0.0,0.0,0.0,0.0,0.0,0.0,0.0,0.0,0.0,0.0,0.0,0.0,0.0,0.0,0.0,0.0,0.0,0.0,0.0,0.0,0.0,0.0,0.0,0.0,0.0,0.0,0.0,0.0,0.0,0.0,0.0,0.0,0.0,0.0,0.0,0.0,0.0,0.0,-3.1571,-3.1938,-3.2487,-3.3203,-3.6417,-3.8074,-3.7843,-3.9593,-4.0304,-3.9639,0.0,0.0,0.0,0.0,0.0,0.0,0.0,0.0,0.0,0.0,0.0,0.0,0.0,0.0,0.0,0.0,0.0,0.0,0.0,0.0,0.0,0.0,0.0,0.0,0.0,0.0,0.0,0.0,0.0,0.0,0.0,0.0,0.0,0.0,0.0,0.0,0.0,0.0,0.0,-3.0711,-3.2424,0.0,0.0,0.0,0.0,0.0,0.0,0.0,0.0,-4.5478,0.0,0.0,0.0,0.0,0.0,0.0,0.0,0.0,0.0,0.0,0.0,0.0,0.0,0.0,0.0,0.0,0.0,0.0,0.0,0.0,0.0,0.0,0.0,0.0,0.0,0.0,0.0,0.0,0.0,0.0,0.0,0.0,0.0,0.0,0.0,0.0,0.0,0.0,0.0,0.0,0.0,0.0,0.0,0.0,0.0,0.0,0.0,0.0,0.0,0.0,0.0,0.0,0.0,0.0,0.0,-3.1988,-3.1808,-3.2073,-3.3359,-3.4862,-3.6523,-3.8179,-3.9457,-3.9882,0.0,0.0,0.0,0.0,0.0,0.0,0.0,0.0,0.0,0.0,0.0,0.0,0.0,0.0,0.0,0.0,0.0,0.0,0.0,0.0,0.0,0.0,0.0,0.0,0.0,0.0,0.0,0.0,0.0,0.0,0.0,0.0,0.0,0.0,0.0,0.0,0.0,0.0,0.0,0.0,-3.0356,-3.2137,-3.3804,0.0,0.0,0.0,0.0,0.0,0.0,-4.4691,-4.5746,0.0,0.0,0.0,0.0,0.0,0.0,0.0,0.0,0.0,0.0,0.0,0.0,0.0,0.0,0.0,0.0,0.0,0.0,0.0,0.0,0.0,0.0,0.0,0.0,0.0,0.0,0.0,0.0,0.0,0.0,0.0,0.0,0.0,0.0,0.0,0.0,0.0,0.0,0.0,0.0,0.0,0.0,0.0,0.0,0.0,0.0,0.0,0.0,0.0,0.0,0.0,0.0,0.0,0.0,0.0,-3.2105,-3.1774,-3.2002,-3.334,-3.3426,-3.4817,-3.7732,-3.8594,-3.8798,0.0,0.0,0.0,0.0,0.0,0.0,0.0,0.0,0.0,0.0,0.0,0.0,0.0,0.0,0.0,0.0,0.0,0.0,0.0,0.0,0.0,0.0,0.0,0.0,0.0,0.0,0.0,0.0,0.0,0.0,0.0,0.0,0.0,0.0,0.0,0.0,0.0,0.0,0.0,0.0,0.0,-3.2611,-3.375,-3.5652,0.0,0.0,0.0,0.0,-4.0018,-4.4251,0.0,0.0,0.0,0.0,0.0,0.0,0.0,0.0,0.0,0.0,0.0,0.0,0.0,0.0,0.0,0.0,0.0,0.0,0.0,0.0,0.0,0.0,0.0,0.0,0.0,0.0,0.0,0.0,0.0,0.0,0.0,0.0,0.0,0.0,0.0,0.0,0.0,0.0,0.0,0.0,0.0,0.0,0.0,0.0,0.0,0.0,0.0,0.0,0.0,0.0,0.0,0.0,0.0,0.0,0.0,0.0,-3.2572,-3.3001,-3.3218,-3.3359,-3.3426,-3.4471,-3.6665,-3.8113,-3.9386,0.0,0.0,0.0,0.0,0.0,0.0,0.0,0.0,0.0,0.0,0.0,0.0,0.0,0.0,0.0,0.0,0.0,0.0,0.0,0.0,0.0,0.0,0.0,0.0,0.0,0.0,0.0,0.0,0.0,0.0,0.0,0.0,0.0,0.0,0.0,0.0,0.0,0.0,0.0,0.0,0.0,-3.3321,-3.2726,-3.4633,-3.6016,0.0,0.0,-3.7168,-3.9825,-4.6158,0.0,0.0,0.0,0.0,0.0,0.0,0.0,0.0,0.0,0.0,0.0,0.0,0.0,0.0,0.0,0.0,0.0,0.0,0.0,0.0,0.0,0.0,0.0,0.0,0.0,0.0,0.0,0.0,0.0,0.0,0.0,0.0,0.0,0.0,0.0,0.0,0.0,0.0,0.0,0.0,0.0,0.0,0.0,0.0,0.0,0.0,0.0,0.0,0.0,0.0,0.0,0.0,0.0,0.0,0.0,-2.751,-3.122,-3.2199,-3.2932,-3.3398,-3.3328,-3.3857,-3.4714,-3.5852,-3.6844,0.0,0.0,0.0,0.0,0.0,0.0,0.0,0.0,0.0,0.0,0.0,0.0,0.0,0.0,0.0,0.0,0.0,0.0,0.0,0.0,0.0,0.0,0.0,0.0,0.0,0.0,0.0,0.0,0.0,0.0,0.0,0.0,0.0,0.0,0.0,0.0,0.0,0.0,0.0,0.0,0.0,0.0,-3.434,-3.5547,0.0,0.0,0.0,-3.7047,-4.0246,0.0,0.0,0.0,0.0,0.0,0.0,0.0,0.0,0.0,0.0,0.0,0.0,0.0,0.0,0.0,0.0,0.0,0.0,0.0,0.0,0.0,0.0,0.0,0.0,0.0,0.0,0.0,0.0,0.0,0.0,0.0,0.0,0.0,0.0,0.0,0.0,0.0,0.0,0.0,0.0,0.0,0.0,0.0,0.0,0.0,0.0,0.0,0.0,0.0,0.0,0.0,0.0,0.0,0.0,0.0,0.0,0.0,-3.0338,-3.1556,-3.2631,-3.3418,-3.3418,-3.3434,-3.3434,-3.4201,0.0,0.0,0.0,0.0,0.0,0.0,0.0,0.0,0.0,0.0,0.0,0.0,0.0,0.0,0.0,0.0,0.0,0.0,0.0,0.0,0.0,0.0,0.0,0.0,0.0,0.0,0.0,-2.8037,0.0,0.0,0.0,0.0,0.0,0.0,0.0,0.0,0.0,0.0,0.0,0.0,0.0,0.0,-3.3366,-3.5742,-3.6387,-3.6562,0.0,0.0,-3.7034,-4.0083,-3.9628,-3.9733,0.0,0.0,0.0,0.0,0.0,0.0,0.0,0.0,0.0,0.0,0.0,0.0,0.0,0.0,0.0,0.0,0.0,0.0,0.0,0.0,0.0,0.0,0.0,0.0,0.0,0.0,0.0,0.0,0.0,0.0,0.0,0.0,0.0,0.0,0.0,0.0,0.0,0.0,0.0,0.0,0.0,0.0,0.0,0.0,0.0,0.0,0.0,0.0,0.0,0.0,0.0,0.0,0.0,0.0,-2.6839,-3.0588,-3.1686,-3.265,-3.3418,-3.3418,-3.3434,-3.3434,-3.4389,-3.5223,0.0,0.0,0.0,0.0,0.0,0.0,0.0,0.0,0.0,0.0,0.0,0.0,0.0,0.0,0.0,0.0,0.0,0.0,0.0,0.0,0.0,0.0,0.0,0.0,0.0,0.0,0.0,0.0,0.0,0.0,0.0,0.0,0.0,0.0,0.0,0.0,0.0,0.0,0.0,0.0,0.0,-3.4678,-3.5859,-3.6406,-3.666,0.0,-3.6328,-3.6598,-3.8333,-3.996,-4.0392,-3.8502,0.0,0.0,0.0,0.0,0.0,0.0,0.0,0.0,0.0,0.0,0.0,0.0,0.0,0.0,0.0,0.0,0.0,0.0,0.0,0.0,0.0,0.0,0.0,0.0,0.0,0.0,0.0,0.0,0.0,0.0,0.0,0.0,0.0,0.0,0.0,0.0,0.0,0.0,0.0,0.0,0.0,0.0,0.0,0.0,0.0,0.0,0.0,0.0,0.0,0.0,0.0,0.0,0.0,-2.5169,-2.7825,-3.0114,-3.2011,-3.335,-3.4173,-3.4387,-3.4238,-3.4425,-3.4498,0.0,0.0,0.0,0.0,0.0,0.0,0.0,0.0,0.0,0.0,0.0,0.0,0.0,0.0,0.0,0.0,0.0,0.0,0.0,0.0,0.0,0.0,0.0,0.0,0.0,0.0,0.0,0.0,-2.4693,-2.5168,-2.5297,0.0,0.0,0.0,0.0,0.0,0.0,0.0,0.0,0.0,0.0,-3.3482,-3.5722,-3.6621,0.0,0.0,-3.6563,-3.7144,-3.8374,-3.7709,-3.7217,-3.7461,-3.7205,0.0,0.0,0.0,0.0,0.0,0.0,0.0,0.0,0.0,0.0,0.0,0.0,0.0,0.0,0.0,0.0,0.0,0.0,0.0,0.0,0.0,0.0,0.0,0.0,0.0,0.0,0.0,0.0,0.0,0.0,0.0,0.0,0.0,0.0,0.0,0.0,0.0,0.0,0.0,0.0,0.0,0.0,0.0,0.0,0.0,0.0,0.0,0.0,0.0,0.0,0.0,0.0,-2.4219,-2.6156,-2.8079,-3.053,-3.3679,-3.4259,-3.4853,-3.5393,-3.4844,-3.4473,0.0,0.0,0.0,0.0,0.0,0.0,0.0,0.0,0.0,0.0,0.0,0.0,0.0,0.0,0.0,0.0,0.0,0.0,0.0,0.0,0.0,0.0,0.0,0.0,0.0,0.0,0.0,0.0,-2.5534,-2.5855,-2.5215,0.0,0.0,0.0,0.0,0.0,0.0,0.0,0.0,0.0,0.0,-3.2532,-3.572,-3.6738,-3.6992,-3.6641,-3.676,-3.7208,-3.8098,-3.6415,-3.5461,-3.6582,0.0,0.0,0.0,0.0,0.0,0.0,0.0,0.0,0.0,0.0,0.0,0.0,0.0,0.0,0.0,0.0,0.0,0.0,0.0,0.0,0.0,0.0,0.0,0.0,0.0,0.0,0.0,-2.1109,0.0,0.0,-2.1096,0.0,0.0,0.0,0.0,0.0,0.0,0.0,0.0,0.0,0.0,0.0,0.0,0.0,0.0,0.0,0.0,0.0,0.0,0.0,0.0,0.0,0.0,-2.4427,-2.6653,-2.5513,-2.7989,-3.4158,-3.3521,-3.4214,-3.6992,-3.5973,-3.5371,-3.5351,0.0,0.0,0.0,0.0,0.0,0.0,0.0,0.0,0.0,0.0,0.0,0.0,0.0,0.0,0.0,0.0,0.0,0.0,0.0,0.0,0.0,0.0,0.0,0.0,0.0,0.0,-2.6795,-2.6528,-2.5673,0.0,0.0,0.0,0.0,0.0,0.0,0.0,0.0,0.0,0.0,-3.0551,-3.2308,-3.6047,-3.668,-3.6953,-3.7553,-3.679,-3.6402,-3.7129,-3.6499,-3.58,0.0,0.0,0.0,0.0,0.0,0.0,0.0,0.0,0.0,0.0,0.0,0.0,0.0,0.0,0.0,0.0,0.0,0.0,0.0,0.0,0.0,0.0,0.0,0.0,0.0,0.0,0.0,-1.8611,-1.9597,0.0,0.0,0.0,0.0,0.0,0.0,0.0,0.0,0.0,0.0,0.0,-2.4035,-2.3326,0.0,0.0,0.0,0.0,0.0,0.0,0.0,0.0,0.0,0.0,0.0,0.0,-2.4377,-2.5312,-2.6328,-2.7306,-2.8607,-3.0616,-3.2509,-3.407,-3.4463,-3.4947,-3.584,0.0,0.0,0.0,0.0,0.0,0.0,0.0,0.0,0.0,0.0,0.0,0.0,0.0,0.0,0.0,0.0,0.0,0.0,0.0,0.0,0.0,0.0,0.0,0.0,0.0,-2.7484,0.0,0.0,0.0,0.0,0.0,0.0,0.0,0.0,0.0,0.0,0.0,-2.472,-2.7614,-2.947,-3.1628,-3.4084,-3.4603,-3.477,0.0,0.0,0.0,0.0,0.0,0.0,0.0,0.0,0.0,0.0,0.0,0.0,0.0,0.0,-3.77,-3.7032,-3.6674,-3.6395,-3.603,0.0,0.0,0.0,0.0,0.0,0.0,0.0,0.0,0.0,0.0,0.0,0.0,0.0,0.0,-1.7058,0.0,-2.0258,0.0,0.0,0.0,0.0,0.0,0.0,0.0,0.0,-2.4301,-2.4756,-2.4943,-2.3868,-2.4605,0.0,-2.5636,-2.5603,0.0,0.0,0.0,0.0,0.0,0.0,0.0,0.0,-2.4556,-2.493,-2.6402,-2.6791,-2.6071,-2.8867,-3.045,-3.0348,-3.2271,-3.3659,-3.4305,-3.4287,-3.3974,0.0,0.0,0.0,0.0,0.0,0.0,0.0,0.0,0.0,0.0,0.0,0.0,0.0,0.0,0.0,0.0,0.0,0.0,0.0,0.0,0.0,0.0,0.0,-2.766,0.0,0.0,0.0,0.0,0.0,0.0,0.0,0.0,0.0,-2.3708,-2.3695,-2.4341,-2.6766,-2.8395,-3.0184,-3.1878,0.0,0.0,0.0,0.0,0.0,0.0,0.0,-3.6147,-3.5116,-3.5973,-3.6738,-3.6894,-3.7598,-3.8144,-3.8144,0.0,0.0,-3.709,-3.7134,-3.7213,-3.7016,-3.737,-3.8356,-4.0329,-4.1006,-4.1379,0.0,0.0,0.0,0.0,0.0,0.0,0.0,0.0,-1.522,-1.6658,0.0,-1.9518,0.0,0.0,0.0,0.0,0.0,-2.2485,0.0,0.0,-2.4329,-2.5405,-2.5585,-2.4985,-2.4972,-2.5598,-2.6202,-2.6026,-2.513,-2.4395,0.0,0.0,0.0,0.0,0.0,0.0,-2.4957,-2.5531,-2.5825,-2.6128,-2.6452,-2.823,-2.8395,-2.678,-2.9864,-3.1647,-3.1285,-3.1383,-3.1071,-3.0887,-3.4056,0.0,0.0,0.0,0.0,0.0,0.0,0.0,0.0,0.0,0.0,0.0,0.0,0.0,0.0,0.0,0.0,0.0,0.0,0.0,0.0,-2.6358,0.0,0.0,0.0,0.0,0.0,0.0,0.0,0.0,0.0,0.0,-2.38,-2.3917,-2.4731,-2.6683,0.0,0.0,0.0,0.0,-3.0447,-3.1137,-3.0632,-3.0503,-3.1547,-3.4809,-3.6463,-3.4559,0.0,0.0,-3.8555,-3.8633,-3.8633,-3.8652,-3.8672,-3.8059,-3.6511,-3.6884,-3.7595,-3.8457,-3.8602,-3.8695,-3.8602,-3.8655,-3.8275,-1.2416,0.0,0.0,0.0,0.0,-1.2074,-1.221,-1.2258,-1.3222,-1.4179,-1.5258,-1.4983,0.0,0.0,0.0,0.0,0.0,0.0,-2.138,-2.291,-2.3644,-2.4924,-2.676,-2.6653,-2.6653,-2.6774,-2.6492,-2.6334,-2.6333,-2.6329,-2.5778,-2.4716,0.0,0.0,0.0,0.0,-2.5558,-2.6106,-2.6226,-2.6281,-2.6479,-2.72,-2.7903,-2.8578,-2.9562,-3.051,-3.1514,-3.1384,-3.1218,-3.0887,-3.1571,0.0,0.0,0.0,0.0,0.0,0.0,0.0,0.0,0.0,0.0,0.0,0.0,0.0,0.0,0.0,0.0,0.0,0.0,0.0,-3.065,-3.0428,-3.0793,0.0,0.0,0.0,0.0,0.0,0.0,0.0,0.0,0.0,-2.4961,-2.4188,-2.4313,0.0,0.0,-2.7725,-2.8535,-2.855,-2.8796,-2.9455,-2.8095,0.0,-2.9686,-3.2742,-3.4865,-3.4913,-3.7179,-3.9082,-3.9844,-3.9707,-3.9609,-3.9902,-3.9726,-3.9382,-3.8859,-3.8484,-3.8555,-3.9287,-3.9985,-3.9945,-3.8818,-3.8691,-3.8652,-1.3232,-1.2344,-1.237,-1.2127,-1.2033,-1.2766,-1.3268,-1.3172,-1.2862,-1.3276,-1.4205,-1.2984,-1.3513,-1.5134,-1.8016,0.0,0.0,0.0,-2.0507,-2.2488,-2.343,-2.5305,-2.7789,-2.7789,-2.7722,-2.7615,-2.7231,-2.7033,-2.7001,-2.7378,-2.7013,-2.5959,0.0,0.0,-2.5852,-2.5972,-2.6199,-2.6547,-2.668,-2.6733,-2.6698,-2.6905,-2.7483,-2.8261,-2.8404,-2.8657,-2.9427,-2.9488,-2.9228,-2.8771,-2.8477,-2.8417,0.0,0.0,0.0,0.0,0.0,0.0,0.0,0.0,0.0,0.0,0.0,-2.6159,-2.6213,0.0,0.0,0.0,-2.8804,-3.1077,-3.2402,-3.1414,0.0,0.0,0.0,0.0,0.0,0.0,0.0,-2.9355,-3.2432,-3.2574,-2.7894,-2.5665,-2.4596,-2.4783,-2.582,-2.6657,-2.6972,0.0,-2.7187,-2.7535,-2.6694,-2.6378,-2.8032,-2.9989,-3.2266,-3.5477,-3.8028,-3.9961,-4.0625,-4.0566,-4.0508,-4.0684,-4.0566,-4.0469,-4.0337,-3.9926,-3.9778,-4.0365,-4.0863,-4.0823,-3.9582,-3.9551,-3.9473,-1.4303,-1.3591,-1.3599,-1.3177,-1.2785,-1.3971,-1.4325,-1.4318,-1.3645,-1.3397,-1.36,-1.2889,-1.2749,-1.3078,-1.3525,0.0,-1.4038,-1.8058,-2.0229,-2.1139,-2.3425,-2.5909,-2.8604,-2.8433,-2.8286,-2.8177,-2.819,-2.7923,-2.7402,-2.7935,-2.7907,-2.7321,-2.68,-2.6507,-2.6466,-2.672,-2.6867,-2.6894,-2.7161,-2.7308,-2.7295,-2.7295,-2.7161,-2.6867,-2.6841,-2.656,-2.6026,-2.6199,-2.6066,-2.5531,-2.5465,-2.5192,-2.4723,0.0,0.0,0.0,0.0,0.0,0.0,0.0,0.0,0.0,0.0,0.0,0.0,0.0,0.0,-2.5469,-3.1128,0.0,-3.192,-3.0787,0.0,0.0,0.0,-3.0691,-3.1363,-3.1791,-3.1708,-3.0855,0.0,0.0,-3.1623,-2.8026,-2.5391,-2.5144,-2.513,-2.5224,-2.5504,-2.5545,-2.5665,-2.6168,-2.6235,-2.645,-2.7135,-2.8016,-3.0608,-3.581,-3.8858,-4.0684,-4.1055,-4.1133,-4.1152,-4.1133,-4.1172,-4.1152,-4.1152,-4.1055,-4.1133,-4.1016,-4.1187,-4.0971,-4.0391,-4.0351,-4.0078,-1.5004,-1.4765,-1.4814,-1.4682,-1.4618,-1.4851,-1.5046,-1.4966,-1.4277,-1.3831,-1.377,-1.3526,-1.3271,-1.2977,-1.3546,-1.4096,-1.459,-1.5366,-1.7814,-2.1646,-2.2236,-2.4672,-2.8446,-2.8658,-2.8778,-2.8524,-2.8327,-2.8248,-2.8297,-2.8283,-2.8163,-2.7936,-2.7789,-2.7495,-2.7081,-2.7121,-2.7268,-2.7482,-2.7562,-2.7602,-2.7602,-2.7794,-2.7646,-2.7175,-2.6934,-2.6653,-2.6293,-2.5919,-2.5558,-2.5211,-2.5317,-2.5375,-2.5269,-2.4783,0.0,0.0,0.0,0.0,0.0,0.0,0.0,0.0,0.0,-2.5932,-2.5638,0.0,-2.5351,0.0,-3.1652,-3.5433,-3.5008,-3.4334,0.0,0.0,-3.5097,-3.5142,-3.5331,-3.5826,-3.5845,-3.4752,-3.5481,-3.499,-3.2518,-2.8668,-2.6075,-2.5832,-2.5545,-2.5518,-2.5798,-2.5852,-2.6039,-2.6493,-2.6413,-2.6703,-2.7525,-3.0647,-3.3656,-3.6862,-3.9273,-4.1055,-4.1152,-4.1172,-4.1172,-4.1172,-4.1172,-4.1172,-4.1172,-4.1151,-4.0935,-4.0684,-4.0859,-4.0994,-4.0195,-4.0039,-3.9785,-1.5282,-1.5276,-1.5208,-1.5183,-1.5251,-1.516,-1.5174,-1.5237,-1.4716,-1.4421,-1.4326,-1.4116,-1.3634,-1.3409,-1.3901,-1.4414,-1.4764,-1.5698,-1.8127,-2.1888,-2.2956,-2.5442,-2.9005,-2.8776,-2.8762,-2.9005,-2.8964,-2.8897,-2.8804,-2.8618,-2.8525,-2.8537,-2.8417,-2.819,-2.7869,-2.7722,-2.7736,-2.7896,-2.7848,-2.7981,-2.8283,-2.8177,-2.7896,-2.7468,-2.7175,-2.6694,-2.6026,-2.5812,-2.6017,-2.6622,-2.5855,-2.5555,-2.5792,-2.501,-2.4869,0.0,0.0,0.0,0.0,0.0,0.0,0.0,0.0,0.0,0.0,0.0,-2.6291,-3.0447,-3.263,-3.4571,-3.6132,-3.5234,-3.504,-3.6152,-3.6855,-3.7226,-3.7226,-3.6713,-3.6618,-3.7163,-3.6859,-3.48,-3.0473,-2.806,-2.6635,-2.6464,-2.6199,-2.6106,-2.6132,-2.6146,-2.6266,-2.6587,-2.6505,-2.6796,-2.7825,-2.9905,-3.2243,-3.4299,-3.6535,-3.8346,-3.9494,-3.9707,-4.0021,-4.0997,-4.1172,-4.1172,-4.1152,-4.1227,-4.0951,-4.0527,-4.0143,-3.9949,-3.9726,-3.9902,-3.9883,-1.5241,-1.5227,-1.5296,-1.5235,-1.5235,-1.5221,-1.5201,-1.5174,-1.5052,-1.4984,-1.495,-1.4484,-1.4104,-1.3998,-1.5212,-1.565,-1.5852,-1.7936,-2.0157,-2.2505,-2.4663,-2.7082,-2.9419,-2.8673,-2.8837,-2.9379,-2.9798,-2.9488,-2.8991,-2.8991,-2.8965,-2.8911,-2.8671,-2.8551,-2.8537,-2.8283,-2.815,-2.815,-2.8286,-2.8565,-2.8978,-2.8579,-2.8207,-2.7829,-2.7495,-2.68,-2.5745,-2.5865,-2.671,-2.7997,-2.7013,-2.6528,-2.7085,-2.6354,-2.621,0.0,-2.6047,0.0,0.0,0.0,0.0,0.0,0.0,0.0,0.0,-2.4389,-2.7159,-3.5175,-3.3177,-3.2631,-3.5705,-3.4403,-3.4015,-3.5895,-3.6828,-3.7143,-3.7238,-3.576,-3.5464,-3.7554,-3.7181,-3.4094,-2.7942,-2.7059,-2.7189,-2.6854,-2.6841,-2.6747,-2.656,-2.6426,-2.6386,-2.6426,-2.6547,-2.6958,-2.788,-2.8071,-2.8781,-3.0766,-3.3225,-3.4903,-3.7223,-3.7916,-3.8731,-4.0368,-4.123,-4.1367,-4.1328,-4.1364,-4.105,-4.0605,-3.9681,-3.9028,-3.9226,-3.9746,-3.9922,-1.5401,-1.5195,-1.5368,-1.5355,-1.5149,-1.5227,-1.5296,-1.5181,-1.5153,-1.5079,-1.4957,-1.4774,-1.4679,-1.484,-1.9094,-2.1067,-2.1029,-2.1478,-2.2976,-2.5354,-2.5896,-2.7152,-2.8977,-2.9379,-2.9245,-2.8818,-2.9594,-2.9379,-2.8698,-2.8883,-2.8762,-2.831,-2.8257,-2.823,-2.823,0.0,0.0,0.0,-2.8684,-2.8871,-2.8711,-2.9258,-2.919,-2.8444,-2.7909,0.0,-2.66,-2.6172,-2.5859,-2.5814,-2.8791,0.0,0.0,0.0,0.0,0.0,0.0,0.0,0.0,0.0,0.0,0.0,-2.5865,-2.5371,-2.485,-2.4143,-2.4915,-2.7525,-3.0419,-3.2261,-3.2176,-3.1868,-3.212,-3.3025,-3.3228,-3.3534,-3.4111,-3.3886,-3.3748,-3.3576,-3.3454,-3.2031,-2.8517,-2.7633,-2.7337,-2.7175,-2.7175,-2.7161,-2.7108,-2.6707,-2.6507,-2.672,-2.6998,-2.7522,-2.8166,-2.8329,-2.9091,-3.1197,-3.3597,-3.5212,-3.5792,-3.7491,-3.8671,-3.9483,-4.0849,-4.2168,-4.2168,-4.1601,-4.1249,-4.1055,-4.0257,-3.9557,-3.9297,-3.9336,-3.9277,-1.5723,0.0,-1.5778,-1.571,0.0,-1.5479,-1.5364,-1.5282,-1.5215,-1.514,-1.5065,-1.4936,-1.4875,-1.5243,-2.0281,-2.3785,-2.6086,-2.4889,-2.4936,-2.6042,-2.7312,-2.8271,-2.9259,-2.9447,-2.938,-2.9045,-2.9045,-2.8965,-2.8818,-2.8632,-2.8552,-2.8591,-2.8444,-2.8377,-2.8364,-2.8377,-2.8444,-2.8577,-2.8685,-2.8897,-2.9245,-2.965,-2.9515,-2.8818,-2.8243,0.0,0.0,0.0,0.0,0.0,0.0,0.0,0.0,-3.6489,0.0,-2.9792,-2.7381,-2.6266,-2.6573,-2.6466,-2.6266,-2.5972,-2.5411,-2.486,-2.4688,-2.4555,-2.4972,-2.5882,-2.8174,-3.0124,-3.1874,-3.099,-3.1014,-3.2626,-3.2879,-3.3043,-3.3215,-3.2634,-3.2395,-3.2682,-3.1189,-2.9406,-2.8325,-2.7975,-2.7615,-2.7509,-2.7482,-2.7495,-2.7442,-2.7108,-2.6934,-2.7025,-2.7277,-2.7789,-2.8473,-2.8791,-2.9111,-3.0255,-3.1335,-3.2689,-3.3707,-3.4887,-3.6392,-3.8394,-3.9903,-4.0914,-4.2203,-4.2111,-4.17,-4.1621,-4.1364,-4.0892,-4.0386,-4.0019,-3.9726,-1.6273,-1.6144,-1.6199,-1.6055,-1.6105,-1.5719,-1.5418,-1.5167,0.0,0.0,0.0,-1.5272,-1.5603,-1.6732,-2.1646,-2.6121,-2.973,-2.7863,-2.6641,-2.658,-2.8574,-2.9432,-2.9325,-2.9138,-2.9125,-2.9232,-2.8483,-2.8351,-2.8885,-2.8485,-2.8485,-2.8858,-2.8644,-2.8524,-2.8524,-2.8524,-2.8698,-2.9018,-2.8696,-2.8947,-2.982,-2.9864,-2.9622,-2.9125,-2.8591,-2.8056,-2.7522,-2.6934,-2.7368,-2.8831,-2.6418,-2.8385,-3.584,-3.6653,-3.3818,-2.7337,-2.6464,-2.6426,-2.6466,-2.6413,-2.6132,-2.5545,-2.5024,-2.4674,-2.4625,-2.5157,-2.5799,-2.6279,-2.6398,-2.7962,-3.1417,-3.0156,-2.9792,-3.2174,-3.257,-3.2428,-3.2364,-3.131,-3.1003,-3.1803,-2.9585,-2.7762,-2.8331,-2.8352,-2.8217,-2.8003,-2.7989,-2.7936,-2.7883,-2.7602,-2.7375,-2.7231,-2.7363,-2.7795,-2.8641,-2.9041,-2.9177,-2.9219,-2.9326,-2.9863,-3.1383,-3.2215,-3.4064,-3.7847,-3.879,-4.0161,-4.2133,-4.2582,-4.2466,-4.2031,-4.2329,-4.2425,-4.1582,-4.1113,-4.0723,-1.6476,-1.6449,-1.6098,-1.6157,-1.6001,-1.5723,-1.5459,-1.5215,-1.5187,-1.5181,-1.5181,-1.5167,-1.7616,-2.1801,-2.6641,-2.9286,-2.9911,-2.948,-2.9217,-2.8942,-2.9309,-2.9219,-2.8751,-2.9352,-2.9363,-2.8377,-2.8182,-2.8326,-2.8283,-2.827,-2.8257,-2.827,-2.823,-2.8217,-2.8203,-2.8203,-2.8484,-2.9032,-2.9488,-2.9662,-2.9539,-2.9753,-2.9726,-2.9432,-2.9098,-2.8764,-2.843,-2.7829,-2.7552,-2.7622,-2.6974,-2.7209,-2.8018,-2.9254,-2.9065,-2.7922,-2.7054,-2.6573,-2.6747,-2.6533,-2.6132,-2.5571,-2.5211,-2.4966,-2.4723,-2.5119,-2.5678,-2.6356,-2.6464,-2.6612,-2.7547,-2.7401,-2.762,-2.8495,-2.8606,-2.8703,-2.9091,-2.8854,-2.8895,-2.9063,-2.8453,-2.8273,-2.8798,-2.887,-2.8845,-2.8831,-2.8711,-2.8804,-2.8644,-2.815,-2.7529,-2.7363,-2.7729,-2.8217,-2.8802,-2.9431,-2.9662,-2.9392,-2.9619,-2.9891,-3.0233,-3.1782,-3.3838,-3.6649,-3.8303,-4.0545,-4.276,-4.3588,-4.3352,-4.3033,-4.3159,-4.3141,-4.2445,-4.2168,-4.1894,-1.6673,-1.6735,-1.6456,-1.6286,-1.6062,-1.5569,-1.5267,-1.5187,-1.5181,-1.5181,-1.5174,-1.512,-1.7343,-2.149,-2.728,-2.9911,-2.988,-2.9967,-2.9766,-2.9486,-2.9325,-2.9098,-2.8845,-2.9014,-2.8866,-2.8404,-2.835,-2.827,-2.815,-2.815,-2.815,-2.815,-2.815,-2.815,-2.815,-2.815,-2.8364,-2.8804,-2.9286,-2.9501,-2.9486,-2.9766,-2.978,-2.9499,-2.9339,-2.9138,-2.8845,-2.8257,-2.7802,-2.7522,-2.7362,-2.7268,-2.6941,-2.7784,-2.8249,-2.8235,-2.7552,-2.6972,-2.6841,-2.64,-2.6039,-2.5772,-2.5478,-2.5259,-2.5035,-2.5396,-2.575,-2.6346,-2.6706,-2.6934,-2.7028,-2.7054,-2.7295,-2.7883,-2.7802,-2.7816,-2.8096,-2.831,-2.839,-2.822,-2.8261,-2.8459,-2.9431,-2.9553,-2.9259,-2.9045,-2.9045,-2.9045,-2.9045,-2.8711,-2.8233,-2.7866,-2.7971,-2.8353,-2.8831,-2.9569,-2.9798,-2.9673,-2.982,-2.99,-2.9913,-3.0959,-3.2337,-3.4417,-3.5967,-3.7861,-4.1118,-4.2959,-4.338,-4.3457,-4.3523,-4.3386,-4.3144,-4.3125,-4.2812,-1.7058,-1.7051,-1.6551,-1.6313,-1.5961,-1.5462,-1.52,-1.5187,-1.5181,-1.5181,-1.5167,-1.5272,-1.708,-2.0602,-2.6977,-2.9986,-2.994,-2.9913,-2.9753,-2.9472,-2.9179,-2.8657,-2.8191,-2.8089,-2.7984,-2.7761,-2.7957,-2.8203,-2.815,-2.815,-2.815,-2.815,-2.815,-2.815,-2.815,-2.815,-2.8297,-2.8604,-2.8698,-2.8964,-2.9379,-2.9415,-2.9415,-2.9406,-2.9446,-2.9379,-2.9125,-2.8631,-2.823,-2.8016,-2.7869,-2.7729,-2.7461,-2.8061,-2.8426,-2.8217,-2.7963,-2.7509,-2.6867,-2.6279,-2.5959,-2.5959,-2.5745,-2.5537,-2.5568,-2.5557,-2.5885,-2.648,-2.7054,-2.7324,-2.7295,-2.7362,-2.7575,-2.8056,-2.7936,-2.7909,-2.8123,-2.8364,-2.8537,-2.8419,-2.8459,-2.8844,-2.9542,-2.9986,-2.9677,-2.9285,-2.9179,-2.9152,-2.9219,-2.9192,-2.895,-2.8789,-2.8535,-2.8561,-2.9026,-2.9662,-2.9797,-2.9873,-2.9913,-2.9913,-2.9913,-2.9913,-3.0959,-3.2867,-3.3556,-3.5273,-3.8732,-4.1806,-4.3079,-4.2921,-4.3118,-4.3652,-4.3633,-4.3633,-4.3379,-1.6958,-1.6897,-1.642,-1.5984,-1.5676,-1.5364,-1.5215,-1.5181,-1.5181,-1.5181,-1.5181,-1.5167,-1.6971,-2.0814,-2.6926,-2.9742,-2.9747,-2.9913,-2.9766,-2.9309,-2.9179,-2.783,-2.5856,-2.7337,-2.6632,-2.4909,-2.6999,-2.8036,-2.7799,-2.7968,-2.8136,-2.815,-2.815,-2.8136,-2.8136,-2.8136,-2.8297,-2.8604,-2.8312,-2.847,-2.8897,-2.8535,-2.8535,-2.9085,-2.9339,-2.9472,-2.9392,-2.9125,-2.8938,-2.8885,-2.8364,-2.8061,-2.8142,-2.8762,-2.8933,-2.8182,-2.8074,-2.7736,-2.6894,-2.6279,-2.5972,-2.5959,-2.5945,-2.5763,-2.5634,-2.607,-2.656,-2.7162,-2.7203,-2.7459,-2.7575,-2.7655,-2.7789,-2.8083,-2.8096,-2.811,-2.8136,-2.8163,-2.8466,-2.896,-2.8871,-2.9152,-2.9771,-2.9824,-2.9793,-2.974,-2.9566,-2.9513,-2.9673,-2.9566,-2.9513,-2.9442,-2.9229,-2.9232,-2.9636,-2.988,-2.9851,-2.9873,-2.9913,-2.9913,-2.9913,-3.0093,-3.0616,-3.2174,-3.3043,-3.4082,-3.6913,-4.0413,-4.2275,-4.177,-4.2326,-4.3691,-4.3691,-4.3691,-4.3379,-1.7085,-1.6913,-1.6571,-1.5978,-1.5642,-1.5404,-1.5262,-1.5181,-1.5181,-1.5181,-1.5181,-1.5181,-1.7025,-2.0344,-2.4095,-2.6144,-2.7087,-2.7558,-2.7653,-2.7516,-2.7256,-2.6528,-2.5701,-2.5453,-2.5694,-2.624,-2.765,-2.6745,-2.4726,-2.5373,-2.5373,-2.4508,-2.6758,-2.7448,-2.6406,-2.7448,-2.7682,-2.6411,-2.7551,-2.7615,-2.6807,-2.7546,-2.8347,-2.8672,-2.9072,-2.9219,-2.9192,-2.8938,-2.8791,-2.8751,-2.8377,-2.8167,-2.8247,-2.8524,-2.8681,-2.8579,-2.807,-2.7468,-2.7108,-2.6533,-2.6213,-2.6213,-2.6213,-2.6109,-2.6083,-2.632,-2.6773,-2.7649,-2.7894,-2.7825,-2.7682,-2.7856,-2.8003,-2.8123,-2.815,-2.815,-2.815,-2.831,-2.8484,-2.8604,-2.9071,-2.9555,-2.9853,-2.9931,-2.99,-2.9913,-2.9793,-2.9793,-2.9887,-2.9806,-2.9806,-2.9847,-2.97,-2.9633,-2.9918,-2.9945,-2.9985,-2.9873,-2.9913,-2.9913,-2.9913,-2.9913,-3.0258,-3.1301,-3.1479,-3.2351,-3.4242,-3.4815,-3.5978,-3.8389,-4.1974,-4.3691,-4.3691,-4.3691,-4.3496,-1.7037,-1.7002,-1.6625,-1.6042,-1.5567,-1.5221,-1.5282,-1.5187,-1.5181,-1.5181,-1.5181,-1.5181,-1.6494,-1.8735,-2.0055,-2.1723,-2.3557,-2.4785,-2.5127,-2.5093,-2.4868,-2.4396,-2.3824,-2.4019,-2.3875,-2.4822,-2.7033,-2.5157,-2.0288,-2.2407,-2.2783,-2.1911,-2.4667,-2.5373,-2.4166,-2.5543,-2.5543,-2.3995,-2.5556,-2.5738,-2.5116,-2.7033,-2.8217,-2.8551,-2.8845,-2.9005,-2.8925,-2.8791,-2.8684,-2.8604,-2.831,-2.822,-2.8191,-2.834,-2.847,-2.8778,-2.7883,-2.7268,-2.7255,-2.672,-2.6426,-2.6493,-2.6507,-2.6454,-2.6518,-2.6637,-2.7065,-2.7973,-2.8149,-2.8009,-2.7856,-2.8016,-2.8136,-2.815,-2.815,-2.815,-2.8163,-2.8364,-2.8484,-2.8221,-2.8778,-2.9662,-2.9825,-2.9931,-2.9913,-2.9913,-2.9913,-2.9541,-2.9182,-2.9362,-2.9721,-2.9169,-2.9349,-2.99,-2.9913,-2.9887,-2.9913,-2.9913,-2.9913,-2.9913,-2.9913,-2.9913,-2.9913,-3.0616,-3.0093,-3.0437,-3.2174,-3.1635,-3.3459,-3.9055,-4.2588,-4.3711,-4.3691,-4.3691,-4.3691,-1.7099,-1.6872,-1.633,-1.5918,-1.5411,-1.5262,-1.5194,-1.5181,-1.5181,-1.5181,-1.5181,-1.5181,-1.5368,-1.5549,-1.6018,-1.7443,-2.0235,-2.1781,-2.2546,-2.2719,-2.2323,-2.1135,-1.9305,-2.2056,-2.0724,-1.7105,-2.3392,-2.2978,-1.5602,-1.9195,-2.1394,-2.1221,-2.1566,-2.1566,-2.1394,-2.1739,-2.1566,-2.1739,-2.1943,-2.2643,-2.4726,-2.705,-2.8142,-2.8297,-2.8711,-2.8885,-2.8711,-2.8885,-2.8871,-2.8617,-2.831,-2.822,-2.8165,-2.8552,-2.8617,-2.8551,-2.7776,-2.7268,-2.7201,-2.672,-2.6493,-2.672,-2.676,-2.6733,-2.662,-2.6869,-2.745,-2.8108,-2.8171,-2.8265,-2.8123,-2.8136,-2.815,-2.815,-2.815,-2.815,-2.815,-2.8177,-2.8297,-2.8142,-2.8446,-2.8938,-2.9812,-2.9931,-2.9887,-2.9913,-2.9913,-2.8989,-2.7521,-2.8436,-2.8256,-2.7702,-2.8269,-2.9927,-2.9913,-2.9913,-2.9913,-2.9913,-2.9913,-2.9913,-2.9913,-2.9913,-2.9913,-2.9913,-2.9913,-3.0093,-3.0629,-3.2763,-3.6492,-4.0207,-4.2626,-4.3584,-4.3711,-4.3691,-4.3691,-1.6632,-1.6078,-1.5683,-1.5401,-1.5404,-1.5248,-1.5181,-1.5181,-1.5181,-1.5181,-1.5181,-1.5181,-1.5181,-1.5181,-1.514,-1.5867,-1.6987,-1.7675,-1.8601,-1.9957,-2.0078,-1.9499,-1.8928,-1.8558,-1.7278,-1.5521,-1.7681,-1.7737,-1.5211,-1.7605,-1.8279,-1.7597,-1.9845,-2.0529,-1.9488,-2.0529,-2.1221,-2.1211,-2.115,-2.2161,-2.3938,-2.6664,-2.8323,-2.8444,-2.8457,-2.8604,-2.8871,-2.8631,-2.8511,-2.8591,-2.831,-2.822,-2.8165,-2.8351,-2.8327,-2.8297,-2.7655,-2.7268,-2.7201,-2.672,-2.6426,-2.6533,-2.672,-2.6961,-2.7051,-2.7165,-2.7662,-2.8359,-2.8345,-2.8217,-2.8364,-2.827,-2.815,-2.815,-2.815,-2.815,-2.815,-2.815,-2.819,-2.8323,-2.8419,-2.9058,-2.9609,-2.9945,-2.9913,-2.9734,-2.8616,-2.7148,-2.6229,-2.5866,-2.5503,-2.6435,-2.8176,-2.9893,-2.9927,-2.9913,-2.9913,-2.9913,-2.9913,-2.9913,-2.9913,-2.9913,-2.9913,-2.9913,-2.9913,-2.9913,-3.0451,-3.341,-3.7391,-4.0043,-4.2293,-4.3565,-4.3691,-4.3691,-4.3691,-1.6327,-1.5579,-1.5288,-1.5281,-1.533,-1.5228,-1.5181,-1.5181,-1.5181,-1.5181,-1.5181,-1.5181,-1.5181,-1.5181,-1.5181,-1.5181,-1.5174,-1.5286,-1.6032,-1.7577,-1.7763,-1.7763,-1.7367,-1.596,-1.5107,-1.4808,-1.4517,-1.4423,-1.4496,-1.5933,-1.5866,-1.4646,-1.7597,-1.8287,-1.7238,-1.8976,-2.0009,-2.0154,-2.0726,-2.1905,-2.3722,-2.655,-2.8283,-2.8497,-2.8297,-2.8377,-2.8871,-2.8497,-2.8377,-2.8551,-2.8404,-2.8286,-2.8459,-2.8217,-2.8194,-2.8177,-2.7682,-2.7402,-2.7348,-2.6947,-2.672,-2.6814,-2.6987,-2.7228,-2.7522,-2.7543,-2.8083,-2.8601,-2.8717,-2.8466,-2.8457,-2.8323,-2.815,-2.815,-2.815,-2.815,-2.815,-2.815,-2.819,-2.835,-2.8923,-2.9515,-2.9662,-2.9012,-2.8783,-2.8629,-2.6604,-2.4945,-2.3838,-2.3473,-2.2923,-2.4956,-2.7876,-2.9545,-2.998,-2.9913,-2.9913,-2.9913,-2.9913,-2.9913,-2.9913,-2.9913,-2.9913,-2.9913,-2.9913,-2.9913,-3.1301,-3.4242,-3.7029,-3.9788,-4.1994,-4.3711,-4.3691,-4.3691,-4.3691,-1.6206,-1.5616,-1.5334,-1.5147,-1.5208,-1.5187,-1.5181,-1.5181,-1.5181,-1.5181,-1.5181,-1.5181,-1.5181,-1.5181,-1.5181,-1.5181,-1.5181,-1.5167,-1.5355,-1.5549,-1.5549,-1.5556,-1.5542,-1.5431,-1.5183,-1.5149,-1.4853,-1.4536,-1.4336,-1.4565,-1.4496,-1.4306,-1.4646,-1.4992,-1.4476,-1.6896,-1.8104,-1.8766,-2.0382,-2.2076,-2.3733,-2.6719,-2.827,-2.8168,-2.8283,-2.8297,-2.8617,-2.8577,-2.8537,-2.8564,-2.8577,-2.8775,-2.8856,-2.8498,-2.8194,-2.8203,-2.7843,-2.7696,-2.7642,-2.7375,-2.7281,-2.7455,-2.7629,-2.7543,-2.7381,-2.7888,-2.8283,-2.8379,-2.8811,-2.89,-2.8749,-2.839,-2.8177,-2.815,-2.815,-2.815,-2.7968,-2.815,-2.827,-2.8234,-2.8751,-2.9582,-2.9132,-2.7553,-2.6229,-2.5684,-2.4021,-2.1994,-2.052,-2.0714,-2.2004,-2.3127,-2.5605,-2.7851,-2.9067,-2.9913,-2.9913,-2.9913,-2.9913,-2.9913,-2.9913,-2.9913,-2.9913,-2.9913,-2.9913,-2.99,-3.0643,-3.3626,-3.8184,-4.1007,-4.2591,-4.373,-4.3691,-4.3691,-4.3691,-1.6138,-1.5294,-1.5294,-1.5127,-1.5187,-1.5181,-1.5181,-1.5181,-1.5181,-1.5181,-1.5181,-1.5181,-1.5181,-1.5181,-1.5181,-1.5181,-1.5181,-1.5181,-1.5181,-1.5181,-1.5181,-1.5181,-1.5174,-1.5133,-1.512,-1.5259,-1.5188,-1.4853,-1.445,-1.4336,-1.4407,-1.4319,-1.4299,-1.4299,-1.4476,-1.6553,-1.8453,-1.999,-2.0726,-2.2939,-2.6355,-2.7604,-2.8114,-2.8155,-2.8114,-2.8283,-2.8577,-2.8404,-2.8297,-2.831,-2.8497,-2.8789,-2.8856,-2.8498,-2.8168,-2.8203,-2.7869,-2.7709,-2.7669,-2.7455,-2.7335,-2.7428,-2.7589,-2.6505,-2.524,-2.6758,-2.726,-2.6661,-2.8087,-2.9431,-2.9232,-2.8751,-2.8404,-2.8163,-2.815,-2.7448,-2.6273,-2.7157,-2.8074,-2.79,-2.6303,-2.4977,-2.4721,-2.3817,-2.3656,-2.3473,-2.1636,-1.9604,-1.9056,-1.8135,-1.8321,-1.9983,-2.2984,-2.6323,-2.8113,-2.9362,-2.9913,-2.9913,-2.9913,-2.9913,-2.9913,-2.9913,-2.9913,-2.9913,-2.9913,-3.0191,-3.0751,-3.3626,-3.8167,-4.1634,-4.3318,-4.3662,-4.373,-4.373,-4.3808,-1.6007,-1.5421,-1.5214,-1.5269,-1.5181,-1.5181,-1.5181,-1.5181,-1.5181,-1.5181,-1.5181,-1.5181,-1.5181,-1.5181,-1.5181,-1.5181,-1.5181,-1.5181,-1.5181,-1.5181,-1.5181,-1.5181,-1.5181,-1.5181,-1.5181,-1.514,-1.5135,-1.5018,-1.4624,-1.4611,-1.4468,-1.4387,-1.4326,-1.4299,-1.4476,-1.6545,-1.8976,-2.1038,-2.2911,-2.5325,-2.7604,-2.815,-2.823,-2.818,-2.823,-2.8243,-2.8404,-2.8243,-2.8243,-2.8497,-2.8858,-2.9232,-2.9352,-2.8897,-2.8578,-2.8379,-2.8323,-2.8217,-2.8163,-2.7989,-2.7762,-2.7789,-2.6968,-2.5613,-2.3913,-2.5068,-2.4835,-2.5325,-2.7759,-2.9716,-2.9515,-2.9072,-2.8684,-2.8497,-2.7408,-2.5908,-2.4212,-2.4615,-2.5465,-2.4651,-2.2138,-2.0268,-1.9733,-2.0861,-2.1074,-2.0899,-1.9056,-1.7577,-1.7211,-1.6292,-1.7211,-1.828,-1.949,-2.3185,-2.7148,-2.8809,-2.9734,-2.9913,-2.9913,-2.9913,-2.9913,-2.9913,-2.9913,-2.9913,-2.9913,-2.9931,-3.0492,-3.4104,-3.8014,-4.0778,-4.3356,-4.3682,-4.373,-4.3965,-4.4023,-1.5856,-1.5415,-1.5337,-1.5228,-1.5208,-1.5208,-1.5201,-1.5181,-1.5181,-1.5181,-1.5181,-1.5181,-1.5181,-1.5181,-1.5181,-1.5181,-1.5181,-1.5181,-1.5181,-1.5181,-1.5181,-1.5181,-1.5181,-1.5181,-1.5181,-1.516,-1.5238,-1.5162,-1.5121,-1.4706,-1.4529,-1.4516,-1.4394,-1.4319,-1.485,-1.6569,-1.8811,-2.0935,-2.5431,-2.7905,-2.8127,-2.75,-2.7526,-2.7382,-2.7317,-2.7304,-2.7199,-2.7187,-2.7932,-2.8831,-2.9459,-2.9619,-2.9703,-2.9282,-2.911,-2.8991,-2.9018,-2.8951,-2.8938,-2.8617,-2.8484,-2.8273,-2.6702,-2.452,-2.3984,-2.2891,-2.2966,-2.4703,-2.7347,-2.911,-2.9256,-2.8881,-2.8522,-2.8069,-2.5932,-2.3615,-2.1465,-2.0949,-2.0831,-2.0252,-1.7559,-1.5265,-1.6015,-1.766,-1.8474,-1.8313,-1.6845,-1.5924,-1.5584,-1.596,-1.7787,-1.8466,-1.8954,-2.2049,-2.6592,-2.8989,-2.9913,-2.994,-2.998,-3.006,-3.0074,-3.0074,-3.0114,-3.01,-3.0007,-2.9985,-3.0942,-3.4082,-3.7531,-4.0808,-4.2667,-4.3292,-4.3867,-4.4121,-4.411,-1.6,-1.5771,-1.5395,-1.5254,-1.5167,-1.5154,-1.5282,-1.5194,-1.5187,-1.5194,-1.5187,-1.5181,-1.5194,-1.5181,-1.5181,-1.5181,-1.5181,-1.5181,-1.5181,-1.5181,-1.5181,-1.5181,-1.5181,-1.5181,-1.5181,-1.5174,-1.5133,-1.5265,-1.5169,-1.5066,-1.478,-1.4672,-1.4529,-1.4455,-1.4798,-1.6616,-1.8015,-1.9563,-2.5103,-2.7985,-2.746,-2.4592,-2.313,-2.3425,-2.3314,-2.3248,-2.3195,-2.3391,-2.5287,-2.8657,-2.9176,-2.9389,-2.9893,-2.9703,-2.9595,-2.9555,-2.9273,-2.9058,-2.9005,-2.8791,-2.8631,-2.8604,-2.768,-2.672,-2.4776,-2.2484,-2.2892,-2.4598,-2.5328,-2.6186,-2.8437,-2.808,-2.6234,-2.4052,-2.339,-2.1883,-1.94,-1.7322,-1.6159,-1.6125,-1.5604,-1.532,-1.5417,-1.568,-1.6479,-1.6292,-1.5751,-1.5228,-1.5276,-1.5444,-1.6711,-1.9176,-2.0436,-2.3106,-2.6025,-2.8436,-2.9747,-2.9967,-3.0087,-3.0301,-3.0354,-3.0434,-3.0515,-3.0581,-3.0461,-3.0455,-3.1042,-3.2834,-3.6768,-3.9872,-4.0978,-4.1321,-4.3266,-4.4188,-4.4045,-1.6055,-1.5845,-1.5696,-1.5355,-1.5221,-1.5214,-1.5357,-1.5289,-1.5276,-1.5276,-1.5289,-1.5154,-1.5107,-1.5194,-1.5248,-1.5235,-1.5187,-1.5181,-1.5181,-1.5181,-1.5181,-1.5181,-1.5181,-1.5181,-1.5181,-1.5181,-1.5181,-1.514,-1.5252,-1.5197,-1.5107,-1.4828,-1.4685,-1.4584,-1.4509,-1.5742,-1.7121,-1.8245,-2.1412,-2.3208,-2.4954,-2.1018,-1.8947,-1.9373,-2.0119,-2.1399,-2.151,-2.1696,-2.371,-2.6934,-2.866,-2.9619,-2.9864,-2.9878,-2.9974,-2.9825,-2.9609,-2.9419,-2.9352,-2.9138,-2.8978,-2.8765,-2.8165,-2.6835,-2.5255,-2.3069,-2.2883,-2.5259,-2.3795,-2.5184,-2.8398,-2.8463,-2.5948,-2.3125,-2.2171,-2.0658,-1.7278,-1.5504,-1.4671,-1.4765,-1.5025,-1.5272,-1.5174,-1.5181,-1.5181,-1.5194,-1.5444,-1.5316,-1.5371,-1.5506,-1.6234,-1.8731,-2.0881,-2.2954,-2.5936,-2.8576,-2.9986,-3.0194,-3.0408,-3.0595,-3.0662,-3.0755,-3.0768,-3.0822,-3.0808,-3.0926,-3.1469,-3.1958,-3.3694,-3.6098,-3.7804,-3.9493,-4.1079,-4.278,-4.2776,-1.6083,-1.6069,-1.614,-1.5794,-1.5281,-1.5247,-1.5254,-1.5629,-1.5404,-1.5398,-1.5425,-1.5169,-1.5241,-1.5194,-1.5309,-1.5127,-1.5181,-1.5181,-1.5181,-1.5181,-1.5181,-1.5181,-1.5181,-1.5181,-1.5181,-1.5181,-1.5181,-1.5174,-1.514,-1.5238,-1.519,-1.4957,-1.4841,-1.4706,-1.4638,-1.4853,-1.5731,-1.6752,-1.6445,-1.7985,-2.0032,-1.7714,-1.6025,-1.6242,-1.845,-2.0064,-2.044,-2.0798,-2.2077,-2.4606,-2.8106,-2.9628,-2.9913,-2.994,-2.99,-2.9873,-2.9833,-2.9833,-2.9833,-2.9566,-2.9432,-2.9189,-2.7385,-2.6042,-2.5878,-2.4731,-2.452,-2.6641,-2.4135,-2.447,-2.6556,-2.8231,-2.6194,-2.2658,-2.1965,-1.9795,-1.6155,-1.4718,-1.4798,-1.4805,-1.5113,-1.5167,-1.5181,-1.5181,-1.5187,-1.5269,-1.533,-1.5418,-1.5452,-1.5425,-1.6759,-1.8905,-2.0796,-2.2546,-2.5605,-2.8742,-2.9821,-3.0515,-3.0822,-3.1009,-3.0996,-3.1036,-3.0969,-3.0969,-3.1116,-3.1208,-3.115,-3.1805,-3.229,-3.2819,-3.4641,-3.6211,-3.7815,-3.9402,-4.0173,-1.6035,-1.6029,-1.6199,-1.6096,-1.5757,-1.5442,-1.5388,-1.5574,-1.5459,-1.5425,-1.5452,-1.5188,-1.5274,-1.5396,-1.5343,-1.5133,-1.5194,-1.5181,-1.5181,-1.5181,-1.5181,-1.5181,-1.5181,-1.5181,-1.5181,-1.5181,-1.5181,-1.5181,-1.5167,-1.5147,-1.5133,-1.5106,-1.4991,-1.4903,-1.4862,-1.4787,-1.4977,-1.5392,-1.5059,-1.5483,-1.6472,-1.6015,-1.5059,-1.5135,-1.6214,-1.6293,-1.6196,-1.6174,-1.7491,-2.0896,-2.5611,-2.8745,-2.97,-2.9814,-2.9927,-2.9913,-2.9913,-2.9913,-2.986,-2.9673,-2.9486,-2.9499,-2.8902,-2.866,-2.8699,-2.8271,-2.8218,-2.8243,-2.5172,-2.2596,-2.2188,-2.3279,-2.2739,-2.0899,-1.9789,-1.866,-1.5839,-1.5106,-1.512,-1.5133,-1.5153,-1.5181,-1.5181,-1.5194,-1.5242,-1.5337,-1.5438,-1.5527,-1.554,-1.554,-1.6722,-1.8496,-1.8527,-2.0353,-2.5106,-2.8272,-3.032,-3.0862,-3.1142,-3.1316,-3.1316,-3.1343,-3.1289,-3.137,-3.1503,-3.1517,-3.1275,-3.1235,-3.1799,-3.1734,-3.2084,-3.396,-3.5847,-3.6988,-3.751,-1.6083,-1.6076,-1.6206,-1.6089,-1.5945,-1.5601,-1.5375,-1.5615,-1.556,-1.556,-1.5635,-1.538,-1.5435,-1.5513,-1.5241,-1.5207,-1.5221,-1.5181,-1.5181,-1.5181,-1.5181,-1.5181,-1.5181,-1.5181,-1.5181,-1.5181,-1.5181,-1.5181,-1.5181,-1.5181,-1.5174,-1.5181,-1.5099,-1.5025,-1.4997,-1.495,-1.4957,-1.4964,-1.5038,-1.5113,-1.5153,-1.512,-1.5092,-1.516,-1.5106,-1.5018,-1.5149,-1.4875,-1.5661,-1.7564,-2.0847,-2.5343,-2.9184,-2.9853,-2.9927,-2.9913,-2.9913,-2.9913,-2.986,-2.978,-2.97,-2.9686,-2.9686,-2.9686,-2.9713,-2.9787,-2.984,-2.8655,-2.4956,-2.0732,-1.9242,-2.1083,-2.1083,-1.9604,-1.8871,-1.7771,-1.5924,-1.5181,-1.5181,-1.5181,-1.5174,-1.5181,-1.5187,-1.5235,-1.5309,-1.5404,-1.5615,-1.571,-1.5716,-1.5716,-1.6112,-1.6816,-1.627,-1.8208,-2.378,-2.7613,-3.0663,-3.1209,-3.141,-3.1517,-3.153,-3.1583,-3.1623,-3.165,-3.1637,-3.165,-3.1652,-3.145,-3.1611,-3.2066,-3.2529,-3.3358,-3.403,-3.4592,-3.4695,-1.6015,-1.6206,-1.6076,-1.6147,-1.5828,-1.5684,-1.552,-1.5662,-1.5649,-1.5696,-1.5852,-1.579,-1.5576,-1.554,-1.5328,-1.5227,-1.5248,-1.5181,-1.5181,-1.5181,-1.5181,-1.5181,-1.5181,-1.5181,-1.5181,-1.5181,-1.5181,-1.5181,-1.5181,-1.5181,-1.5181,-1.5181,-1.5181,-1.512,-1.5059,-1.5099,-1.5113,-1.5052,-1.5113,-1.516,-1.5181,-1.5174,-1.5174,-1.5174,-1.5174,-1.5153,-1.5113,-1.5065,-1.5238,-1.5153,-1.495,-1.9393,-2.5116,-2.97,-2.994,-2.9927,-2.9913,-2.9913,-2.9734,-2.9349,-2.9143,-2.9362,-2.8616,-2.8616,-2.8436,-2.8462,-2.8693,-2.6991,-2.3838,-1.9754,-1.8677,-1.9427,-1.9798,-1.8693,-1.8338,-1.7437,-1.596,-1.5228,-1.5269,-1.5181,-1.5187,-1.5194,-1.5255,-1.5323,-1.5398,-1.5499,-1.5723,-1.5872,-1.5879,-1.5866,-1.6251,-1.614,-1.582,-2.0252,-2.6046,-2.8278,-3.098,-3.145,-3.165,-3.1664,-3.1717,-3.1784,-3.1797,-3.169,-3.1664,-3.169,-3.173,-3.169,-3.192,-3.2409,-3.2709,-3.3281,-3.2968,-3.231,-3.2502,-1.6119,-1.6112,-1.6084,-1.5856,-1.5415,-1.5281,-1.5361,-1.5569,-1.5488,-1.5723,-1.5852,-1.5879,-1.5798,-1.5615,-1.5274,-1.5154,-1.5215,-1.5181,-1.5187,-1.5194,-1.5187,-1.5181,-1.5208,-1.5187,-1.5181,-1.5181,-1.5181,-1.5181,-1.5181,-1.5181,-1.5181,-1.5181,-1.5181,-1.5153,-1.5147,-1.5174,-1.5167,-1.5126,-1.5167,-1.5181,-1.5181,-1.5181,-1.5181,-1.5181,-1.5181,-1.5181,-1.5181,-1.516,-1.516,-1.5167,-1.5231,-1.6124,-1.9499,-2.5366,-2.8551,-2.9221,-2.9362,-2.9362,-2.8989,-2.7702,-2.6966,-2.6411,-2.5309,-2.4204,-2.4408,-2.5023,-2.5776,-2.4862,-2.2422,-1.9074,-1.6104,-1.6876,-1.6494,-1.596,-1.6045,-1.5927,-1.5581,-1.5438,-1.5438,-1.5316,-1.5262,-1.5248,-1.5357,-1.5466,-1.5574,-1.5689,-1.5859,-1.5995,-1.6042,-1.5988,-1.6131,-1.598,-1.5774,-2.2086,-2.8956,-3.0239,-3.165,-3.165,-3.1757,-3.177,-3.1824,-3.1957,-3.1957,-3.1917,-3.1824,-3.1784,-3.1824,-3.1699,-3.2051,-3.257,-3.2746,-3.3116,-3.2727,-3.2505,-3.2385,-1.5863,-1.5635,-1.556,-1.552,-1.5301,-1.5194,-1.5301,-1.5341,-1.5522,-1.5811,-1.5927,-1.6117,-1.5993,-1.5635,-1.5677,-1.5519,-1.5221,-1.5181,-1.5228,-1.5269,-1.5228,-1.5235,-1.5269,-1.5228,-1.5187,-1.5181,-1.5181,-1.5181,-1.5181,-1.5181,-1.5181,-1.5181,-1.5181,-1.5181,-1.5181,-1.5181,-1.5181,-1.5181,-1.5181,-1.5181,-1.5181,-1.5181,-1.5181,-1.5181,-1.5181,-1.5181,-1.5181,-1.5181,-1.5181,-1.5174,-1.5126,-1.5259,-1.6717,-1.9139,-2.3656,-2.5673,-2.7148,-2.7341,-2.6411,-2.4763,-2.4387,-2.4204,-2.2923,-2.2556,-2.2566,-2.3331,-2.3025,-2.1898,-2.1363,-1.8777,-1.5856,-1.5296,-1.5337,-1.5411,-1.5493,-1.5533,-1.5554,-1.5608,-1.5588,-1.5334,-1.5321,-1.5328,-1.5513,-1.5635,-1.5952,-1.5893,-1.6029,-1.611,-1.6191,-1.6151,-1.609,-1.675,-1.7389,-2.3495,-2.9442,-3.0599,-3.1753,-3.1931,-3.1548,-3.1561,-3.2024,-3.2171,-3.2251,-3.2238,-3.2118,-3.2091,-3.1806,-3.1719,-3.2318,-3.2727,-3.3084,-3.3219,-3.3076,-3.2853,-3.2706,-1.5581,-1.5142,-1.5221,-1.5167,-1.516,-1.5127,-1.3871,-1.2687,-1.3361,-1.4096,-1.5068,-1.5546,-1.5798,-1.5676,-1.5732,-1.5786,-1.5276,-1.5289,-1.5357,-1.5418,-1.5357,-1.535,-1.5343,-1.5303,-1.5221,-1.5181,-1.5181,-1.5181,-1.5181,-1.5181,-1.5181,-1.5181,-1.5181,-1.5181,-1.5181,-1.5181,-1.5181,-1.5181,-1.5181,-1.5181,-1.5181,-1.5181,-1.5181,-1.5181,-1.5181,-1.5181,-1.5181,-1.5181,-1.5181,-1.5181,-1.5167,-1.514,-1.5245,-1.521,-1.7088,-2.0677,-2.3838,-2.4021,-2.3289,-2.2004,-2.182,-2.181,-2.1267,-2.0917,-2.0788,-2.0268,-2.0064,-1.8752,-1.8599,-1.8102,-1.5758,-1.5466,-1.5554,-1.5649,-1.573,-1.5784,-1.5825,-1.5879,-1.577,-1.571,-1.5446,-1.5649,-1.5886,-1.5886,-1.6234,-1.6137,-1.6266,-1.6286,-1.6347,-1.6347,-1.6488,-1.7599,-1.9916,-2.5352,-2.9213,-3.043,-3.149,-3.2211,-3.1451,-3.0882,-3.1749,-3.2438,-3.2478,-3.2532,-3.2719,-3.2679,-3.2102,-3.197,-3.239,-3.2996,-3.3197,-3.3305,-3.3133,-3.3066,-3.2919,-1.5276,-1.5235,-1.5221,-1.5208,-1.5242,-1.518,-0.9841,-0.3305,-0.7086,-0.9546,-1.1833,-1.4446,-1.5569,-1.5542,-1.5649,-1.5588,-1.5567,-1.5547,-1.5554,-1.5594,-1.556,-1.5499,-1.5432,-1.5207,-1.5296,-1.5221,-1.5187,-1.5181,-1.5181,-1.5181,-1.5181,-1.5181,-1.5181,-1.5181,-1.5181,-1.5181,-1.5181,-1.5181,-1.5181,-1.5181,-1.5181,-1.5181,-1.5181,-1.5181,-1.5181,-1.5181,-1.5181,-1.5181,-1.5181,-1.5181,-1.5181,-1.5174,-1.5147,-1.5252,-1.5272,-1.7173,-1.9798,-2.2749,-2.185,-2.0353,-1.9285,-1.8922,-1.7803,-1.6567,-1.683,-1.7064,-1.6693,-1.5941,-1.6145,-1.6378,-1.5712,-1.5662,-1.5778,-1.592,-1.6049,-1.6144,-1.6198,-1.6144,-1.6031,-1.6152,-1.5903,-1.6105,-1.6536,-1.6508,-1.6508,-1.6408,-1.6483,-1.6497,-1.6483,-1.6469,-1.6408,-1.7307,-2.0133,-2.545,-3.0046,-3.1107,-3.162,-3.2324,-3.1777,-3.0821,-3.1633,-3.2679,-3.2719,-3.2812,-3.3053,-3.3106,-3.2616,-3.2549,-3.2893,-3.3026,-3.3372,-3.3479,-3.336,-3.3253,-3.312,-1.5276,-1.5221,-1.5221,-1.5255,-1.5133,-1.5254,-0.9322,-0.255,-0.5544,-0.8385,-0.9803,-1.3649,-1.5294,-1.5421,-1.5725,-1.5952,-1.5822,-1.5649,-1.5689,-1.5723,-1.5696,-1.5649,-1.5622,-1.5301,-1.516,-1.5316,-1.5228,-1.5181,-1.5181,-1.5187,-1.5181,-1.5181,-1.5181,-1.5181,-1.5181,-1.5181,-1.5181,-1.5181,-1.5181,-1.5181,-1.5181,-1.5181,-1.5181,-1.5181,-1.5181,-1.5187,-1.5181,-1.5181,-1.5181,-1.5181,-1.5181,-1.5181,-1.5201,-1.5403,-1.5465,-1.5681,-1.7284,-1.8403,-1.8118,-1.7468,-1.7147,-1.6867,-1.5934,-1.5568,-1.5493,-1.554,-1.5348,-1.5341,-1.554,-1.5608,-1.5744,-1.59,-1.6062,-1.6212,-1.6347,-1.6395,-1.6456,-1.6476,-1.6306,-1.644,-1.6359,-1.6761,-1.6927,-1.6824,-1.679,-1.6619,-1.6659,-1.6653,-1.6605,-1.6551,-1.6463,-1.655,-2.0259,-2.4859,-2.9507,-3.251,-3.2379,-3.2919,-3.2815,-3.2207,-3.2498,-3.2919,-3.2973,-3.3146,-3.3427,-3.3347,-3.308,-3.3093,-3.3213,-3.328,-3.3334,-3.3374,-3.3414,-3.3387,-3.328,-1.1452,-1.1605,-1.414,-1.5174,-1.5261,-1.5395,-0.9607,-0.1187,-0.559,-0.8024,-0.94,-1.3054,-1.5208,-1.5274,-1.5869,-1.598,-1.6098,-1.5737,-1.5811,-1.5839,-1.5818,-1.5798,-1.5757,-1.5608,-1.5513,-1.5466,-1.5194,-1.5337,-1.5309,-1.5269,-1.5235,-1.5187,-1.5181,-1.5181,-1.5181,-1.5187,-1.5194,-1.5262,-1.5255,-1.5255,-1.5255,-1.5296,-1.5255,-1.5228,-1.5215,-1.5221,-1.5187,-1.5181,-1.5181,-1.5181,-1.5181,-1.5181,-1.5194,-1.5296,-1.5561,-1.5629,-1.6501,-1.6394,-1.628,-1.582,-1.5452,-1.5527,-1.5608,-1.5581,-1.5462,-1.5689,-1.573,-1.5757,-1.5771,-1.5906,-1.6076,-1.6191,-1.6354,-1.6497,-1.6612,-1.6625,-1.6646,-1.6707,-1.6781,-1.6694,-1.6828,-1.7168,-1.7305,-1.7356,-1.7078,-1.6856,-1.6842,-1.6809,-1.6748,-1.6666,-1.6632,-1.6551,-1.8383,-2.346,-2.9903,-3.3092,-3.316,-3.3027,-3.292,-3.3147,-3.3001,-3.3187,-3.3253,-3.348,-3.3734,-3.3668,-3.3454,-3.348,-3.3293,-3.3427,-3.3374,-3.3387,-3.3414,-3.3414,-3.34,-0.0952,-0.1901,-1.1161,-1.4725,-1.4764,-1.5872,-0.9947,-0.0596,-0.5427,-0.7851,-0.9396,-1.3015,-1.5368,-1.5479,-1.5753,-1.6084,-1.6048,-1.6186,-1.6022,-1.6035,-1.6042,-1.5961,-1.5886,-1.5805,-1.5925,-1.5635,-1.5355,-1.5355,-1.556,-1.5432,-1.5323,-1.5208,-1.5208,-1.5187,-1.5194,-1.5208,-1.5276,-1.5343,-1.5377,-1.5391,-1.5432,-1.5466,-1.5452,-1.5289,-1.5316,-1.5337,-1.5201,-1.5208,-1.5208,-1.5215,-1.5215,-1.5215,-1.5248,-1.52,-1.5479,-1.5973,-1.5952,-1.6048,-1.5825,-1.5689,-1.5622,-1.5669,-1.5764,-1.5859,-1.571,-1.5872,-1.611,-1.6241,-1.6254,-1.6337,-1.6327,-1.651,-1.6619,-1.6714,-1.6788,-1.6822,-1.6876,-1.6992,-1.7073,-1.6956,-1.7063,-1.7392,-1.7655,-1.749,-1.7339,-1.7107,-1.6978,-1.6944,-1.689,-1.6829,-1.6863,-1.6829,-1.6962,-2.1827,-3.0527,-3.3029,-3.3132,-3.296,-3.2559,-3.2812,-3.3213,-3.3253,-3.3414,-3.325,-3.3435,-3.3638,-3.3921,-3.3851,-3.3594,-3.3386,-3.3427,-3.348,-3.344,-3.3414,-3.3414,-0.0,-0.0,-0.4273,-0.584,-0.6415,-1.2705,-0.9595,-0.14,-0.2203,-0.7159,-1.2613,-1.5048,-1.5739,-1.5334,-1.5615,-1.5966,-1.6124,-1.6035,-1.6083,-1.6103,-1.6083,-1.6042,-1.5974,-1.6096,-1.6014,-1.5764,-1.5696,-1.5635,-1.5615,-1.5581,-1.5547,-1.5438,-1.5296,-1.5201,-1.5194,-1.5282,-1.5364,-1.5425,-1.5506,-1.5547,-1.556,-1.5588,-1.5581,-1.5499,-1.5499,-1.5527,-1.5466,-1.5364,-1.5337,-1.5316,-1.5316,-1.5316,-1.5174,-1.5348,-1.5689,-1.6203,-1.6213,-1.6344,-1.6151,-1.5981,-1.5818,-1.5954,-1.611,-1.6239,-1.6004,-1.6038,-1.6279,-1.6341,-1.6773,-1.6632,-1.6578,-1.6686,-1.6754,-1.6863,-1.6944,-1.6992,-1.706,-1.7168,-1.7243,-1.729,-1.7224,-1.7589,-1.7616,-1.7827,-1.7683,-1.7344,-1.7202,-1.7066,-1.6985,-1.6931,-1.6944,-1.6924,-1.7044,-2.0381,-2.8815,-3.1488,-3.3237,-3.2729,-3.2008,-3.2274,-3.254,-3.3253,-3.328,-3.333,-3.2315,-3.1557,-3.195,-3.3355,-3.3641,-3.2494,-3.2859,-3.3413,-3.3333,-3.3213,-3.3414,-0.0,-0.0,-0.0,-0.0,-0.0,-0.7566,-0.662,-0.0,-0.0,-0.0,-1.1635,-1.3969,-1.5732,-1.4777,-1.1497,-1.3792,-1.4336,-1.4632,-1.4881,-1.5505,-1.611,-1.609,-1.6049,-1.6192,-1.6131,-1.6089,-1.6041,-1.5986,-1.5798,-1.5938,-1.5897,-1.5615,-1.5466,-1.5364,-1.5357,-1.5411,-1.5499,-1.5567,-1.5628,-1.5703,-1.5703,-1.5757,-1.5696,-1.5662,-1.5662,-1.5655,-1.5581,-1.5472,-1.5438,-1.5438,-1.5438,-1.5241,-1.5361,-1.5535,-1.5947,-1.6323,-1.6508,-1.6469,-1.6415,-1.6293,-1.6103,-1.6225,-1.6354,-1.6266,-1.6312,-1.6312,-1.6476,-1.6578,-1.6838,-1.7141,-1.6863,-1.6965,-1.7032,-1.7148,-1.7154,-1.7188,-1.7188,-1.7256,-1.7331,-1.7399,-1.7568,-1.7738,-1.7704,-1.7902,-1.771,-1.7365,-1.7229,-1.7087,-1.6971,-1.6937,-1.6944,-1.691,-1.7051,-2.1458,-2.6777,-2.9986,-3.2786,-3.1858,-3.1376,-3.1197,-3.1617,-3.2136,-3.1516,-2.9853,-2.902,-2.8786,-2.9221,-3.0094,-3.0772,-3.1073,-3.165,-3.1997,-3.2299,-3.2183,-3.32,-0.0,-0.0,-0.0,-0.0,-0.0,-0.0,-0.0,-0.0,-0.0,-0.0,-0.0,-1.0647,-1.4366,-1.2031,-0.5643,-0.707,-1.1748,-1.0431,-1.0877,-1.4125,-1.5764,-1.5924,-1.6096,-1.6069,-1.6029,-1.6069,-1.6022,-1.5995,-1.6029,-1.611,-1.6055,-1.5839,-1.573,-1.5622,-1.5628,-1.5628,-1.5703,-1.5811,-1.5629,-1.5845,-1.5872,-1.5954,-1.5872,-1.5791,-1.5798,-1.5805,-1.5723,-1.5581,-1.5554,-1.5608,-1.5533,-1.5554,-1.5495,-1.6131,-1.6302,-1.6592,-1.6735,-1.6852,-1.6551,-1.6517,-1.6503,-1.649,-1.6571,-1.6598,-1.6558,-1.6564,-1.6646,-1.701,-1.7113,-1.7236,-1.7168,-1.7277,-1.7317,-1.7338,-1.7331,-1.7324,-1.7317,-1.7378,-1.746,-1.7514,-1.769,-1.7846,-1.7799,-1.7717,-1.75,-1.7344,-1.7236,-1.7107,-1.6965,-1.6937,-1.6944,-1.6876,-1.703,-1.9775,-2.4451,-2.9706,-3.211,-3.1179,-3.0298,-2.9706,-2.933,-2.9112,-2.808,-2.6671,-2.5991,-2.5993,-2.6175,-2.6357,-2.6327,-2.6293,-2.9307,-3.0095,-3.0404,-3.1365,-3.2598,-0.0,-0.0,-0.0,-0.0,-0.0,-0.0,-0.0,-0.0,-0.0,-0.0,-0.0,-0.4461,-0.5435,-0.3507,-0.0,-0.0,-0.478,-0.9291,-1.0147,-1.1166,-1.444,-1.585,-1.6218,-1.6144,-1.609,-1.6083,-1.6083,-1.6083,-1.6069,-1.622,-1.6015,-1.5988,-1.6022,-1.5913,-1.575,-1.571,-1.5818,-1.5866,-1.5934,-1.6008,-1.6015,-1.6049,-1.6035,-1.592,-1.5967,-1.5961,-1.59,-1.5744,-1.5716,-1.5771,-1.5696,-1.5764,-1.5716,-1.6157,-1.655,-1.6694,-1.7003,-1.7051,-1.687,-1.689,-1.6822,-1.6554,-1.6748,-1.6795,-1.6829,-1.6917,-1.6992,-1.7264,-1.7387,-1.7497,-1.7351,-1.7372,-1.7399,-1.7392,-1.7392,-1.7392,-1.7405,-1.7528,-1.7616,-1.7643,-1.7758,-1.7833,-1.7833,-1.7697,-1.7494,-1.7351,-1.7236,-1.7053,-1.689,-1.6924,-1.6944,-1.6849,-1.721,-1.8715,-2.1915,-2.5779,-2.8298,-2.7688,-2.7294,-2.714,-2.6766,-2.62,-2.6133,-2.5155,-2.4168,-2.318,-2.3296,-2.2926,-2.1051,-2.1489,-2.571,-2.8552,-2.9209,-3.0785,-3.3,-0.0,-0.0,-0.0,-0.0,-0.0,-0.0,-0.0,-0.0,-0.0,-0.0,-0.0,-0.0,-0.0,-0.0,-0.0,-0.0,-0.0,-0.3247,-0.7569,-0.8804,-1.3967,-1.5805,-1.6354,-1.6239,-1.6191,-1.6151,-1.6103,-1.6083,-1.609,-1.6144,-1.6191,-1.6259,-1.632,-1.6218,-1.6056,-1.6035,-1.5988,-1.6022,-1.6069,-1.6123,-1.611,-1.6117,-1.6137,-1.6083,-1.6069,-1.6069,-1.6035,-1.5967,-1.5886,-1.5913,-1.5954,-1.5817,-1.5971,-1.6179,-1.6592,-1.6781,-1.4814,-1.4423,-1.3607,-1.3673,-1.3158,-1.3268,-1.5462,-1.6822,-1.7087,-1.6922,-1.7195,-1.7497,-1.7635,-1.7473,-1.7494,-1.75,-1.7548,-1.7555,-1.7555,-1.7561,-1.7541,-1.7656,-1.7697,-1.7512,-1.7751,-1.7812,-1.7819,-1.7656,-1.7487,-1.7365,-1.7243,-1.7039,-1.6856,-1.691,-1.6951,-1.6883,-1.6822,-1.7905,-1.8945,-2.0389,-2.2644,-2.3937,-2.4461,-2.4759,-2.3399,-2.2849,-2.343,-2.353,-2.1757,-2.0457,-2.0131,-1.9483,-1.9604,-2.1242,-2.4982,-2.6996,-2.788,-3.0416,-3.3253,-0.0,-0.0,-0.0,-0.0,-0.0,-0.0,-0.0,-0.0,-0.0,-0.0,-0.0,-0.0,-0.0,-0.0,-0.0,-0.0,-0.0,-0.0,-0.4115,-0.8881,-1.4317,-1.575,-1.6497,-1.6368,-1.6098,-1.6045,-1.6185,-1.6103,-1.611,-1.6212,-1.6341,-1.6463,-1.6503,-1.6463,-1.6408,-1.6347,-1.6239,-1.6178,-1.6178,-1.6205,-1.6171,-1.6018,-1.6205,-1.6157,-1.6103,-1.6083,-1.6049,-1.5995,-1.6008,-1.6049,-1.611,-1.6018,-1.6199,-1.6234,-1.6574,-1.545,-1.1968,-0.895,-0.8528,-0.8359,-0.9629,-1.0839,-1.4481,-1.6111,-1.7043,-1.7049,-1.7324,-1.7648,-1.7786,-1.7616,-1.7656,-1.7731,-1.7799,-1.7806,-1.7812,-1.7779,-1.7711,-1.7738,-1.7758,-1.7779,-1.7785,-1.7799,-1.7758,-1.7623,-1.7405,-1.7317,-1.7188,-1.7066,-1.6931,-1.6937,-1.6971,-1.6965,-1.6917,-1.6904,-1.7725,-1.8552,-1.9136,-2.1305,-2.2486,-2.2796,-2.1218,-2.0023,-2.0738,-2.0552,-1.8769,-1.7923,-1.8665,-1.9324,-2.0147,-2.2432,-2.5476,-2.7123,-2.8358,-3.1135,-3.3534,-0.0,-0.0,-0.0,-0.0,-0.0,-0.0,-0.0,-0.0,-0.0,-0.0,-0.0,-0.0,-0.0,-0.0,-0.0,-0.0,-0.0,-0.0,-0.0,-0.8563,-1.403,-1.5899,-1.6632,-1.6469,-1.6205,-1.6138,-1.6058,-1.6157,-1.6225,-1.6313,-1.6395,-1.6503,-1.6639,-1.6673,-1.6666,-1.6639,-1.6456,-1.6334,-1.6125,-1.6078,-1.6252,-1.6091,-1.6266,-1.6232,-1.6117,-1.6096,-1.6062,-1.6137,-1.6185,-1.6225,-1.6368,-1.6312,-1.6267,-1.3187,-1.1359,-1.546,-0.9225,-0.2565,-0.0,-0.6214,-0.8132,-0.879,-1.3113,-1.6382,-1.7096,-1.715,-1.7426,-1.7799,-1.7909,-1.7738,-1.7765,-1.7826,-1.788,-1.7894,-1.7444,-1.6299,-1.6028,-1.6028,-1.6268,-1.7792,-1.7799,-1.7478,-1.7445,-1.748,-1.7283,-1.7216,-1.7134,-1.7032,-1.6978,-1.6978,-1.7012,-1.7012,-1.6978,-1.6951,-1.7005,-1.7643,-1.8031,-1.8631,-1.9999,-2.0986,-1.9649,-1.8863,-1.8438,-1.8218,-1.7978,-1.7785,-1.806,-1.9126,-2.102,-2.3421,-2.6013,-2.7456,-2.9307,-3.1845,-3.3561,-0.0,-0.0,-0.0,-0.0,-0.0,-0.0,-0.0,-0.0,-0.0,-0.0,-0.0,-0.0,-0.0,-0.0,-0.0,-0.0,-0.0,-0.0,-0.2089,-0.5236,-1.3289,-1.5838,-1.6788,-1.6625,-1.6571,-1.6292,-1.6402,-1.6293,-1.6327,-1.6402,-1.6483,-1.6714,-1.6815,-1.6822,-1.6815,-1.6754,-1.6653,-1.6339,-1.6272,-1.6205,-1.6165,-1.6354,-1.6361,-1.6286,-1.6164,-1.6103,-1.6117,-1.6252,-1.6118,-1.6179,-1.6333,-1.632,-1.4755,-0.9924,-0.5521,-0.8197,-0.4971,-0.0,-0.0,-0.0,-0.4719,-0.0,-0.0,-1.2561,-1.5896,-1.7284,-1.7616,-1.7745,-1.7806,-1.7853,-1.7867,-1.788,-1.7907,-1.7928,-1.6126,-1.4325,-1.4097,-1.4092,-1.5407,-1.7365,-1.7731,-1.7391,-1.7257,-1.729,-1.7182,-1.7168,-1.7114,-1.7019,-1.6978,-1.6978,-1.7039,-1.7093,-1.7039,-1.6992,-1.706,-1.7134,-1.7449,-1.778,-1.8065,-1.864,-1.7772,-1.8074,-1.8053,-1.806,-1.7846,-1.8067,-1.87,-2.0631,-2.2501,-2.5079,-2.7429,-2.918,-3.0817,-3.2225,-3.3534,-0.0,-0.0,-0.0,-0.0,-0.0,-0.0,-0.0,-0.0,-0.0,-0.0,-0.0,-0.0,-0.0,-0.0,-0.0,-0.0,-0.0,-0.0,-0.0,-0.0,-1.0366,-1.5301,-1.6741,-1.7058,-1.6734,-1.6693,-1.6592,-1.6618,-1.6381,-1.6442,-1.6625,-1.6951,-1.6958,-1.6944,-1.6924,-1.6849,-1.6761,-1.6686,-1.6433,-1.6379,-1.6435,-1.6429,-1.6456,-1.632,-1.6205,-1.613,-1.6178,-1.6065,-1.5779,-1.5679,-1.628,-1.6295,-1.064,-0.6407,-0.2368,-0.0,-0.0,-0.0,-0.0,-0.0,-0.0,-0.0,-0.0,-0.0,-1.0469,-1.6045,-1.7266,-1.7812,-1.7874,-1.7867,-1.7867,-1.7666,-1.7471,-1.6361,-1.4564,-1.1416,-0.8501,-0.9368,-1.1533,-1.414,-1.7568,-1.7237,-1.7157,-1.6989,-1.7107,-1.7114,-1.7087,-1.6992,-1.7005,-1.7005,-1.7087,-1.7175,-1.7168,-1.7141,-1.7188,-1.7249,-1.7263,-1.7338,-1.7446,-1.7548,-1.7738,-1.7812,-1.786,-1.786,-1.8081,-1.9126,-2.0177,-2.1858,-2.4336,-2.7514,-2.9677,-3.1329,-3.2571,-3.325,-3.332,-0.0,-0.0,-0.0,-0.0,-0.0,-0.0,-0.0,-0.0,-0.0,-0.0,-0.0,-0.0,-0.0,-0.0,-0.0,-0.0,-0.0,-0.0,-0.0,-0.0,-0.8243,-1.4019,-1.6354,-1.7071,-1.6829,-1.7016,-1.6907,-1.6742,-1.6517,-1.6551,-1.6612,-1.6809,-1.6904,-1.6978,-1.6978,-1.6904,-1.6863,-1.6788,-1.6741,-1.6673,-1.6537,-1.6476,-1.6463,-1.6374,-1.6085,-1.5473,-1.5563,-1.5956,-1.3314,-1.1285,-1.5145,-1.1853,-0.412,-0.0,-0.0,-0.0,-0.0,-0.0,-0.0,-0.0,-0.0,-0.0,-0.0,-0.0,-0.5689,-1.2768,-1.6859,-1.7405,-1.7907,-1.788,-1.788,-1.7458,-1.6811,-1.5249,-1.2553,-0.7837,-0.0,-0.0,-0.0,-1.1156,-1.5643,-1.7096,-1.7016,-1.6942,-1.7066,-1.7026,-1.7012,-1.6998,-1.7066,-1.71,-1.7188,-1.727,-1.7331,-1.7338,-1.7365,-1.7358,-1.7372,-1.7453,-1.7568,-1.765,-1.7717,-1.7792,-1.786,-1.786,-1.8288,-1.9543,-2.1423,-2.3467,-2.6104,-2.9503,-3.1255,-3.2673,-3.2851,-3.3333,-3.3467,-0.0,-0.0,-0.0,-0.0,-0.0,-0.0,-0.0,-0.0,-0.0,-0.0,-0.0,-0.0,-0.0,-0.0,-0.0,-0.0,-0.0,-0.0,-0.0,-0.0,-0.6093,-1.1601,-1.4767,-1.6883,-1.7058,-1.7044,-1.6955,-1.6859,-1.668,-1.6659,-1.6714,-1.6836,-1.6944,-1.6978,-1.6978,-1.6971,-1.6937,-1.6856,-1.7016,-1.6727,-1.64,-1.6115,-1.6299,-1.6239,-1.4357,-1.3333,-1.3643,-1.4215,-1.4505,-1.032,-1.0657,-0.7126,-0.0,-0.0,-0.0,-0.0,-0.0,-0.0,-0.0,-0.0,-0.0,-0.0,-0.0,-0.0,-0.0,-0.7706,-1.2694,-1.3891,-1.7282,-1.7941,-1.7955,-1.753,-1.7327,-1.6206,-0.9862,-0.3583,-0.0,-0.0,-0.0,-0.5191,-1.0746,-1.7175,-1.6902,-1.7073,-1.7019,-1.7114,-1.708,-1.7127,-1.7175,-1.7229,-1.7311,-1.7378,-1.7446,-1.7494,-1.7514,-1.75,-1.7696,-1.7575,-1.7677,-1.7731,-1.7772,-1.7819,-1.786,-1.8295,-1.9148,-2.0607,-2.2466,-2.4942,-2.8191,-3.1597,-3.2905,-3.3798,-3.3734,-3.3561,-3.3627,-0.0,-0.0,-0.0,-0.0,-0.0,-0.0,-0.0,-0.0,-0.0,-0.0,-0.0,-0.0,-0.0,-0.0,-0.0,-0.0,-0.0,-0.0,-0.0,-0.0,-0.0,-1.1782,-1.5012,-1.6937,-1.6904,-1.7051,-1.6968,-1.6829,-1.6701,-1.6607,-1.6788,-1.6944,-1.6978,-1.6978,-1.6978,-1.6978,-1.6958,-1.6924,-1.6876,-1.6184,-1.5634,-1.4458,-1.32,-1.174,-1.1334,-0.8434,-0.9342,-1.047,-1.352,-1.0813,-0.0,-0.0,-0.0,-0.0,-0.0,-0.0,-0.0,-0.0,-0.0,-0.0,-0.0,-0.0,-0.0,-0.0,-0.0,-0.0,-0.0,-0.0,-0.0,-1.5735,-1.5747,-1.736,-1.7149,-1.5347,-0.7637,-0.0,-0.0,-0.0,-0.0,-0.0,-0.7705,-1.5175,-1.7073,-1.7032,-1.706,-1.7154,-1.7236,-1.7304,-1.7365,-1.7426,-1.7494,-1.7534,-1.7575,-1.7623,-1.7663,-1.7643,-1.7827,-1.7616,-1.7704,-1.7765,-1.7812,-1.7846,-1.8295,-1.939,-2.0224,-2.1891,-2.4196,-2.711,-3.0329,-3.3317,-3.3612,-3.4108,-3.3975,-3.3855,-3.3961,-0.0,-0.0,-0.0,-0.0,-0.0,-0.0,-0.0,-0.0,-0.0,-0.0,-0.0,-0.0,-0.0,-0.0,-0.0,-0.0,-0.0,-0.0,-0.0,-0.0,-1.0419,-1.2823,-1.5438,-1.691,-1.6951,-1.6904,-1.7051,-1.6863,-1.6735,-1.6842,-1.6829,-1.6971,-1.6978,-1.6978,-1.6978,-1.6978,-1.6971,-1.6951,-1.6256,-1.5338,-0.9612,-0.7259,-0.3507,-0.5379,-1.0648,-0.711,-0.5046,-0.275,-0.2973,-0.2131,-0.0,-0.0,-0.0,-0.0,-0.0,-0.0,-0.0,-0.0,-0.0,-0.0,-0.0,-0.0,-0.0,-0.0,-0.0,-0.0,-0.0,-0.0,-0.0,-0.0,-0.9222,-1.3996,-1.5151,-1.2438,-0.6996,-0.0,-0.0,-0.0,-0.0,-0.0,-0.7981,-1.3562,-1.6996,-1.7161,-1.7107,-1.7195,-1.7263,-1.7338,-1.748,-1.7568,-1.7663,-1.7684,-1.7704,-1.7765,-1.7819,-1.7785,-1.7758,-1.7738,-1.7724,-1.7792,-1.784,-1.7853,-1.8515,-2.0042,-2.1732,-2.3395,-2.6122,-2.8633,-3.1486,-3.3862,-3.4156,-3.4255,-3.4148,-3.4162,-3.4255]},{"header":{"parameterUnit":"m.s-1","parameterCategory":1,"la1":31.0,"la2":29.5877,"lo1":-88.7671,"lo2":-86.6584,"dy":0.0162,"dx":0.0185,"nx":115,"ny":88,"refTime":"2024-02-11T06:00:00:Z","depth":0,"parameterNumber":3,"parameterNumberName":"V-component_of_WINDS"},"data":[0.0,0.0,0.0,0.0,0.0,0.0,0.0,0.0,0.0,0.0,0.0,0.0,0.0,0.0,0.0,0.0,0.0,0.0,0.0,0.0,0.0,0.0,0.0,0.0,0.0,0.0,0.0,0.0,0.0,0.0,0.0,0.0,0.0,0.0,0.0,0.0,0.0,0.0,0.0,0.0,0.0,0.0,0.0,0.0,0.0,0.0,0.0,0.0,0.0,0.0,0.0,0.0,0.0,0.0,0.0,0.0,0.0,0.0,0.0,0.0,0.0,0.0,0.0,0.0,0.0,0.0,0.0,0.0,0.0,0.0,0.0,0.0,0.0,0.0,0.0,0.0,0.0,0.0,0.0,0.0,0.0,0.0,0.0,0.0,0.0,0.0,0.0,0.0,0.0,0.0,0.0,0.0,0.0,0.0,0.0,0.0,0.0,0.0,0.0,0.0,0.0,0.0,0.0,0.0,0.0,0.0,0.0,0.0,0.0,0.0,0.0,0.0,0.0,0.0,0.0,0.0,0.0,0.0,0.0,0.0,0.0,0.0,0.0,0.0,0.0,0.0,0.0,0.0,0.0,0.0,0.0,0.0,0.0,0.0,0.0,0.0,0.0,0.0,0.0,0.0,0.0,0.0,0.0,0.0,0.0,0.0,0.0,0.0,0.0,0.0,0.0,0.0,0.0,0.0,0.0,0.0,0.0,0.0,0.0,0.0,0.0,0.0,0.0,0.0,0.0,0.0,0.0,0.0,0.0,0.0,0.0,0.0,0.0,0.0,0.0,0.0,0.0,0.0,0.0,0.0,0.0,0.0,0.0,0.0,0.0,0.0,0.0,0.0,0.0,0.0,0.0,0.0,0.0,0.0,0.0,0.0,0.0,0.0,0.0,0.0,0.0,0.0,0.0,0.0,0.0,0.0,0.0,0.0,0.0,0.0,0.0,0.0,0.0,0.0,0.0,0.0,0.0,0.0,0.0,0.0,0.0,0.0,0.0,0.0,0.0,0.0,0.0,0.0,0.0,0.0,0.0,0.0,0.0,0.0,0.0,0.0,0.0,0.0,0.0,0.0,0.0,0.0,0.0,0.0,0.0,0.0,0.0,0.0,0.0,0.0,0.0,0.0,0.0,0.0,0.0,0.0,0.0,0.0,0.0,0.0,0.0,0.0,0.0,0.0,0.0,0.0,0.0,0.0,0.0,0.0,0.0,0.0,0.0,0.0,0.0,0.0,0.0,0.0,0.0,0.0,0.0,0.0,0.0,0.0,0.0,0.0,0.0,0.0,0.0,0.0,0.0,0.0,0.0,0.0,0.0,0.0,0.0,0.0,0.0,0.0,0.0,0.0,0.0,0.0,0.0,0.0,0.0,0.0,0.0,0.0,0.0,0.0,0.0,0.0,0.0,0.0,0.0,0.0,0.0,0.0,0.0,0.0,0.0,0.0,0.0,0.0,0.0,0.0,0.0,0.0,0.0,0.0,0.0,0.0,0.0,0.0,0.0,0.0,0.0,0.0,0.0,0.0,0.0,0.0,0.0,0.0,0.0,0.0,0.0,0.0,0.0,0.0,0.0,0.0,0.0,0.0,0.0,0.0,0.0,0.0,0.0,0.0,0.0,0.0,0.0,0.0,0.0,0.0,0.0,0.0,0.0,0.0,0.0,0.0,0.0,0.0,0.0,0.0,0.0,0.0,0.0,0.0,0.0,0.0,0.0,0.0,0.0,0.0,0.0,0.0,0.0,0.0,0.0,0.0,0.0,0.0,0.0,0.0,0.0,0.0,0.0,0.0,0.0,0.0,0.0,0.0,0.0,0.0,0.0,0.0,0.0,0.0,0.0,0.0,0.0,0.0,0.0,0.0,0.0,0.0,0.0,0.0,0.0,0.0,0.0,0.0,0.0,0.0,0.0,0.0,0.0,0.0,0.0,0.0,0.0,0.0,0.0,0.0,0.0,0.0,0.0,0.0,0.0,0.0,0.0,0.0,0.0,0.0,0.0,0.0,0.0,0.0,0.0,0.0,0.0,0.0,0.0,0.0,0.0,0.0,0.0,0.0,0.0,0.0,0.0,0.0,0.0,0.0,0.0,0.0,0.0,0.0,0.0,0.0,0.0,0.0,0.0,0.0,0.0,0.0,0.0,0.0,0.0,0.0,0.0,0.0,0.0,0.0,0.0,0.0,0.0,0.0,0.0,0.0,0.0,0.0,0.0,0.0,0.0,0.0,0.0,0.0,0.0,0.0,0.0,0.0,0.0,0.0,0.0,0.0,0.0,0.0,0.0,0.0,0.0,0.0,0.0,0.0,0.0,0.0,0.0,0.0,0.0,0.0,0.0,0.0,0.0,0.0,0.0,0.0,0.0,0.0,0.0,0.0,0.0,0.0,0.0,0.0,0.0,0.0,0.0,0.0,0.0,0.0,0.0,0.0,0.0,0.0,0.0,0.0,0.0,0.0,0.0,0.0,0.0,0.0,0.0,0.0,0.0,0.0,0.0,0.0,0.0,0.0,0.0,0.0,0.0,0.0,0.0,0.0,0.0,0.0,0.0,0.0,0.0,0.0,0.0,0.0,0.0,0.0,0.0,0.0,0.0,0.0,0.0,0.0,0.0,0.0,0.0,0.0,0.0,0.0,0.0,0.0,0.0,0.0,0.0,0.0,0.0,0.0,0.0,0.0,0.0,0.0,0.0,0.0,0.0,0.0,0.0,0.0,0.0,0.0,0.0,0.0,0.0,0.0,0.0,0.0,0.0,0.0,0.0,0.0,0.0,0.0,0.0,0.0,0.0,0.0,0.0,0.0,0.0,0.0,0.0,0.0,0.0,0.0,0.0,0.0,0.0,0.0,0.0,0.0,0.0,0.0,0.0,0.0,0.0,0.0,0.0,0.0,0.0,0.0,0.0,0.0,0.0,0.0,0.0,0.0,0.0,0.0,0.0,0.0,0.0,0.0,0.0,0.0,0.0,0.0,0.0,0.0,0.0,0.0,0.0,0.0,0.0,0.0,0.0,0.0,0.0,0.0,0.0,0.0,0.0,0.0,0.0,0.0,0.0,0.0,0.0,0.0,0.0,0.0,0.0,0.0,0.0,0.0,0.0,0.0,0.0,0.0,0.0,0.0,0.0,0.0,0.0,0.0,0.0,0.0,0.0,0.0,0.0,0.0,0.0,0.0,0.0,0.0,0.0,0.0,0.0,0.0,0.0,0.0,0.0,0.0,0.0,0.0,0.0,0.0,0.0,0.0,0.0,0.0,0.0,0.0,0.0,0.0,0.0,0.0,0.0,0.0,0.0,0.0,0.0,0.0,0.0,0.0,0.0,0.0,0.0,0.0,0.0,0.0,0.0,0.0,0.0,0.0,0.0,0.0,0.0,0.0,0.0,0.0,0.0,0.0,0.0,0.0,0.0,0.0,0.0,0.0,0.0,0.0,0.0,0.0,0.0,0.0,0.0,0.0,0.0,0.0,0.0,0.0,0.0,0.0,0.0,0.0,0.0,0.0,0.0,0.0,0.0,0.0,0.0,0.0,0.0,0.0,0.0,0.0,0.0,0.0,0.0,0.0,0.0,0.0,0.0,0.0,0.0,0.0,0.0,0.0,0.0,0.0,0.0,0.0,0.0,0.0,0.0,0.0,0.0,0.0,0.0,0.0,0.0,0.0,0.0,0.0,0.0,0.0,0.0,0.0,0.0,0.0,0.0,0.0,0.0,0.0,0.0,0.0,0.0,0.0,0.0,0.0,0.0,0.0,0.0,0.0,0.0,0.0,0.0,0.0,0.0,0.0,0.0,0.0,0.0,0.0,0.0,0.0,0.0,0.0,0.0,0.0,0.0,0.0,0.0,0.0,0.0,0.0,0.0,0.0,0.0,0.0,0.0,0.0,0.0,0.0,0.0,0.0,0.0,0.0,0.0,0.0,0.0,0.0,0.0,0.0,0.0,0.0,0.0,0.0,0.0,0.0,0.0,0.0,0.0,0.0,0.0,0.0,0.0,0.0,0.0,0.0,0.0,0.0,0.0,0.0,0.0,0.0,0.0,0.0,0.0,0.0,0.0,0.0,0.0,0.0,0.0,0.0,0.0,0.0,0.0,0.0,0.0,0.0,0.0,0.0,0.0,0.0,0.0,0.0,0.0,0.0,0.0,0.0,0.0,0.0,0.0,0.0,0.0,0.0,0.0,0.0,0.0,0.0,0.0,0.0,0.0,0.0,0.0,0.0,0.0,0.0,0.0,0.0,0.0,0.0,0.0,0.0,0.0,0.0,0.0,0.0,0.0,0.0,0.0,0.0,-5.3281,0.0,0.0,0.0,0.0,0.0,0.0,0.0,0.0,0.0,0.0,0.0,0.0,0.0,0.0,0.0,0.0,0.0,0.0,0.0,0.0,0.0,0.0,0.0,0.0,0.0,0.0,0.0,0.0,0.0,0.0,0.0,0.0,0.0,0.0,0.0,0.0,0.0,0.0,0.0,0.0,0.0,0.0,0.0,0.0,0.0,0.0,0.0,0.0,0.0,0.0,0.0,0.0,0.0,0.0,0.0,0.0,0.0,0.0,0.0,0.0,0.0,0.0,0.0,0.0,0.0,0.0,0.0,0.0,0.0,0.0,0.0,0.0,0.0,0.0,0.0,0.0,0.0,0.0,0.0,0.0,0.0,0.0,0.0,0.0,0.0,0.0,0.0,0.0,0.0,0.0,0.0,0.0,0.0,0.0,0.0,0.0,0.0,0.0,0.0,0.0,0.0,0.0,0.0,0.0,0.0,0.0,0.0,0.0,0.0,0.0,-5.3849,-5.3513,-5.2298,-5.2266,-5.345,0.0,0.0,0.0,0.0,0.0,0.0,0.0,0.0,0.0,0.0,0.0,0.0,0.0,0.0,0.0,0.0,0.0,0.0,0.0,0.0,0.0,0.0,0.0,0.0,0.0,0.0,0.0,0.0,0.0,0.0,0.0,0.0,0.0,0.0,0.0,0.0,0.0,0.0,0.0,0.0,0.0,0.0,0.0,0.0,0.0,0.0,0.0,0.0,0.0,0.0,0.0,0.0,0.0,0.0,0.0,0.0,0.0,0.0,0.0,0.0,0.0,0.0,0.0,0.0,0.0,0.0,0.0,0.0,0.0,0.0,0.0,0.0,0.0,0.0,0.0,0.0,0.0,0.0,0.0,0.0,0.0,0.0,0.0,0.0,0.0,0.0,0.0,0.0,0.0,0.0,0.0,0.0,0.0,0.0,0.0,0.0,0.0,0.0,0.0,0.0,0.0,0.0,0.0,0.0,0.0,0.0,0.0,0.0,0.0,0.0,0.0,0.0,-5.257,-5.2536,-5.3721,0.0,0.0,0.0,0.0,0.0,0.0,0.0,0.0,0.0,0.0,0.0,0.0,0.0,0.0,0.0,0.0,0.0,0.0,0.0,0.0,0.0,0.0,0.0,0.0,0.0,0.0,0.0,0.0,0.0,0.0,0.0,0.0,0.0,0.0,0.0,0.0,0.0,0.0,0.0,0.0,0.0,0.0,0.0,0.0,0.0,0.0,0.0,0.0,0.0,0.0,0.0,0.0,0.0,0.0,0.0,0.0,0.0,0.0,0.0,0.0,0.0,0.0,0.0,0.0,0.0,0.0,0.0,0.0,0.0,0.0,0.0,0.0,0.0,0.0,0.0,0.0,0.0,0.0,0.0,0.0,0.0,0.0,0.0,0.0,0.0,0.0,0.0,0.0,0.0,0.0,0.0,0.0,0.0,0.0,0.0,0.0,0.0,0.0,0.0,0.0,0.0,0.0,0.0,0.0,0.0,0.0,0.0,0.0,0.0,0.0,-5.3788,-5.4466,-5.433,0.0,-5.4532,0.0,0.0,0.0,0.0,0.0,0.0,0.0,0.0,0.0,0.0,0.0,0.0,0.0,0.0,0.0,0.0,0.0,0.0,0.0,0.0,0.0,0.0,0.0,0.0,0.0,0.0,0.0,0.0,0.0,0.0,0.0,0.0,0.0,0.0,0.0,0.0,0.0,0.0,0.0,0.0,0.0,0.0,0.0,0.0,0.0,0.0,0.0,0.0,0.0,0.0,0.0,0.0,0.0,0.0,0.0,0.0,0.0,0.0,0.0,0.0,0.0,0.0,0.0,0.0,0.0,0.0,0.0,0.0,0.0,0.0,0.0,0.0,0.0,0.0,0.0,0.0,0.0,0.0,0.0,0.0,0.0,0.0,0.0,0.0,0.0,0.0,0.0,0.0,0.0,0.0,0.0,0.0,0.0,0.0,0.0,0.0,0.0,0.0,0.0,0.0,0.0,0.0,0.0,0.0,0.0,0.0,0.0,0.0,0.0,0.0,-5.318,-5.3954,-5.4362,-5.46,0.0,0.0,0.0,0.0,0.0,0.0,0.0,0.0,0.0,0.0,0.0,0.0,0.0,0.0,0.0,0.0,0.0,0.0,0.0,0.0,0.0,0.0,0.0,0.0,0.0,0.0,0.0,0.0,0.0,0.0,0.0,0.0,0.0,0.0,0.0,0.0,0.0,0.0,0.0,0.0,0.0,0.0,0.0,0.0,0.0,0.0,0.0,0.0,0.0,0.0,0.0,0.0,0.0,0.0,0.0,0.0,0.0,0.0,0.0,0.0,0.0,0.0,0.0,0.0,0.0,0.0,0.0,0.0,0.0,0.0,0.0,0.0,0.0,0.0,0.0,0.0,0.0,0.0,0.0,0.0,0.0,0.0,0.0,0.0,0.0,0.0,0.0,0.0,0.0,0.0,0.0,0.0,0.0,0.0,0.0,0.0,0.0,0.0,0.0,0.0,0.0,0.0,0.0,0.0,0.0,0.0,0.0,0.0,0.0,0.0,-5.2875,-5.3011,-5.3746,-5.4125,-5.4397,-5.4566,0.0,0.0,0.0,0.0,0.0,0.0,0.0,0.0,0.0,0.0,0.0,0.0,0.0,0.0,0.0,0.0,0.0,0.0,0.0,0.0,0.0,0.0,0.0,0.0,0.0,0.0,0.0,0.0,0.0,0.0,0.0,0.0,0.0,0.0,0.0,0.0,0.0,0.0,0.0,0.0,0.0,0.0,0.0,0.0,0.0,0.0,0.0,0.0,0.0,0.0,0.0,0.0,0.0,0.0,0.0,0.0,0.0,0.0,0.0,0.0,0.0,0.0,0.0,0.0,0.0,0.0,0.0,0.0,0.0,0.0,0.0,0.0,0.0,0.0,0.0,0.0,0.0,0.0,0.0,0.0,0.0,0.0,0.0,0.0,0.0,0.0,0.0,0.0,0.0,0.0,0.0,0.0,0.0,0.0,0.0,0.0,0.0,0.0,0.0,0.0,0.0,0.0,0.0,0.0,0.0,0.0,0.0,0.0,-5.5382,-5.4093,-5.3788,-5.4362,-5.389,-5.389,0.0,0.0,0.0,0.0,0.0,0.0,0.0,0.0,0.0,0.0,0.0,0.0,0.0,0.0,0.0,0.0,0.0,0.0,0.0,0.0,0.0,0.0,0.0,0.0,0.0,0.0,0.0,0.0,0.0,0.0,0.0,0.0,0.0,0.0,0.0,0.0,0.0,0.0,0.0,0.0,0.0,0.0,0.0,0.0,0.0,0.0,0.0,0.0,0.0,0.0,0.0,0.0,0.0,0.0,0.0,0.0,0.0,0.0,0.0,0.0,0.0,0.0,0.0,0.0,0.0,0.0,0.0,0.0,0.0,0.0,0.0,0.0,0.0,0.0,0.0,0.0,0.0,0.0,0.0,0.0,0.0,0.0,0.0,0.0,0.0,0.0,0.0,0.0,0.0,0.0,0.0,0.0,0.0,0.0,0.0,0.0,0.0,0.0,0.0,0.0,0.0,0.0,0.0,0.0,0.0,0.0,0.0,0.0,0.0,-5.2202,-5.2032,-5.163,-5.0892,-5.2539,-5.3078,0.0,0.0,0.0,0.0,0.0,0.0,0.0,0.0,0.0,0.0,0.0,0.0,0.0,0.0,0.0,0.0,0.0,0.0,0.0,0.0,0.0,0.0,0.0,0.0,0.0,0.0,0.0,0.0,0.0,0.0,0.0,0.0,0.0,0.0,0.0,0.0,0.0,0.0,0.0,0.0,0.0,0.0,0.0,0.0,0.0,0.0,0.0,0.0,0.0,0.0,0.0,0.0,0.0,0.0,0.0,0.0,0.0,0.0,0.0,0.0,0.0,0.0,0.0,0.0,0.0,0.0,0.0,0.0,0.0,0.0,0.0,0.0,0.0,0.0,0.0,0.0,0.0,0.0,0.0,0.0,0.0,0.0,0.0,0.0,0.0,0.0,0.0,0.0,0.0,0.0,0.0,0.0,0.0,0.0,0.0,0.0,0.0,0.0,0.0,0.0,0.0,0.0,0.0,0.0,0.0,0.0,0.0,0.0,0.0,-5.0225,0.0,-5.0192,-4.9121,-5.1085,-5.1918,0.0,0.0,0.0,0.0,0.0,0.0,0.0,0.0,0.0,0.0,0.0,0.0,0.0,0.0,0.0,0.0,0.0,0.0,0.0,0.0,0.0,0.0,0.0,0.0,0.0,0.0,0.0,0.0,0.0,0.0,0.0,0.0,0.0,0.0,0.0,0.0,0.0,0.0,0.0,0.0,0.0,0.0,0.0,0.0,0.0,0.0,0.0,0.0,0.0,0.0,0.0,0.0,0.0,0.0,0.0,0.0,0.0,0.0,0.0,0.0,0.0,0.0,0.0,0.0,0.0,0.0,0.0,0.0,0.0,0.0,0.0,0.0,0.0,0.0,0.0,0.0,0.0,0.0,0.0,0.0,0.0,0.0,0.0,0.0,0.0,0.0,0.0,0.0,0.0,0.0,0.0,0.0,0.0,0.0,0.0,0.0,0.0,0.0,0.0,0.0,0.0,0.0,0.0,0.0,0.0,0.0,0.0,0.0,-5.3009,-5.0168,-4.9823,-4.9637,-4.9608,-4.9548,-5.026,0.0,0.0,0.0,0.0,0.0,0.0,0.0,0.0,0.0,0.0,0.0,0.0,0.0,0.0,0.0,0.0,0.0,0.0,0.0,0.0,0.0,0.0,0.0,0.0,0.0,0.0,0.0,0.0,0.0,0.0,0.0,0.0,0.0,0.0,0.0,0.0,0.0,0.0,0.0,0.0,0.0,0.0,0.0,0.0,0.0,0.0,0.0,0.0,0.0,0.0,0.0,0.0,0.0,0.0,0.0,0.0,0.0,0.0,0.0,0.0,0.0,0.0,0.0,0.0,0.0,0.0,0.0,0.0,0.0,0.0,0.0,0.0,0.0,0.0,0.0,0.0,0.0,0.0,0.0,0.0,0.0,0.0,0.0,0.0,0.0,0.0,0.0,0.0,0.0,0.0,0.0,0.0,0.0,0.0,0.0,0.0,0.0,0.0,0.0,0.0,0.0,0.0,0.0,0.0,0.0,0.0,0.0,0.0,0.0,-4.8429,-4.78,-4.7523,-4.77,-4.899,-5.0294,0.0,0.0,0.0,0.0,0.0,0.0,0.0,0.0,0.0,0.0,0.0,0.0,0.0,0.0,0.0,0.0,0.0,0.0,0.0,0.0,0.0,0.0,0.0,0.0,0.0,0.0,0.0,0.0,0.0,0.0,0.0,0.0,0.0,0.0,0.0,0.0,0.0,0.0,0.0,0.0,0.0,0.0,0.0,0.0,0.0,0.0,0.0,0.0,0.0,0.0,0.0,0.0,0.0,0.0,0.0,0.0,0.0,0.0,0.0,0.0,0.0,0.0,0.0,0.0,0.0,0.0,0.0,0.0,0.0,0.0,0.0,0.0,0.0,0.0,0.0,0.0,0.0,0.0,0.0,0.0,0.0,0.0,0.0,0.0,0.0,0.0,0.0,0.0,0.0,0.0,0.0,0.0,0.0,0.0,0.0,0.0,0.0,0.0,0.0,0.0,0.0,0.0,0.0,0.0,0.0,0.0,0.0,0.0,0.0,-4.8396,-4.702,-4.656,-4.6972,-4.7956,-4.9352,-5.1199,0.0,0.0,0.0,0.0,0.0,0.0,0.0,0.0,0.0,0.0,0.0,0.0,0.0,0.0,0.0,0.0,0.0,0.0,0.0,0.0,0.0,0.0,0.0,0.0,0.0,0.0,0.0,0.0,0.0,0.0,0.0,0.0,0.0,0.0,0.0,0.0,0.0,0.0,0.0,0.0,0.0,0.0,0.0,0.0,0.0,0.0,0.0,0.0,0.0,0.0,0.0,0.0,0.0,0.0,0.0,0.0,0.0,0.0,0.0,0.0,0.0,0.0,0.0,0.0,0.0,0.0,0.0,0.0,0.0,0.0,0.0,0.0,0.0,0.0,0.0,0.0,0.0,0.0,0.0,0.0,0.0,0.0,0.0,0.0,0.0,0.0,0.0,0.0,0.0,0.0,0.0,0.0,0.0,0.0,0.0,0.0,0.0,0.0,0.0,0.0,0.0,0.0,0.0,0.0,0.0,0.0,0.0,0.0,-4.9951,-4.7606,-4.6842,-4.7664,-4.7014,-4.796,0.0,0.0,0.0,0.0,0.0,0.0,0.0,0.0,0.0,0.0,0.0,0.0,0.0,0.0,0.0,0.0,0.0,0.0,0.0,0.0,0.0,0.0,0.0,0.0,0.0,0.0,0.0,0.0,0.0,0.0,0.0,0.0,0.0,0.0,0.0,0.0,0.0,0.0,0.0,0.0,0.0,0.0,0.0,0.0,0.0,0.0,0.0,0.0,0.0,0.0,0.0,0.0,0.0,0.0,0.0,0.0,0.0,0.0,0.0,0.0,0.0,0.0,0.0,0.0,0.0,0.0,0.0,0.0,0.0,0.0,0.0,0.0,0.0,0.0,0.0,0.0,0.0,0.0,0.0,0.0,0.0,0.0,0.0,0.0,0.0,0.0,0.0,0.0,0.0,0.0,0.0,0.0,0.0,0.0,0.0,0.0,0.0,0.0,0.0,0.0,0.0,0.0,0.0,0.0,0.0,0.0,0.0,0.0,0.0,-5.1698,-5.0838,-5.0123,-4.9715,-4.9683,-5.0797,0.0,0.0,0.0,0.0,0.0,0.0,0.0,0.0,0.0,0.0,0.0,0.0,0.0,0.0,0.0,0.0,0.0,0.0,0.0,0.0,0.0,0.0,0.0,0.0,0.0,0.0,0.0,0.0,0.0,0.0,0.0,0.0,0.0,0.0,0.0,0.0,0.0,0.0,0.0,0.0,0.0,0.0,0.0,0.0,0.0,0.0,0.0,0.0,0.0,0.0,0.0,0.0,0.0,0.0,0.0,0.0,0.0,0.0,0.0,0.0,0.0,0.0,0.0,0.0,0.0,0.0,0.0,0.0,0.0,0.0,0.0,0.0,0.0,0.0,0.0,0.0,0.0,0.0,0.0,0.0,0.0,0.0,0.0,0.0,0.0,0.0,0.0,0.0,0.0,0.0,0.0,0.0,0.0,0.0,0.0,0.0,0.0,0.0,0.0,0.0,0.0,0.0,0.0,0.0,0.0,0.0,0.0,0.0,-5.4281,-5.2841,-5.3228,-5.3221,-5.2622,-5.2235,-5.2631,0.0,0.0,0.0,0.0,0.0,0.0,0.0,0.0,0.0,0.0,0.0,0.0,0.0,0.0,0.0,0.0,0.0,0.0,0.0,0.0,0.0,0.0,0.0,0.0,0.0,0.0,0.0,0.0,0.0,0.0,0.0,0.0,0.0,0.0,0.0,0.0,0.0,0.0,0.0,0.0,0.0,0.0,0.0,0.0,0.0,0.0,0.0,0.0,0.0,0.0,0.0,0.0,0.0,0.0,0.0,0.0,0.0,0.0,0.0,0.0,0.0,0.0,0.0,0.0,0.0,0.0,0.0,0.0,0.0,0.0,0.0,0.0,0.0,0.0,0.0,0.0,0.0,0.0,0.0,0.0,0.0,0.0,0.0,0.0,0.0,0.0,0.0,0.0,0.0,0.0,0.0,0.0,0.0,0.0,0.0,0.0,0.0,0.0,0.0,0.0,0.0,0.0,0.0,0.0,0.0,0.0,0.0,0.0,-5.5894,-5.3822,-5.5051,-5.5716,-5.5639,-5.4427,-5.376,0.0,0.0,0.0,0.0,0.0,0.0,0.0,0.0,0.0,0.0,0.0,0.0,0.0,0.0,0.0,0.0,0.0,0.0,0.0,0.0,0.0,0.0,0.0,0.0,0.0,0.0,0.0,0.0,0.0,0.0,0.0,0.0,0.0,0.0,0.0,0.0,0.0,0.0,0.0,0.0,0.0,0.0,0.0,0.0,0.0,0.0,0.0,0.0,0.0,0.0,0.0,0.0,0.0,0.0,0.0,0.0,0.0,0.0,0.0,0.0,0.0,0.0,0.0,0.0,0.0,0.0,0.0,0.0,0.0,0.0,0.0,0.0,0.0,0.0,0.0,0.0,0.0,0.0,0.0,0.0,0.0,0.0,0.0,0.0,0.0,0.0,0.0,0.0,0.0,0.0,0.0,0.0,0.0,0.0,0.0,0.0,0.0,0.0,0.0,0.0,0.0,0.0,0.0,0.0,0.0,0.0,0.0,0.0,-5.6329,-5.5312,-5.5787,-5.5777,-5.5289,-5.4695,-5.4653,0.0,0.0,0.0,0.0,0.0,0.0,0.0,0.0,0.0,0.0,0.0,0.0,0.0,0.0,0.0,0.0,0.0,0.0,0.0,0.0,0.0,0.0,0.0,0.0,0.0,0.0,0.0,0.0,0.0,0.0,0.0,0.0,0.0,0.0,0.0,0.0,0.0,0.0,0.0,0.0,0.0,0.0,0.0,0.0,0.0,0.0,0.0,0.0,-5.9678,0.0,0.0,0.0,0.0,0.0,0.0,0.0,0.0,0.0,0.0,0.0,0.0,0.0,0.0,0.0,0.0,0.0,0.0,0.0,0.0,0.0,0.0,0.0,0.0,0.0,0.0,0.0,0.0,0.0,0.0,0.0,0.0,0.0,0.0,0.0,0.0,0.0,0.0,0.0,0.0,0.0,0.0,0.0,0.0,0.0,0.0,0.0,0.0,0.0,0.0,0.0,0.0,0.0,0.0,0.0,0.0,0.0,0.0,0.0,-5.5766,-5.575,-5.608,-5.5962,-5.5566,-5.4336,-5.4162,0.0,0.0,0.0,0.0,0.0,0.0,0.0,0.0,0.0,0.0,0.0,0.0,0.0,0.0,0.0,0.0,0.0,0.0,0.0,0.0,0.0,0.0,0.0,0.0,0.0,0.0,0.0,0.0,0.0,0.0,0.0,0.0,0.0,0.0,0.0,0.0,0.0,0.0,0.0,0.0,0.0,0.0,0.0,0.0,0.0,0.0,0.0,0.0,0.0,0.0,0.0,0.0,0.0,0.0,0.0,0.0,0.0,0.0,0.0,0.0,0.0,0.0,0.0,0.0,0.0,0.0,0.0,0.0,0.0,0.0,0.0,0.0,0.0,0.0,0.0,0.0,0.0,0.0,0.0,0.0,0.0,0.0,0.0,0.0,0.0,0.0,0.0,0.0,0.0,0.0,0.0,0.0,0.0,0.0,0.0,0.0,0.0,0.0,0.0,0.0,0.0,0.0,0.0,0.0,0.0,0.0,0.0,-5.4907,-5.5306,-5.6018,-5.6001,-5.5945,-5.5889,-5.3375,-5.2861,-5.4705,0.0,0.0,0.0,0.0,0.0,0.0,0.0,0.0,0.0,0.0,0.0,0.0,0.0,0.0,0.0,0.0,0.0,0.0,0.0,0.0,0.0,0.0,0.0,0.0,0.0,0.0,0.0,0.0,0.0,0.0,0.0,0.0,0.0,0.0,0.0,0.0,0.0,0.0,-6.7558,-6.7339,0.0,0.0,0.0,0.0,0.0,0.0,0.0,0.0,-5.7748,0.0,0.0,0.0,0.0,0.0,0.0,0.0,0.0,0.0,0.0,0.0,0.0,0.0,0.0,0.0,0.0,0.0,0.0,0.0,0.0,0.0,0.0,0.0,0.0,0.0,0.0,0.0,0.0,0.0,0.0,0.0,0.0,0.0,0.0,0.0,0.0,0.0,0.0,0.0,0.0,0.0,0.0,0.0,0.0,0.0,0.0,0.0,0.0,0.0,0.0,0.0,0.0,0.0,0.0,0.0,0.0,-5.5518,-5.6163,-5.684,-5.7509,-5.581,-5.4883,-5.4806,-5.1599,-5.0896,-5.3083,0.0,0.0,0.0,0.0,0.0,0.0,0.0,0.0,0.0,0.0,0.0,0.0,0.0,0.0,0.0,0.0,0.0,0.0,0.0,0.0,0.0,0.0,0.0,0.0,0.0,0.0,0.0,0.0,0.0,0.0,0.0,0.0,0.0,0.0,0.0,0.0,0.0,0.0,0.0,-6.7781,-6.6848,0.0,0.0,0.0,0.0,0.0,0.0,0.0,0.0,-5.6412,0.0,0.0,0.0,0.0,0.0,0.0,0.0,0.0,0.0,0.0,0.0,0.0,0.0,0.0,0.0,0.0,0.0,0.0,0.0,0.0,0.0,0.0,0.0,0.0,0.0,0.0,0.0,0.0,0.0,0.0,0.0,0.0,0.0,0.0,0.0,0.0,0.0,0.0,0.0,0.0,0.0,0.0,0.0,0.0,0.0,0.0,0.0,0.0,0.0,0.0,0.0,0.0,0.0,0.0,0.0,-5.5685,-5.5653,-5.6401,-5.778,-5.6336,-5.518,-5.4525,-5.1654,-5.1277,0.0,0.0,0.0,0.0,0.0,0.0,0.0,0.0,0.0,0.0,0.0,0.0,0.0,0.0,0.0,0.0,0.0,0.0,0.0,0.0,0.0,0.0,0.0,0.0,0.0,0.0,0.0,0.0,0.0,0.0,0.0,0.0,0.0,0.0,0.0,0.0,0.0,0.0,0.0,0.0,-6.8582,-6.7376,-6.5634,0.0,0.0,0.0,0.0,0.0,0.0,-5.669,-5.5741,0.0,0.0,0.0,0.0,0.0,0.0,0.0,0.0,0.0,0.0,0.0,0.0,0.0,0.0,0.0,0.0,0.0,0.0,0.0,0.0,0.0,0.0,0.0,0.0,0.0,0.0,0.0,0.0,0.0,0.0,0.0,0.0,0.0,0.0,0.0,0.0,0.0,0.0,0.0,0.0,0.0,0.0,0.0,0.0,0.0,0.0,0.0,0.0,0.0,0.0,0.0,0.0,0.0,0.0,0.0,-5.5888,-5.5312,-5.5992,-5.7746,-5.6746,-5.5719,-5.4645,-5.2156,-5.1956,0.0,0.0,0.0,0.0,0.0,0.0,0.0,0.0,0.0,0.0,0.0,0.0,0.0,0.0,0.0,0.0,0.0,0.0,0.0,0.0,0.0,0.0,0.0,0.0,0.0,0.0,0.0,0.0,0.0,0.0,0.0,0.0,0.0,0.0,0.0,0.0,0.0,0.0,0.0,0.0,0.0,-6.7235,-6.553,-6.4649,0.0,0.0,0.0,0.0,-5.7956,-5.6638,0.0,0.0,0.0,0.0,0.0,0.0,0.0,0.0,0.0,0.0,0.0,0.0,0.0,0.0,0.0,0.0,0.0,0.0,0.0,0.0,0.0,0.0,0.0,0.0,0.0,0.0,0.0,0.0,0.0,0.0,0.0,0.0,0.0,0.0,0.0,0.0,0.0,0.0,0.0,0.0,0.0,0.0,0.0,0.0,0.0,0.0,0.0,0.0,0.0,0.0,0.0,0.0,0.0,0.0,0.0,0.0,-5.6701,-5.6588,-5.6959,-5.778,-5.6746,-5.5705,-5.4615,-5.2219,-5.1561,0.0,0.0,0.0,0.0,0.0,0.0,0.0,0.0,0.0,0.0,0.0,0.0,0.0,0.0,0.0,0.0,0.0,0.0,0.0,0.0,0.0,0.0,0.0,0.0,0.0,0.0,0.0,0.0,0.0,0.0,0.0,0.0,0.0,0.0,0.0,0.0,0.0,0.0,0.0,0.0,0.0,-6.4697,-6.3202,-6.2802,-6.2381,0.0,0.0,-5.8624,-5.7946,-5.777,0.0,0.0,0.0,0.0,0.0,0.0,0.0,0.0,0.0,0.0,0.0,0.0,0.0,0.0,0.0,0.0,0.0,0.0,0.0,0.0,0.0,0.0,0.0,0.0,0.0,0.0,0.0,0.0,0.0,0.0,0.0,0.0,0.0,0.0,0.0,0.0,0.0,0.0,0.0,0.0,0.0,0.0,0.0,0.0,0.0,0.0,0.0,0.0,0.0,0.0,0.0,0.0,0.0,0.0,0.0,-5.833,-5.7501,-5.7496,-5.762,-5.7848,-5.7437,-5.6627,-5.5554,-5.3656,-5.3359,0.0,0.0,0.0,0.0,0.0,0.0,0.0,0.0,0.0,0.0,0.0,0.0,0.0,0.0,0.0,0.0,0.0,0.0,0.0,0.0,0.0,0.0,0.0,0.0,0.0,0.0,0.0,0.0,0.0,0.0,0.0,0.0,0.0,0.0,0.0,0.0,0.0,0.0,0.0,0.0,0.0,0.0,-6.2918,-6.2829,0.0,0.0,0.0,-5.9577,-5.8558,0.0,0.0,0.0,0.0,0.0,0.0,0.0,0.0,0.0,0.0,0.0,0.0,0.0,0.0,0.0,0.0,0.0,0.0,0.0,0.0,0.0,0.0,0.0,0.0,0.0,0.0,0.0,0.0,0.0,0.0,0.0,0.0,0.0,0.0,0.0,0.0,0.0,0.0,0.0,0.0,0.0,0.0,0.0,0.0,0.0,0.0,0.0,0.0,0.0,0.0,0.0,0.0,0.0,0.0,0.0,0.0,0.0,-5.8279,-5.8119,-5.797,-5.7881,-5.7881,-5.733,-5.6197,-5.4999,0.0,0.0,0.0,0.0,0.0,0.0,0.0,0.0,0.0,0.0,0.0,0.0,0.0,0.0,0.0,0.0,0.0,0.0,0.0,0.0,0.0,0.0,0.0,0.0,0.0,0.0,0.0,-6.4481,0.0,0.0,0.0,0.0,0.0,0.0,0.0,0.0,0.0,0.0,0.0,0.0,0.0,0.0,-6.6558,-6.2853,-6.3024,-6.3328,0.0,0.0,-6.0731,-5.9425,-5.9307,-5.8907,0.0,0.0,0.0,0.0,0.0,0.0,0.0,0.0,0.0,0.0,0.0,0.0,0.0,0.0,0.0,0.0,0.0,0.0,0.0,0.0,0.0,0.0,0.0,0.0,0.0,0.0,0.0,0.0,0.0,0.0,0.0,0.0,0.0,0.0,0.0,0.0,0.0,0.0,0.0,0.0,0.0,0.0,0.0,0.0,0.0,0.0,0.0,0.0,0.0,0.0,0.0,0.0,0.0,0.0,-5.9929,-5.9074,-5.8359,-5.8004,-5.7881,-5.7881,-5.733,-5.6197,-5.5572,-5.5556,0.0,0.0,0.0,0.0,0.0,0.0,0.0,0.0,0.0,0.0,0.0,0.0,0.0,0.0,0.0,0.0,0.0,0.0,0.0,0.0,0.0,0.0,0.0,0.0,0.0,0.0,0.0,0.0,0.0,0.0,0.0,0.0,0.0,0.0,0.0,0.0,0.0,0.0,0.0,0.0,0.0,-6.5221,-6.2741,-6.3057,-6.3497,0.0,-6.2922,-6.2131,-6.0754,-6.2125,-6.2497,-5.9858,0.0,0.0,0.0,0.0,0.0,0.0,0.0,0.0,0.0,0.0,0.0,0.0,0.0,0.0,0.0,0.0,0.0,0.0,0.0,0.0,0.0,0.0,0.0,0.0,0.0,0.0,0.0,0.0,0.0,0.0,0.0,0.0,0.0,0.0,0.0,0.0,0.0,0.0,0.0,0.0,0.0,0.0,0.0,0.0,0.0,0.0,0.0,0.0,0.0,0.0,0.0,0.0,0.0,-6.2295,-6.1412,-6.1064,-6.0843,-6.0789,-5.979,-5.9261,-5.9302,-5.8152,-5.77,0.0,0.0,0.0,0.0,0.0,0.0,0.0,0.0,0.0,0.0,0.0,0.0,0.0,0.0,0.0,0.0,0.0,0.0,0.0,0.0,0.0,0.0,0.0,0.0,0.0,0.0,0.0,0.0,-6.4748,-6.3893,-6.422,0.0,0.0,0.0,0.0,0.0,0.0,0.0,0.0,0.0,0.0,-6.5712,-6.2819,-6.3429,0.0,0.0,-6.2695,-6.2125,-6.082,-6.1235,-6.1032,-5.9086,-6.0122,0.0,0.0,0.0,0.0,0.0,0.0,0.0,0.0,0.0,0.0,0.0,0.0,0.0,0.0,0.0,0.0,0.0,0.0,0.0,0.0,0.0,0.0,0.0,0.0,0.0,0.0,0.0,0.0,0.0,0.0,0.0,0.0,0.0,0.0,0.0,0.0,0.0,0.0,0.0,0.0,0.0,0.0,0.0,0.0,0.0,0.0,0.0,0.0,0.0,0.0,0.0,0.0,-6.3925,-6.3538,-6.3438,-6.3295,-6.3009,-6.1804,-6.1291,-6.1612,-6.0351,-5.9708,0.0,0.0,0.0,0.0,0.0,0.0,0.0,0.0,0.0,0.0,0.0,0.0,0.0,0.0,0.0,0.0,0.0,0.0,0.0,0.0,0.0,0.0,0.0,0.0,0.0,0.0,0.0,0.0,-6.4001,-6.3197,-6.3202,0.0,0.0,0.0,0.0,0.0,0.0,0.0,0.0,0.0,0.0,-6.5969,-6.3135,-6.3632,-6.4072,-6.3463,-6.3033,-6.2542,-6.1867,-6.1514,-6.0806,-5.9405,0.0,0.0,0.0,0.0,0.0,0.0,0.0,0.0,0.0,0.0,0.0,0.0,0.0,0.0,0.0,0.0,0.0,0.0,0.0,0.0,0.0,0.0,0.0,0.0,0.0,0.0,0.0,-5.7997,0.0,0.0,-5.9164,0.0,0.0,0.0,0.0,0.0,0.0,0.0,0.0,0.0,0.0,0.0,0.0,0.0,0.0,0.0,0.0,0.0,0.0,0.0,0.0,0.0,0.0,-6.4473,-6.5149,-6.5185,-6.4757,-6.3905,-6.3712,-6.3343,-6.2488,-6.1683,-6.1264,-6.1231,0.0,0.0,0.0,0.0,0.0,0.0,0.0,0.0,0.0,0.0,0.0,0.0,0.0,0.0,0.0,0.0,0.0,0.0,0.0,0.0,0.0,0.0,0.0,0.0,0.0,0.0,-6.5091,-6.4441,-6.3945,0.0,0.0,0.0,0.0,0.0,0.0,0.0,0.0,0.0,0.0,-6.5145,-6.5514,-6.3713,-6.3531,-6.4005,-6.5372,-6.4369,-6.369,-6.4309,-6.386,-6.2955,0.0,0.0,0.0,0.0,0.0,0.0,0.0,0.0,0.0,0.0,0.0,0.0,0.0,0.0,0.0,0.0,0.0,0.0,0.0,0.0,0.0,0.0,0.0,0.0,0.0,0.0,0.0,-6.0401,-5.943,0.0,0.0,0.0,0.0,0.0,0.0,0.0,0.0,0.0,0.0,0.0,-6.6035,-6.633,0.0,0.0,0.0,0.0,0.0,0.0,0.0,0.0,0.0,0.0,0.0,0.0,-6.6076,-6.6811,-6.6837,-6.7161,-6.7806,-6.6794,-6.6285,-6.6508,-6.5158,-6.37,-6.2076,0.0,0.0,0.0,0.0,0.0,0.0,0.0,0.0,0.0,0.0,0.0,0.0,0.0,0.0,0.0,0.0,0.0,0.0,0.0,0.0,0.0,0.0,0.0,0.0,0.0,-6.5143,0.0,0.0,0.0,0.0,0.0,0.0,0.0,0.0,0.0,0.0,0.0,-6.4821,-6.4663,-6.5041,-6.4846,-6.3767,-6.4064,-6.4374,0.0,0.0,0.0,0.0,0.0,0.0,0.0,0.0,0.0,0.0,0.0,0.0,0.0,0.0,-6.4971,-6.2556,-6.1951,-6.148,-6.0561,0.0,0.0,0.0,0.0,0.0,0.0,0.0,0.0,0.0,0.0,0.0,0.0,0.0,0.0,-6.2033,0.0,-6.1434,0.0,0.0,0.0,0.0,0.0,0.0,0.0,0.0,-6.7684,-6.8017,-6.8531,-6.883,-6.8529,0.0,-6.8567,-6.7578,0.0,0.0,0.0,0.0,0.0,0.0,0.0,0.0,-6.7467,-6.8495,-6.8778,-6.934,-7.0198,-6.9264,-6.8796,-6.897,-6.7658,-6.606,-6.418,-6.4146,-6.356,0.0,0.0,0.0,0.0,0.0,0.0,0.0,0.0,0.0,0.0,0.0,0.0,0.0,0.0,0.0,0.0,0.0,0.0,0.0,0.0,0.0,0.0,0.0,-6.4771,0.0,0.0,0.0,0.0,0.0,0.0,0.0,0.0,0.0,-6.4699,-6.4662,-6.4672,-6.5019,-6.5305,-6.5101,-6.4288,0.0,0.0,0.0,0.0,0.0,0.0,0.0,-6.3566,-6.3026,-6.326,-6.3632,-6.3903,-6.5121,-6.6068,-6.6068,0.0,0.0,-6.4241,-6.3674,-6.3492,-6.3155,-6.3127,-6.2899,-6.2399,-6.2844,-6.3113,0.0,0.0,0.0,0.0,0.0,0.0,0.0,0.0,-6.3394,-6.3839,0.0,-6.286,0.0,0.0,0.0,0.0,0.0,-6.7691,0.0,0.0,-7.0159,-7.0275,-7.0293,-7.1047,-7.101,-7.033,-7.1024,-7.0547,-6.9045,-6.7484,0.0,0.0,0.0,0.0,0.0,0.0,-6.8568,-7.0146,-7.0954,-7.1301,-7.1223,-7.121,-7.0724,-6.9763,-6.9095,-6.8255,-6.7475,-6.73,-6.7014,-6.6238,-6.7566,0.0,0.0,0.0,0.0,0.0,0.0,0.0,0.0,0.0,0.0,0.0,0.0,0.0,0.0,0.0,0.0,0.0,0.0,0.0,0.0,-6.6489,0.0,0.0,0.0,0.0,0.0,0.0,0.0,0.0,0.0,0.0,-6.4082,-6.483,-6.5277,-6.5222,0.0,0.0,0.0,0.0,-6.5668,-6.7156,-6.683,-6.6932,-6.843,-6.7225,-6.612,-6.6035,0.0,0.0,-6.6779,-6.6914,-6.6914,-6.6948,-6.6981,-6.6928,-6.6896,-6.6199,-6.6113,-6.7285,-6.6525,-6.6019,-6.6525,-6.5952,-6.5631,-7.3212,0.0,0.0,0.0,0.0,-6.8475,-6.8371,-6.8641,-6.8024,-6.7431,-6.6755,-6.6216,0.0,0.0,0.0,0.0,0.0,0.0,-7.1603,-7.3218,-7.3313,-7.3424,-7.3523,-7.3729,-7.3729,-7.356,-7.3787,-7.3345,-7.2349,-7.1851,-7.0347,-6.7907,0.0,0.0,0.0,0.0,-7.022,-7.1725,-7.2055,-7.27,-7.375,-7.3237,-7.2219,-7.0734,-7.0498,-6.9752,-6.8359,-6.7688,-6.6946,-6.6238,-6.6564,0.0,0.0,0.0,0.0,0.0,0.0,0.0,0.0,0.0,0.0,0.0,0.0,0.0,0.0,0.0,0.0,0.0,0.0,0.0,-6.5357,-6.3084,-6.1425,0.0,0.0,0.0,0.0,0.0,0.0,0.0,0.0,0.0,-6.4603,-6.5563,-6.6349,0.0,0.0,-6.6524,-6.6818,-6.6854,-6.7429,-6.8974,-6.9539,0.0,-7.0361,-6.9424,-6.8426,-6.7787,-6.742,-6.7692,-6.9011,-6.8774,-6.8605,-6.9113,-6.8808,-6.8556,-6.9033,-6.7675,-6.6779,-6.703,-6.7208,-6.7141,-6.6897,-6.7015,-6.6948,-7.8026,-7.4769,-7.2943,-7.2469,-7.288,-7.2399,-7.2467,-7.2842,-7.2024,-7.1631,-7.1413,-7.0057,-6.9519,-6.9704,-6.9661,0.0,0.0,0.0,-7.4576,-7.5919,-7.6042,-7.618,-7.635,-7.635,-7.6166,-7.5873,-7.5845,-7.5294,-7.4184,-7.4212,-7.3223,-7.1321,0.0,0.0,-7.1027,-7.1358,-7.1982,-7.2936,-7.3303,-7.3949,-7.4874,-7.4427,-7.3507,-7.2205,-7.2107,-7.1376,-6.9749,-6.9469,-6.8858,-6.7779,-6.8327,-6.8182,0.0,0.0,0.0,0.0,0.0,0.0,0.0,0.0,0.0,0.0,0.0,-7.1872,-7.2018,0.0,0.0,0.0,-6.7043,-6.5155,-6.2577,-6.1987,0.0,0.0,0.0,0.0,0.0,0.0,0.0,-6.3676,-6.3309,-6.3587,-6.4925,-6.6425,-6.7577,-6.8091,-6.7704,-6.7673,-6.8473,0.0,-6.9018,-7.035,-7.0924,-7.15,-7.2085,-7.1081,-6.9991,-6.9254,-6.8959,-6.9214,-7.0364,-7.0263,-7.0161,-7.0466,-7.0263,-7.0094,-7.0575,-6.9504,-6.8553,-6.8526,-6.8685,-6.8618,-6.8215,-6.8504,-6.8368,-8.2163,-8.1214,-7.8122,-7.6688,-7.6398,-7.631,-7.6363,-7.6325,-7.5456,-7.5976,-7.713,-7.4043,-7.3234,-7.4168,-7.2976,0.0,-7.5741,-7.6691,-7.7521,-7.8209,-7.8452,-7.8573,-7.8589,-7.8651,-7.8247,-7.7414,-7.7451,-7.6717,-7.5285,-7.5214,-7.5141,-7.5065,-7.3634,-7.2826,-7.2716,-7.3413,-7.3817,-7.3891,-7.4625,-7.5028,-7.4992,-7.4992,-7.4625,-7.3817,-7.3744,-7.2973,-7.1505,-7.1982,-7.1615,-7.0146,-7.1416,-7.114,-6.886,0.0,0.0,0.0,0.0,0.0,0.0,0.0,0.0,0.0,0.0,0.0,0.0,0.0,0.0,-6.767,-6.5261,0.0,-6.067,-6.2431,0.0,0.0,0.0,-6.4344,-6.5755,-6.3415,-6.2231,-6.3615,0.0,0.0,-6.5196,-6.7245,-6.8825,-6.9082,-6.9045,-6.9302,-7.0073,-7.0183,-7.0513,-7.1411,-7.1594,-7.2181,-7.3553,-7.251,-7.1242,-7.0663,-7.0464,-7.0466,-7.1109,-7.1244,-7.1278,-7.1244,-7.1312,-7.1278,-7.1278,-7.1109,-7.1244,-7.1041,-7.0625,-7.0254,-6.9958,-6.9891,-6.9417,-8.5093,-8.4818,-8.4016,-8.2215,-7.9845,-7.9166,-7.9248,-7.978,-7.8954,-7.8438,-7.8092,-7.6707,-7.6236,-7.6524,-7.6823,-7.7954,-7.9691,-7.9982,-8.0354,-8.0783,-8.0865,-8.0074,-7.8688,-7.9276,-7.9066,-7.8369,-7.8897,-7.8676,-7.7745,-7.7708,-7.7378,-7.6754,-7.635,-7.5542,-7.4404,-7.4515,-7.4918,-7.5506,-7.5726,-7.5836,-7.5836,-7.5849,-7.5445,-7.4661,-7.4001,-7.323,-7.2239,-7.1211,-7.022,-6.9265,-6.9559,-6.9247,-6.8037,-6.9503,0.0,0.0,0.0,0.0,0.0,0.0,0.0,0.0,0.0,-7.1248,-7.044,0.0,-6.8257,0.0,-6.3484,-6.1995,-6.1877,-6.1941,0.0,0.0,-6.2992,-6.3726,-6.4068,-6.3972,-6.4006,-6.4339,-6.501,-6.5807,-6.6672,-6.795,-6.9279,-7.0494,-7.0183,-7.011,-7.0881,-7.1027,-7.1541,-7.2789,-7.3566,-7.4375,-7.5115,-7.4446,-7.3006,-7.1573,-7.1217,-7.1109,-7.1278,-7.1312,-7.1312,-7.1312,-7.1312,-7.1312,-7.1312,-7.0918,-7.0546,-7.0466,-7.077,-7.0647,-6.962,-6.935,-6.891,-8.6671,-8.6632,-8.6247,-8.5022,-8.3303,-8.2803,-8.288,-8.3226,-8.2407,-8.1785,-8.1246,-8.0054,-7.9345,-7.9066,-7.9854,-8.0715,-8.1644,-8.1709,-8.1765,-8.1688,-8.1395,-8.0693,-7.969,-8.0147,-8.011,-7.969,-8.0121,-7.9937,-7.914,-7.9165,-7.8908,-7.8405,-7.8075,-7.7451,-7.657,-7.6166,-7.6203,-7.6644,-7.7035,-7.7402,-7.7708,-7.7414,-7.6644,-7.5469,-7.4661,-7.334,-7.1505,-7.0917,-7.0051,-6.8903,-6.9153,-6.8806,-6.7631,-6.8715,-6.9265,0.0,0.0,0.0,0.0,0.0,0.0,0.0,0.0,0.0,0.0,0.0,-6.7607,-6.5668,-6.4041,-6.3015,-6.29,-6.2915,-6.2889,-6.2933,-6.3835,-6.4478,-6.4478,-6.5221,-6.5722,-6.5685,-6.6839,-6.7933,-6.8444,-6.989,-7.1238,-7.2218,-7.1982,-7.1725,-7.1798,-7.1835,-7.2165,-7.3046,-7.3823,-7.4632,-7.5422,-7.4958,-7.4153,-7.3138,-7.2485,-7.2119,-7.1987,-7.2004,-7.183,-7.1367,-7.1312,-7.1312,-7.1278,-7.0693,-7.022,-7.0195,-7.0236,-6.9897,-6.8808,-6.9113,-6.9079,-8.755,-8.7473,-8.6748,-8.6401,-8.6401,-8.6324,-8.6209,-8.6055,-8.5363,-8.4978,-8.4786,-8.3202,-8.2078,-8.1462,-8.2079,-8.2434,-8.2514,-8.2606,-8.2374,-8.1845,-8.1302,-8.0941,-8.0828,-8.0971,-8.0872,-8.0718,-8.0772,-8.047,-7.9653,-7.9653,-7.958,-7.9433,-7.8772,-7.8442,-7.8405,-7.7708,-7.7341,-7.7341,-7.8247,-7.9019,-7.9617,-7.9055,-7.8027,-7.646,-7.5542,-7.3634,-7.0734,-7.1064,-7.05,-6.8862,-6.9464,-6.9107,-6.7461,-6.8211,-6.8726,0.0,-6.9665,0.0,0.0,0.0,0.0,0.0,0.0,0.0,0.0,-6.8399,-6.7221,-6.6505,-6.5822,-6.5091,-6.4084,-6.4703,-6.4996,-6.4425,-6.5425,-6.6323,-6.6494,-6.7256,-6.7765,-6.7749,-6.9198,-7.0293,-7.0484,-7.2372,-7.3699,-7.378,-7.3744,-7.3487,-7.2973,-7.2606,-7.2496,-7.2606,-7.3435,-7.4574,-7.5068,-7.508,-7.4978,-7.4735,-7.4189,-7.3587,-7.345,-7.3226,-7.2843,-7.2083,-7.1774,-7.165,-7.1582,-7.0929,-7.0389,-7.0331,-6.978,-6.8982,-6.8285,-6.8842,-6.9147,-8.8474,-8.843,-8.8282,-8.8205,-8.8161,-8.7473,-8.6748,-8.6094,-8.594,-8.5517,-8.4824,-8.3785,-8.3247,-8.3099,-8.2707,-8.2952,-8.3566,-8.3049,-8.2849,-8.2929,-8.2762,-8.1741,-8.0157,-8.0718,-8.0351,-7.9176,-7.9682,-7.9636,-7.8846,-7.882,-7.849,-7.7781,-7.7635,-7.7561,-7.7561,0.0,0.0,0.0,-7.8809,-7.9323,-7.8883,-7.9306,-7.9123,-7.8148,-7.668,0.0,-7.3083,-7.1908,-7.0567,-6.9043,-6.9507,0.0,0.0,0.0,0.0,0.0,0.0,0.0,0.0,0.0,0.0,0.0,-7.1064,-6.9706,-6.8274,-6.7242,-6.7085,-6.8126,-6.7527,-6.6884,-6.6708,-6.6812,-6.7341,-6.8467,-6.8889,-6.9522,-7.0719,-7.1043,-7.1152,-7.119,-7.2153,-7.2796,-7.286,-7.3909,-7.4602,-7.4661,-7.4661,-7.4625,-7.4478,-7.3377,-7.2826,-7.3413,-7.4684,-7.5616,-7.5837,-7.6276,-7.6282,-7.5783,-7.5905,-7.5945,-7.5889,-7.5195,-7.4683,-7.4257,-7.3693,-7.3037,-7.3037,-7.2056,-7.1086,-7.1109,-7.008,-6.8861,-6.8064,-6.8132,-6.803,-9.0321,0.0,-8.9479,-8.9094,0.0,-8.7786,-8.7132,-8.6671,-8.6286,-8.5863,-8.544,-8.4709,-8.4362,-8.4297,-8.3671,-8.3637,-8.4012,-8.3356,-8.2852,-8.2593,-8.2223,-8.1526,-8.0388,-8.036,-8.0177,-7.98,-7.98,-7.958,-7.9176,-7.9202,-7.8982,-7.8552,-7.8148,-7.7965,-7.7928,-7.7965,-7.8148,-7.8516,-7.9349,-7.9937,-8.0351,-8.0369,-8.0003,-7.9176,-7.7598,0.0,0.0,0.0,0.0,0.0,0.0,0.0,0.0,-7.0094,0.0,-7.0613,-7.1331,-7.2165,-7.301,-7.2716,-7.2165,-7.1358,-6.9816,-6.8769,-6.8292,-6.7924,-6.8147,-6.9226,-6.9296,-6.9281,-6.9139,-6.9198,-6.9658,-7.0771,-7.0912,-7.1267,-7.2048,-7.287,-7.319,-7.2977,-7.3924,-7.4651,-7.4274,-7.5324,-7.5873,-7.5579,-7.5506,-7.5542,-7.5395,-7.4478,-7.4001,-7.4757,-7.5455,-7.635,-7.7181,-7.7521,-7.7861,-7.7801,-7.8046,-7.7955,-7.752,-7.6996,-7.6296,-7.5353,-7.4653,-7.4193,-7.3467,-7.2573,-7.1864,-7.1728,-7.0929,-7.0119,-6.96,-6.9316,-6.8808,-9.2287,-9.1556,-9.0713,-8.9906,-8.9063,-8.8021,-8.744,-8.7127,0.0,0.0,0.0,-8.5522,-8.5224,-8.5089,-8.4458,-8.4124,-8.3954,-8.3274,-8.2607,-8.1806,-8.1255,-8.0865,-8.0571,-8.0057,-8.0021,-8.0314,-7.9878,-7.951,-7.936,-7.9338,-7.9338,-7.9286,-7.8699,-7.8369,-7.8369,-7.8369,-7.8846,-7.9727,-7.9926,-8.0625,-8.1929,-8.1497,-8.0837,-8.0021,-7.8552,-7.7084,-7.5616,-7.4001,-7.2715,-7.1811,-7.161,-7.1148,-7.0341,-7.1549,-7.2112,-7.1683,-7.2218,-7.2606,-7.2716,-7.2569,-7.1798,-7.0183,-6.8752,-6.8255,-6.9061,-6.9119,-6.9465,-7.0287,-7.1076,-7.1441,-7.1401,-7.1477,-7.1925,-7.269,-7.2727,-7.2834,-7.3119,-7.4212,-7.4849,-7.447,-7.5588,-7.6276,-7.5775,-7.6851,-7.7524,-7.6937,-7.69,-7.6754,-7.6607,-7.5836,-7.5212,-7.5845,-7.6213,-7.6888,-7.816,-7.872,-7.9086,-7.9737,-8.003,-7.9873,-7.9162,-7.8743,-7.7876,-7.6327,-7.5721,-7.5135,-7.4092,-7.3384,-7.2818,-7.28,-7.222,-7.1665,-7.1661,-7.121,-7.0534,-9.3441,-9.3287,-9.2476,-9.1633,-9.0748,-8.9171,-8.7671,-8.6286,-8.6132,-8.6094,-8.6094,-8.6017,-8.5628,-8.5063,-8.4493,-8.3861,-8.3309,-8.2675,-8.1939,-8.1166,-8.1076,-8.0277,-7.8993,-7.9563,-7.9059,-7.7965,-7.8492,-7.8357,-7.7708,-7.7671,-7.7635,-7.7671,-7.7561,-7.7524,-7.7488,-7.7488,-7.8259,-7.9764,-8.047,-8.0947,-8.1158,-8.1746,-8.1672,-8.0865,-7.9947,-7.9029,-7.8112,-7.646,-7.5189,-7.4372,-7.3612,-7.2775,-7.2048,-7.2862,-7.3316,-7.3216,-7.3333,-7.3508,-7.3487,-7.2899,-7.1798,-7.0257,-6.9265,-6.9063,-6.9814,-6.9963,-7.055,-7.1924,-7.2218,-7.2621,-7.3191,-7.3287,-7.3873,-7.5212,-7.5505,-7.576,-7.6282,-7.6664,-7.6773,-7.671,-7.7646,-7.821,-7.806,-7.8783,-7.925,-7.9213,-7.8883,-7.914,-7.8699,-7.7341,-7.6153,-7.6213,-7.6704,-7.7524,-7.86,-7.9242,-7.9865,-8.0755,-8.1379,-8.1571,-8.1403,-8.0684,-7.9717,-7.8594,-7.767,-7.6657,-7.5578,-7.4742,-7.4337,-7.4161,-7.3636,-7.3238,-7.3147,-7.3037,-7.2563,-9.4557,-9.3713,-9.3326,-9.2364,-9.1095,-8.9436,-8.7704,-8.6132,-8.6094,-8.6094,-8.6055,-8.5747,-8.5246,-8.4618,-8.396,-8.3309,-8.2655,-8.2333,-8.1782,-8.1012,-8.0571,-7.9947,-7.925,-7.8647,-7.8244,-7.8038,-7.7892,-7.7671,-7.7341,-7.7341,-7.7341,-7.7341,-7.7341,-7.7341,-7.7341,-7.7341,-7.7928,-7.914,-7.992,-8.0507,-8.1012,-8.1782,-8.1819,-8.1048,-8.0608,-8.0057,-7.925,-7.7635,-7.6387,-7.5616,-7.5175,-7.4918,-7.5037,-7.5312,-7.5556,-7.5519,-7.5189,-7.461,-7.3744,-7.2532,-7.1541,-7.0807,-7.0,-6.9871,-7.0698,-7.0735,-7.1231,-7.2386,-7.2878,-7.3502,-7.4258,-7.4331,-7.4992,-7.6607,-7.6387,-7.6423,-7.7194,-7.7781,-7.8002,-7.8063,-7.8713,-7.9264,-7.9242,-7.9572,-7.9847,-7.98,-7.98,-7.98,-7.98,-7.8883,-7.81,-7.8149,-7.8443,-7.897,-7.9753,-8.0149,-8.0772,-8.1525,-8.1929,-8.215,-8.2186,-8.1715,-8.1053,-8.0107,-7.938,-7.8494,-7.6927,-7.6318,-7.5899,-7.527,-7.5006,-7.4769,-7.4728,-7.4695,-7.4153,-9.552,-9.4291,-9.3864,-9.2518,-9.0517,-8.882,-8.7319,-8.6132,-8.6094,-8.6094,-8.6017,-8.5522,-8.49,-8.4195,-8.3648,-8.2949,-8.226,-8.2186,-8.1746,-8.0975,-8.0167,-7.9816,-7.9609,-7.8235,-7.7941,-7.8394,-7.7867,-7.7488,-7.7341,-7.7341,-7.7341,-7.7341,-7.7341,-7.7341,-7.7341,-7.7341,-7.7745,-7.8589,-7.9386,-8.0121,-8.0718,-8.137,-8.137,-8.0791,-8.0901,-8.0718,-8.0021,-7.8662,-7.7561,-7.6974,-7.657,-7.6704,-7.7547,-7.7623,-7.7573,-7.7524,-7.6827,-7.5579,-7.3817,-7.2202,-7.1321,-7.1321,-7.0734,-7.0643,-7.1213,-7.1673,-7.2095,-7.2753,-7.3333,-7.4066,-7.4992,-7.5175,-7.5763,-7.7084,-7.6754,-7.668,-7.7268,-7.7928,-7.8405,-7.8614,-7.9264,-7.979,-8.0076,-8.0202,-8.0442,-8.0461,-8.0167,-8.0094,-8.0277,-8.0204,-8.0084,-8.0184,-8.0025,-8.0099,-8.0845,-8.0947,-8.1314,-8.2076,-8.2186,-8.2186,-8.2186,-8.2186,-8.1715,-8.084,-8.0514,-7.9691,-7.8112,-7.74,-7.6923,-7.625,-7.5824,-7.5608,-7.5574,-7.5574,-7.5134,-9.6172,-9.5826,-9.4323,-9.1822,-8.8902,-8.7132,-8.6286,-8.6094,-8.6094,-8.6094,-8.6094,-8.6017,-8.532,-8.4264,-8.4116,-8.341,-8.2288,-8.2186,-8.1782,-8.1076,-8.0167,-7.9694,-7.9576,-7.8832,-7.8454,-7.8404,-7.8411,-7.8088,-7.7426,-7.7365,-7.7304,-7.7341,-7.7341,-7.7304,-7.7304,-7.7304,-7.7745,-7.8589,-7.94,-7.9841,-7.9937,-8.0025,-8.0025,-7.991,-8.0608,-8.0975,-8.0755,-8.0021,-7.9507,-7.936,-7.7928,-7.7623,-7.8382,-7.849,-7.8427,-7.8492,-7.7659,-7.6203,-7.3891,-7.2202,-7.1358,-7.1321,-7.1284,-7.1267,-7.1397,-7.261,-7.3471,-7.3626,-7.3736,-7.4432,-7.5763,-7.5983,-7.635,-7.7157,-7.7194,-7.7231,-7.7304,-7.7378,-7.7683,-7.85,-7.9323,-8.0094,-8.0699,-8.1387,-8.1856,-8.1709,-8.1232,-8.1085,-8.1525,-8.1232,-8.1085,-8.1443,-8.0855,-8.0314,-8.0874,-8.0992,-8.1461,-8.2076,-8.2186,-8.2186,-8.2186,-8.2121,-8.1885,-8.116,-8.0768,-8.0292,-7.916,-7.8048,-7.7457,-7.6931,-7.6358,-7.5676,-7.5676,-7.5676,-7.5134,-9.5674,-9.4712,-9.398,-9.1784,-8.8709,-8.7363,-8.6555,-8.6094,-8.6094,-8.6094,-8.6094,-8.6094,-8.5589,-8.474,-8.4726,-8.4198,-8.3366,-8.2964,-8.2645,-8.2237,-8.1459,-8.1042,-8.0898,-8.0116,-7.967,-7.9574,-7.9178,-7.8787,-7.8421,-7.809,-7.809,-7.8325,-7.771,-7.751,-7.7789,-7.751,-7.7634,-7.8364,-7.8344,-7.8528,-7.8972,-8.0,-8.0051,-7.9312,-7.9874,-8.0277,-8.0204,-7.9507,-7.9103,-7.8993,-7.7965,-7.7916,-7.9216,-7.8369,-7.827,-7.9055,-7.7121,-7.5469,-7.4478,-7.2899,-7.2018,-7.2018,-7.2018,-7.2222,-7.2647,-7.3309,-7.4059,-7.4945,-7.5104,-7.5422,-7.6056,-7.6533,-7.6937,-7.7268,-7.7341,-7.7341,-7.7341,-7.7781,-7.8259,-7.8589,-7.9333,-8.0113,-8.0919,-8.1681,-8.215,-8.2186,-8.1856,-8.1856,-8.2113,-8.1893,-8.1893,-8.2003,-8.1599,-8.1415,-8.1644,-8.1717,-8.1827,-8.2076,-8.2186,-8.2186,-8.2186,-8.2186,-8.2018,-8.1542,-8.1474,-8.1089,-8.0182,-7.9594,-7.8946,-7.7846,-7.6508,-7.5676,-7.5676,-7.5676,-7.5337,-9.5405,-9.4022,-9.3097,-9.0979,-8.8286,-8.7435,-8.6671,-8.6132,-8.6094,-8.6094,-8.6094,-8.6094,-8.5852,-8.5391,-8.517,-8.476,-8.4229,-8.3672,-8.3488,-8.3376,-8.2628,-8.2361,-8.2406,-8.1087,-8.0601,-8.0559,-7.9638,-7.9186,-7.916,-7.879,-7.8804,-7.901,-7.8234,-7.809,-7.8432,-7.8035,-7.8035,-7.8484,-7.8072,-7.8053,-7.8461,-7.9638,-7.9682,-7.8442,-7.925,-7.969,-7.947,-7.9103,-7.8809,-7.8589,-7.7781,-7.8063,-7.9609,-7.8394,-7.8222,-7.9066,-7.6607,-7.4918,-7.4882,-7.3413,-7.2606,-7.2789,-7.2826,-7.3178,-7.386,-7.4191,-7.4867,-7.5825,-7.6301,-7.6436,-7.6533,-7.6974,-7.7304,-7.7341,-7.7341,-7.7341,-7.7378,-7.7928,-7.8259,-7.8603,-7.9066,-7.9865,-8.0846,-8.1681,-8.2186,-8.2186,-8.2186,-8.2279,-8.2407,-8.2343,-8.2215,-8.237,-8.2307,-8.215,-8.2186,-8.2113,-8.2186,-8.2186,-8.2186,-8.2186,-8.2186,-8.2186,-8.2186,-8.1885,-8.2121,-8.1952,-8.116,-8.0826,-7.9792,-7.7907,-7.6436,-7.5709,-7.5676,-7.5676,-7.5676,-9.5751,-9.4482,-9.1444,-8.9137,-8.7401,-8.6555,-8.617,-8.6094,-8.6094,-8.6094,-8.6094,-8.6094,-8.606,-8.5988,-8.5385,-8.4787,-8.4285,-8.4221,-8.4141,-8.4054,-8.3311,-8.3217,-8.3621,-8.1603,-8.0863,-8.1346,-8.0254,-7.9479,-7.934,-7.9191,-7.9152,-7.9198,-7.9105,-7.9105,-7.9152,-7.9058,-7.9105,-7.9058,-7.9123,-7.8966,-7.8421,-7.8559,-7.8382,-7.7745,-7.8883,-7.936,-7.8883,-7.936,-7.9323,-7.8626,-7.7781,-7.8063,-7.9535,-7.8982,-7.8626,-7.8442,-7.6313,-7.4918,-7.4735,-7.3413,-7.2789,-7.3413,-7.3523,-7.3949,-7.4654,-7.5353,-7.5933,-7.6191,-7.6876,-7.7133,-7.7268,-7.7304,-7.7341,-7.7341,-7.7341,-7.7341,-7.7341,-7.7414,-7.7745,-7.8382,-7.8688,-7.9507,-8.0809,-8.1681,-8.2113,-8.2186,-8.2186,-8.2434,-8.2853,-8.2585,-8.2647,-8.2793,-8.2684,-8.2223,-8.2186,-8.2186,-8.2186,-8.2186,-8.2186,-8.2186,-8.2186,-8.2186,-8.2186,-8.2186,-8.2186,-8.2121,-8.1922,-8.1092,-7.9613,-7.8067,-7.6505,-7.5872,-7.5709,-7.5676,-7.5676,-9.4326,-9.2361,-9.009,-8.8474,-8.7363,-8.6478,-8.6094,-8.6094,-8.6094,-8.6094,-8.6094,-8.6094,-8.6094,-8.6094,-8.5863,-8.5612,-8.5397,-8.4978,-8.478,-8.4752,-8.4442,-8.4458,-8.4507,-8.371,-8.3066,-8.2736,-8.2302,-8.169,-8.1085,-8.024,-7.9969,-8.0201,-7.9594,-7.938,-7.9642,-7.938,-7.9198,-7.916,-7.8934,-7.8575,-7.8297,-7.799,-7.7818,-7.8148,-7.8185,-7.8589,-7.9323,-7.8662,-7.8332,-7.8552,-7.7781,-7.8063,-7.9535,-7.951,-7.8897,-7.7745,-7.5983,-7.4918,-7.4735,-7.3413,-7.2606,-7.2899,-7.3413,-7.4074,-7.4831,-7.5662,-7.652,-7.7389,-7.7353,-7.7524,-7.7928,-7.7671,-7.7341,-7.7341,-7.7341,-7.7341,-7.7341,-7.7341,-7.7451,-7.7818,-7.8614,-7.9837,-8.08,-8.1717,-8.2186,-8.2251,-8.2523,-8.2935,-8.3189,-8.3303,-8.3415,-8.3206,-8.3004,-8.2692,-8.2223,-8.2186,-8.2186,-8.2186,-8.2186,-8.2186,-8.2186,-8.2186,-8.2186,-8.2186,-8.2186,-8.2186,-8.1989,-8.0659,-7.9281,-7.8589,-7.709,-7.5838,-7.5676,-7.5676,-7.5676,-9.2595,-9.0663,-8.8969,-8.7781,-8.694,-8.6363,-8.6094,-8.6094,-8.6094,-8.6094,-8.6094,-8.6094,-8.6094,-8.6094,-8.6094,-8.6094,-8.6055,-8.5599,-8.5462,-8.5437,-8.5399,-8.5399,-8.536,-8.5078,-8.4599,-8.3978,-8.3394,-8.2855,-8.2208,-8.1026,-8.0681,-8.0991,-8.0201,-8.0007,-8.0239,-7.9806,-7.9513,-7.9356,-7.8723,-7.8322,-7.82,-7.7657,-7.7708,-7.8295,-7.7745,-7.7965,-7.9323,-7.8295,-7.7965,-7.8442,-7.8038,-7.8247,-7.9264,-7.9682,-7.9069,-7.7414,-7.6056,-7.5285,-7.5139,-7.4037,-7.3413,-7.367,-7.4147,-7.4808,-7.5616,-7.619,-7.7157,-7.805,-7.784,-7.7683,-7.8185,-7.7818,-7.7341,-7.7341,-7.7341,-7.7341,-7.7341,-7.7341,-7.7451,-7.7892,-7.893,-8.0003,-8.0947,-8.1929,-8.2423,-8.256,-8.3111,-8.3543,-8.3824,-8.3928,-8.408,-8.358,-8.3312,-8.2859,-8.237,-8.2186,-8.2186,-8.2186,-8.2186,-8.2186,-8.2186,-8.2186,-8.2186,-8.2186,-8.2186,-8.2186,-8.1542,-8.0182,-7.9408,-7.8938,-7.7343,-7.5709,-7.5676,-7.5676,-7.5676,-9.0752,-8.9705,-8.8089,-8.7012,-8.6247,-8.6132,-8.6094,-8.6094,-8.6094,-8.6094,-8.6094,-8.6094,-8.6094,-8.6094,-8.6094,-8.6094,-8.6094,-8.6017,-8.5983,-8.5988,-8.5988,-8.6026,-8.595,-8.5335,-8.5022,-8.483,-8.3176,-8.2439,-8.2355,-8.1561,-8.1177,-8.1131,-8.0991,-8.0888,-8.1061,-8.0352,-8.0008,-7.9695,-7.8813,-7.8274,-7.8237,-7.7599,-7.7671,-7.8456,-7.7708,-7.7745,-7.8626,-7.8516,-7.8405,-7.8479,-7.8516,-7.8526,-7.8746,-7.9375,-7.9069,-7.7488,-7.6497,-7.6093,-7.5946,-7.5212,-7.4955,-7.5432,-7.5909,-7.619,-7.6788,-7.7145,-7.7708,-7.8504,-7.8097,-7.7814,-7.8453,-7.8002,-7.7414,-7.7341,-7.7341,-7.7341,-7.7365,-7.7341,-7.7671,-7.8639,-7.9533,-8.0186,-8.1139,-8.2348,-8.3189,-8.3359,-8.3772,-8.4287,-8.4658,-8.4651,-8.4325,-8.4105,-8.3751,-8.3237,-8.2655,-8.2186,-8.2186,-8.2186,-8.2186,-8.2186,-8.2186,-8.2186,-8.2186,-8.2186,-8.2186,-8.215,-8.1416,-8.0188,-7.9163,-7.8356,-7.6837,-7.5743,-7.5676,-7.5676,-7.5676,-9.0367,-8.9008,-8.7858,-8.6896,-8.6132,-8.6094,-8.6094,-8.6094,-8.6094,-8.6094,-8.6094,-8.6094,-8.6094,-8.6094,-8.6094,-8.6094,-8.6094,-8.6094,-8.6094,-8.6094,-8.6094,-8.6094,-8.6055,-8.5824,-8.5747,-8.5445,-8.3989,-8.3176,-8.3009,-8.2355,-8.1708,-8.1208,-8.1093,-8.1093,-8.1061,-8.0463,-7.9929,-7.9437,-7.8723,-7.8067,-7.7641,-7.7413,-7.777,-7.8419,-7.777,-7.7708,-7.8516,-7.8038,-7.7745,-7.7781,-7.8295,-7.8563,-7.8746,-7.9375,-7.8995,-7.7488,-7.657,-7.613,-7.6019,-7.5432,-7.5102,-7.5359,-7.5799,-7.6433,-7.7107,-7.771,-7.8611,-7.9681,-7.9314,-7.9242,-7.9773,-7.8993,-7.8038,-7.7378,-7.7341,-7.751,-7.7957,-7.8315,-7.9277,-8.0456,-8.0951,-8.1697,-8.2794,-8.3749,-8.3876,-8.3928,-8.442,-8.4915,-8.5079,-8.532,-8.528,-8.4866,-8.4306,-8.3487,-8.2819,-8.2343,-8.2186,-8.2186,-8.2186,-8.2186,-8.2186,-8.2186,-8.2186,-8.2186,-8.2186,-8.1835,-8.1167,-8.0188,-7.9128,-7.7891,-7.6564,-7.6008,-7.5743,-7.5743,-7.5879,-8.9636,-8.8589,-8.7396,-8.6594,-8.6094,-8.6094,-8.6094,-8.6094,-8.6094,-8.6094,-8.6094,-8.6094,-8.6094,-8.6094,-8.6094,-8.6094,-8.6094,-8.6094,-8.6094,-8.6094,-8.6094,-8.6094,-8.6094,-8.6094,-8.6094,-8.5863,-8.4753,-8.4099,-8.401,-8.2862,-8.2054,-8.1593,-8.1246,-8.1093,-8.1061,-8.0425,-7.9806,-7.9207,-7.8604,-7.7942,-7.7413,-7.7341,-7.7561,-7.7953,-7.7561,-7.7598,-7.8038,-7.7598,-7.7598,-7.8295,-7.9286,-7.9773,-7.9563,-7.9937,-7.9595,-7.8504,-7.7818,-7.7524,-7.7378,-7.69,-7.6276,-7.635,-7.6685,-7.7107,-7.761,-7.8312,-7.9369,-8.0321,-8.005,-8.0011,-8.0544,-7.9874,-7.8809,-7.8295,-7.7938,-7.7997,-7.8581,-7.9274,-8.0154,-8.1265,-8.1904,-8.2829,-8.3802,-8.4454,-8.4522,-8.4605,-8.5079,-8.5437,-8.5551,-8.5811,-8.5551,-8.509,-8.442,-8.3602,-8.2935,-8.2497,-8.2251,-8.2186,-8.2186,-8.2186,-8.2186,-8.2186,-8.2186,-8.2186,-8.2186,-8.1681,-8.1014,-7.9858,-7.8811,-7.7505,-7.6632,-7.6042,-7.5743,-7.6149,-7.6251,-8.879,-8.8551,-8.6978,-8.6363,-8.6247,-8.6247,-8.6209,-8.6094,-8.6094,-8.6094,-8.6094,-8.6094,-8.6094,-8.6094,-8.6094,-8.6094,-8.6094,-8.6094,-8.6094,-8.6094,-8.6094,-8.6094,-8.6094,-8.6094,-8.6094,-8.5978,-8.533,-8.4907,-8.4676,-8.3401,-8.2401,-8.2324,-8.1631,-8.1208,-8.1113,-8.054,-7.9885,-7.9517,-7.8852,-7.8259,-7.7806,-7.7657,-7.7731,-7.7864,-7.768,-7.7643,-7.7887,-7.785,-7.8333,-7.9753,-8.0938,-8.1379,-8.1057,-8.1002,-8.0525,-7.9653,-7.9727,-7.9543,-7.9507,-7.8626,-7.8259,-7.821,-7.81,-7.8363,-7.8447,-7.9179,-8.0092,-8.08,-8.0563,-8.0525,-8.0929,-8.0441,-7.9989,-7.9818,-7.9223,-7.9089,-7.9416,-8.028,-8.1279,-8.1989,-8.2607,-8.338,-8.4352,-8.4901,-8.5088,-8.5242,-8.5664,-8.5919,-8.618,-8.6111,-8.5513,-8.5049,-8.4622,-8.3747,-8.3074,-8.2434,-8.2186,-8.226,-8.237,-8.259,-8.2627,-8.2627,-8.2737,-8.27,-8.2443,-8.1827,-8.1136,-8.0292,-7.9129,-7.7975,-7.6973,-7.613,-7.598,-7.642,-7.6787,-8.9598,-8.944,-8.8435,-8.7627,-8.7127,-8.705,-8.6671,-8.617,-8.6132,-8.617,-8.6132,-8.6094,-8.617,-8.6094,-8.6094,-8.6094,-8.6094,-8.6094,-8.6094,-8.6094,-8.6094,-8.6094,-8.6094,-8.6094,-8.6094,-8.6055,-8.5824,-8.5483,-8.4945,-8.4368,-8.3824,-8.3208,-8.2401,-8.1977,-8.1837,-8.0769,-8.0429,-8.071,-8.0227,-8.0137,-8.0318,-7.9813,-8.0005,-8.0366,-7.9341,-7.9116,-7.9579,-7.9603,-7.9595,-7.9816,-8.0708,-8.1296,-8.1029,-8.1057,-8.0764,-8.0113,-7.9883,-7.9837,-7.969,-7.9103,-7.8662,-7.8589,-7.8712,-7.8713,-7.9183,-8.0392,-8.1169,-8.173,-8.2202,-8.2424,-8.2006,-8.1551,-8.1343,-8.12,-8.0905,-8.0962,-8.1592,-8.2378,-8.3131,-8.3934,-8.4191,-8.472,-8.5258,-8.5647,-8.5775,-8.5811,-8.6031,-8.6363,-8.6632,-8.6483,-8.5969,-8.5613,-8.512,-8.4029,-8.3172,-8.2585,-8.2288,-8.2333,-8.2663,-8.3251,-8.3398,-8.3618,-8.3838,-8.4022,-8.3691,-8.3111,-8.2477,-8.178,-8.0217,-7.8677,-7.7886,-7.7306,-7.6862,-7.6922,-7.7454,-8.9906,-8.9863,-8.9017,-8.8205,-8.7435,-8.7396,-8.7094,-8.6709,-8.6632,-8.6632,-8.6709,-8.705,-8.6781,-8.617,-8.6478,-8.6401,-8.6132,-8.6094,-8.6094,-8.6094,-8.6094,-8.6094,-8.6094,-8.6094,-8.6094,-8.6094,-8.6094,-8.5863,-8.5406,-8.5099,-8.4599,-8.4093,-8.3285,-8.2708,-8.2285,-8.1939,-8.1422,-8.1458,-8.133,-8.1608,-8.1622,-8.1271,-8.1258,-8.1478,-8.0694,-8.0566,-8.0981,-8.0972,-8.069,-8.0496,-8.0934,-8.1379,-8.1497,-8.1534,-8.1249,-8.0846,-8.08,-8.0828,-8.0645,-8.0057,-7.9617,-7.957,-7.9535,-7.9623,-8.0097,-8.1119,-8.1821,-8.1978,-8.2984,-8.3022,-8.2474,-8.208,-8.2295,-8.2686,-8.2745,-8.2854,-8.3066,-8.3653,-8.4279,-8.4818,-8.5209,-8.5522,-8.6055,-8.6094,-8.6094,-8.617,-8.6483,-8.6863,-8.7171,-8.6829,-8.6537,-8.6271,-8.5334,-8.4193,-8.3527,-8.2991,-8.2949,-8.2957,-8.3544,-8.4058,-8.4242,-8.4499,-8.4535,-8.4682,-8.4646,-8.4395,-8.361,-8.2713,-8.1345,-8.0135,-7.9258,-7.878,-7.8494,-7.8382,-7.8784,-9.0059,-8.9983,-8.9255,-8.8444,-8.7781,-8.7589,-8.7627,-8.7521,-8.7363,-8.7325,-8.7478,-8.8276,-8.755,-8.617,-8.6824,-8.6896,-8.6094,-8.6094,-8.6094,-8.6094,-8.6094,-8.6094,-8.6094,-8.6094,-8.6094,-8.6094,-8.6094,-8.6055,-8.5863,-8.533,-8.506,-8.4824,-8.417,-8.3401,-8.3016,-8.3176,-8.2856,-8.2336,-8.2677,-8.2835,-8.2646,-8.2454,-8.2441,-8.2598,-8.2373,-8.1995,-8.1982,-8.1892,-8.1678,-8.1115,-8.1625,-8.1957,-8.2186,-8.226,-8.215,-8.2076,-8.1966,-8.1966,-8.1966,-8.1232,-8.0865,-8.0745,-8.0674,-8.0748,-8.0842,-8.1527,-8.212,-8.1991,-8.2804,-8.3276,-8.2962,-8.2573,-8.3077,-8.3828,-8.4173,-8.4068,-8.4087,-8.4549,-8.501,-8.5049,-8.5709,-8.6017,-8.6094,-8.6094,-8.6132,-8.6594,-8.694,-8.744,-8.7632,-8.7478,-8.7233,-8.7073,-8.5797,-8.4141,-8.3751,-8.3471,-8.3631,-8.3838,-8.4682,-8.5196,-8.5159,-8.527,-8.5086,-8.5086,-8.549,-8.5165,-8.4437,-8.3399,-8.25,-8.1743,-8.1116,-8.0855,-8.0636,-8.0786,-8.1016,-9.0941,-9.0902,-9.0713,-9.0136,-8.9363,-8.8705,-8.8397,-8.8325,-8.7671,-8.7478,-8.7632,-8.8392,-8.7743,-8.6214,-8.7017,-8.6935,-8.617,-8.6094,-8.6094,-8.6094,-8.6094,-8.6094,-8.6094,-8.6094,-8.6094,-8.6094,-8.6094,-8.6094,-8.6017,-8.5901,-8.5824,-8.567,-8.5016,-8.4516,-8.4286,-8.3862,-8.3868,-8.4071,-8.433,-8.4571,-8.4742,-8.4352,-8.433,-8.4753,-8.4394,-8.3822,-8.3323,-8.3208,-8.3181,-8.3036,-8.2482,-8.2313,-8.272,-8.2472,-8.2223,-8.2186,-8.2186,-8.2186,-8.2039,-8.1525,-8.1012,-8.1048,-8.1056,-8.0934,-8.1045,-8.2105,-8.2536,-8.261,-8.3638,-8.433,-8.4276,-8.3941,-8.4129,-8.4605,-8.4872,-8.5047,-8.5458,-8.567,-8.5747,-8.5824,-8.594,-8.6094,-8.6094,-8.617,-8.644,-8.6978,-8.7555,-8.8055,-8.8132,-8.8132,-8.8075,-8.7959,-8.6235,-8.4778,-8.4758,-8.4497,-8.4448,-8.4792,-8.5563,-8.604,-8.604,-8.6114,-8.5967,-8.6187,-8.6554,-8.6009,-8.5348,-8.5238,-8.4487,-8.376,-8.3041,-8.3009,-8.2936,-8.3075,-8.3269,-9.121,-9.1171,-9.0752,-9.0098,-8.929,-8.8479,-8.832,-8.8556,-8.8248,-8.8248,-8.8671,-8.9508,-8.8666,-8.6868,-8.755,-8.7358,-8.6324,-8.6094,-8.6094,-8.6094,-8.6094,-8.6094,-8.6094,-8.6094,-8.6094,-8.6094,-8.6094,-8.6094,-8.6094,-8.6094,-8.6055,-8.6094,-8.5632,-8.5209,-8.5055,-8.4786,-8.4824,-8.4863,-8.5286,-8.5709,-8.594,-8.5747,-8.5593,-8.5978,-8.567,-8.517,-8.483,-8.4362,-8.4498,-8.4442,-8.3612,-8.2892,-8.2987,-8.2582,-8.2223,-8.2186,-8.2186,-8.2186,-8.2039,-8.1819,-8.1599,-8.1562,-8.1562,-8.1562,-8.1636,-8.2398,-8.2545,-8.2633,-8.358,-8.4727,-8.5037,-8.456,-8.456,-8.4915,-8.5121,-8.5437,-8.5919,-8.6094,-8.6094,-8.6094,-8.6055,-8.6094,-8.6132,-8.6401,-8.6824,-8.7363,-8.8556,-8.9094,-8.9133,-8.9133,-8.9102,-8.8574,-8.6729,-8.5664,-8.5748,-8.5618,-8.5404,-8.5747,-8.6297,-8.6591,-8.6628,-8.6775,-8.6885,-8.6958,-8.6921,-8.6958,-8.6375,-8.6407,-8.6265,-8.5764,-8.5297,-8.5228,-8.5298,-8.5619,-8.5873,-9.0825,-9.0752,-9.0021,-8.9294,-8.8637,-8.7829,-8.8017,-8.8825,-8.8748,-8.9017,-8.9902,-9.0706,-8.9475,-8.8132,-8.8051,-8.7473,-8.6478,-8.6094,-8.6094,-8.6094,-8.6094,-8.6094,-8.6094,-8.6094,-8.6094,-8.6094,-8.6094,-8.6094,-8.6094,-8.6094,-8.6094,-8.6094,-8.6094,-8.5747,-8.5401,-8.5632,-8.5709,-8.5363,-8.5709,-8.5978,-8.6094,-8.6055,-8.6055,-8.6055,-8.6055,-8.594,-8.5709,-8.544,-8.533,-8.594,-8.4786,-8.4001,-8.3451,-8.272,-8.226,-8.2223,-8.2186,-8.2186,-8.2251,-8.2307,-8.2297,-8.2343,-8.2523,-8.2523,-8.2585,-8.2659,-8.2744,-8.3069,-8.3824,-8.4719,-8.5123,-8.4995,-8.491,-8.52,-8.5357,-8.5705,-8.6111,-8.6363,-8.6594,-8.6094,-8.6132,-8.617,-8.6517,-8.6901,-8.7325,-8.7902,-8.9171,-9.0017,-9.0056,-8.9979,-8.987,-8.9255,-8.7487,-8.6007,-8.5863,-8.6388,-8.6287,-8.6407,-8.6958,-8.6995,-8.7142,-8.7325,-8.7362,-8.7068,-8.6995,-8.7068,-8.7178,-8.7068,-8.7109,-8.7262,-8.7484,-8.7268,-8.7595,-8.8173,-8.8102,-8.914,-8.9102,-8.8948,-8.879,-8.8551,-8.7781,-8.8243,-8.9436,-8.8974,-8.9171,-8.9902,-9.0056,-8.9594,-8.8556,-8.7743,-8.705,-8.6286,-8.6094,-8.6132,-8.617,-8.6132,-8.6094,-8.6247,-8.6132,-8.6094,-8.6094,-8.6094,-8.6094,-8.6094,-8.6094,-8.6094,-8.6094,-8.6094,-8.594,-8.5901,-8.6055,-8.6017,-8.5786,-8.6017,-8.6094,-8.6094,-8.6094,-8.6094,-8.6094,-8.6094,-8.6094,-8.6094,-8.5978,-8.5978,-8.6017,-8.5291,-8.4928,-8.4458,-8.362,-8.2917,-8.2518,-8.2343,-8.2343,-8.2434,-8.2793,-8.2994,-8.3132,-8.3433,-8.372,-8.3742,-8.3805,-8.3658,-8.3934,-8.4417,-8.5155,-8.5846,-8.5817,-8.5852,-8.6111,-8.6572,-8.6991,-8.7252,-8.7555,-8.7555,-8.6863,-8.6555,-8.6478,-8.7094,-8.7709,-8.8325,-8.8979,-8.994,-9.071,-9.0979,-9.0671,-9.0329,-8.9483,-8.8329,-8.6966,-8.5916,-8.659,-8.6958,-8.6958,-8.7252,-8.7288,-8.7435,-8.7802,-8.7802,-8.7692,-8.7435,-8.7325,-8.7435,-8.7688,-8.8059,-8.8285,-8.8761,-8.9166,-8.931,-8.9307,-8.8977,-8.8829,-8.8671,-8.8248,-8.8017,-8.7897,-8.7281,-8.7897,-8.9277,-8.9167,-8.9671,-9.0325,-9.0252,-8.956,-8.8671,-8.7791,-8.6906,-8.6324,-8.6094,-8.6363,-8.6594,-8.6363,-8.6401,-8.6594,-8.6363,-8.6132,-8.6094,-8.6094,-8.6094,-8.6094,-8.6094,-8.6094,-8.6094,-8.6094,-8.6094,-8.6094,-8.6094,-8.6094,-8.6094,-8.6094,-8.6094,-8.6094,-8.6094,-8.6094,-8.6094,-8.6094,-8.6094,-8.6094,-8.6094,-8.6094,-8.6055,-8.5786,-8.5445,-8.5012,-8.458,-8.3876,-8.3322,-8.2935,-8.2913,-8.3132,-8.3597,-8.3667,-8.372,-8.408,-8.4179,-8.4216,-8.4129,-8.4456,-8.4675,-8.4892,-8.5581,-8.6607,-8.6748,-8.6978,-8.7401,-8.7863,-8.8094,-8.8209,-8.8517,-8.8402,-8.8089,-8.8012,-8.8051,-8.7979,-8.8671,-8.9329,-9.0133,-9.0902,-9.1364,-9.1825,-9.1595,-9.1248,-9.0375,-8.9458,-8.8456,-8.7359,-8.7623,-8.7835,-8.7729,-8.7867,-8.7904,-8.7986,-8.839,-8.861,-8.8573,-8.8243,-8.8169,-8.7982,-8.8345,-8.8793,-8.931,-8.9678,-9.0044,-9.0263,-9.0262,-8.9858,-8.8363,-8.8122,-8.7435,-8.7127,-8.7089,-8.6896,-8.758,-8.8864,-8.9398,-9.0273,-9.1264,-9.0471,-8.9594,-8.8902,-8.8098,-8.7295,-8.6632,-8.6709,-8.7094,-8.744,-8.7094,-8.7055,-8.7017,-8.6786,-8.6324,-8.6094,-8.6094,-8.6094,-8.6094,-8.6094,-8.6094,-8.6094,-8.6094,-8.6094,-8.6094,-8.6094,-8.6094,-8.6094,-8.6094,-8.6094,-8.6094,-8.6094,-8.6094,-8.6094,-8.6094,-8.6094,-8.6094,-8.6094,-8.6094,-8.6094,-8.6017,-8.5863,-8.5368,-8.5176,-8.4939,-8.4499,-8.3824,-8.3772,-8.3979,-8.4325,-8.4372,-8.4335,-8.4513,-8.4681,-8.4954,-8.5241,-8.5209,-8.5467,-8.566,-8.6086,-8.7141,-8.7709,-8.8209,-8.8748,-8.921,-8.9517,-8.9748,-9.0056,-9.0591,-9.0244,-8.9893,-8.9898,-9.0094,-9.0094,-9.0905,-9.1518,-9.2249,-9.2364,-9.271,-9.271,-9.2328,-9.1606,-9.077,-8.9892,-8.9246,-8.9004,-8.8925,-8.85,-8.8814,-8.9055,-8.904,-8.9124,-8.9234,-8.9381,-8.9895,-8.9784,-8.9412,-8.9044,-8.9598,-9.0043,-9.0593,-9.0887,-9.1033,-9.0849,-9.0445,-8.6632,-8.6401,-8.6324,-8.6247,-8.644,-8.7204,-8.8085,-8.9079,-9.0034,-9.0828,-9.1425,-8.9941,-8.9436,-8.9282,-8.8748,-8.8402,-8.8286,-8.8171,-8.8209,-8.844,-8.8248,-8.7902,-8.7517,-8.7358,-8.6748,-8.6324,-8.6132,-8.6094,-8.6094,-8.6094,-8.6094,-8.6094,-8.6094,-8.6094,-8.6094,-8.6094,-8.6094,-8.6094,-8.6094,-8.6094,-8.6094,-8.6094,-8.6094,-8.6094,-8.6094,-8.6094,-8.6094,-8.6094,-8.6094,-8.6094,-8.6094,-8.6055,-8.5901,-8.5406,-8.5522,-8.536,-8.491,-8.4167,-8.4486,-8.4778,-8.5228,-8.5349,-8.559,-8.6235,-8.6582,-8.6775,-8.6887,-8.7068,-8.711,-8.7305,-8.7983,-8.8825,-8.9479,-9.0287,-9.1018,-9.1556,-9.1864,-9.1556,-9.2091,-9.2784,-9.255,-9.2515,-9.2597,-9.2444,-9.2444,-9.3056,-9.348,-9.3557,-9.348,-9.3403,-9.3056,-9.2258,-9.1762,-9.1,-9.0453,-9.0341,-8.9915,-8.9415,-8.9735,-9.015,-8.9951,-8.9784,-8.9895,-9.0152,-9.0812,-9.0959,-9.0223,-9.0039,-9.0372,-9.0739,-9.107,-9.1363,-9.1657,-9.1363,-9.0996,-8.6632,-8.6324,-8.6324,-8.6517,-8.6935,-8.7627,-8.8691,-8.9886,-9.0651,-9.1256,-9.135,-8.9986,-8.9008,-8.8589,-8.806,-8.8218,-8.8598,-8.8748,-8.8979,-8.9171,-8.9017,-8.8748,-8.8594,-8.7897,-8.7089,-8.6863,-8.6363,-8.6094,-8.6094,-8.6132,-8.6094,-8.6094,-8.6094,-8.6094,-8.6094,-8.6094,-8.6094,-8.6094,-8.6094,-8.6094,-8.6094,-8.6094,-8.6094,-8.6094,-8.6094,-8.6132,-8.6094,-8.6094,-8.6094,-8.6094,-8.6094,-8.6094,-8.6209,-8.6252,-8.6599,-8.6718,-8.6891,-8.6581,-8.6162,-8.5858,-8.6202,-8.6774,-8.703,-8.7175,-8.7863,-8.8132,-8.8166,-8.8128,-8.8132,-8.8517,-8.9286,-9.0171,-9.1095,-9.1941,-9.271,-9.2979,-9.3326,-9.3441,-9.3669,-9.4439,-9.5206,-9.5057,-9.4789,-9.4212,-9.402,-9.4249,-9.448,-9.4441,-9.4172,-9.3864,-9.3364,-9.2674,-9.2335,-9.1973,-9.1492,-9.1174,-9.0806,-9.0445,-9.0774,-9.095,-9.0514,-9.0445,-9.0592,-9.1069,-9.184,-9.162,-9.0886,-9.0922,-9.1253,-9.1436,-9.1583,-9.1693,-9.1803,-9.173,-9.1436,-8.6984,-8.6687,-8.6825,-8.7166,-8.7666,-8.8435,-8.9525,-9.0656,-9.1392,-9.172,-9.1353,-9.0035,-8.8507,-8.7743,-8.7756,-8.8371,-8.9025,-8.9248,-8.9671,-8.9825,-8.971,-8.9594,-8.9363,-8.8517,-8.7979,-8.7709,-8.7281,-8.6978,-8.6824,-8.6594,-8.6401,-8.6132,-8.6094,-8.6094,-8.6094,-8.6132,-8.617,-8.6555,-8.6517,-8.6517,-8.6517,-8.6748,-8.6517,-8.6363,-8.6286,-8.6324,-8.6132,-8.6094,-8.6094,-8.6094,-8.6094,-8.6094,-8.617,-8.6748,-8.7137,-8.7521,-8.7958,-8.8454,-8.784,-8.7487,-8.7632,-8.8055,-8.8517,-8.8363,-8.882,-8.8979,-8.921,-8.9363,-8.944,-9.021,-9.1171,-9.1825,-9.2749,-9.3557,-9.421,-9.4287,-9.4403,-9.4749,-9.5172,-9.5901,-9.6671,-9.7365,-9.6904,-9.5982,-9.5635,-9.5595,-9.5518,-9.5326,-9.498,-9.4518,-9.4326,-9.3864,-9.3483,-9.3226,-9.2719,-9.2169,-9.1729,-9.1362,-9.1691,-9.1692,-9.1288,-9.1179,-9.1363,-9.1987,-9.2684,-9.2501,-9.1913,-9.1987,-9.2096,-9.184,-9.1693,-9.173,-9.1803,-9.1803,-9.1767,-8.7299,-8.7127,-8.773,-8.7995,-8.8226,-9.0017,-9.0824,-9.1131,-9.2027,-9.2048,-9.1315,-8.9764,-8.8282,-8.7786,-8.8214,-8.8948,-8.9867,-9.0636,-9.0864,-9.0941,-9.0979,-9.0517,-9.0094,-8.9633,-8.9175,-8.8671,-8.8205,-8.8205,-8.8248,-8.7517,-8.6901,-8.6247,-8.6247,-8.6132,-8.617,-8.6247,-8.6632,-8.7017,-8.7209,-8.7286,-8.7517,-8.7709,-8.7632,-8.6709,-8.6863,-8.6978,-8.6209,-8.6247,-8.6247,-8.6286,-8.6286,-8.6286,-8.6478,-8.7319,-8.7786,-8.8333,-8.9329,-8.9867,-8.9748,-8.8979,-8.8594,-8.8863,-8.9402,-8.994,-9.0244,-9.0017,-9.0213,-9.0944,-9.1021,-9.1482,-9.2595,-9.3633,-9.4249,-9.4788,-9.5211,-9.5403,-9.5711,-9.6365,-9.6826,-9.7402,-9.8018,-9.8634,-9.8865,-9.7943,-9.7097,-9.7019,-9.6288,-9.6095,-9.5788,-9.5441,-9.5634,-9.5441,-9.4982,-9.4544,-9.3954,-9.327,-9.2279,-9.1801,-9.1944,-9.202,-9.1876,-9.1986,-9.1803,-9.261,-9.3125,-9.3052,-9.3198,-9.3639,-9.3566,-9.2354,-9.184,-9.1987,-9.1877,-9.1803,-9.1803,-8.7734,-8.8164,-8.896,-8.9105,-8.8948,-9.04,-9.1294,-9.1669,-9.177,-9.0968,-8.9743,-8.8733,-8.8137,-8.8089,-8.8556,-8.9406,-9.029,-9.0941,-9.121,-9.1325,-9.121,-9.0979,-9.0594,-9.0136,-8.9675,-8.9402,-8.9017,-8.8671,-8.8556,-8.8363,-8.8171,-8.7555,-8.6748,-8.6209,-8.617,-8.6671,-8.7132,-8.7478,-8.794,-8.8171,-8.8248,-8.8402,-8.8363,-8.7902,-8.7902,-8.8055,-8.7709,-8.7132,-8.6978,-8.6863,-8.6863,-8.6863,-8.7166,-8.8166,-8.8979,-8.9601,-9.079,-9.1521,-9.1595,-9.0633,-8.971,-9.0479,-9.1364,-9.2095,-9.1937,-9.213,-9.2326,-9.2672,-9.2753,-9.3136,-9.4018,-9.4634,-9.5018,-9.5634,-9.6095,-9.6365,-9.6749,-9.7365,-9.7788,-9.8057,-9.8942,-9.975,-9.9904,-9.9827,-9.9019,-9.8365,-9.7557,-9.6788,-9.6326,-9.6019,-9.6095,-9.598,-9.5443,-9.4866,-9.4248,-9.343,-9.2573,-9.2423,-9.2303,-9.2417,-9.2531,-9.1986,-9.206,-9.2831,-9.385,-9.4314,-9.48,-9.5515,-9.5,-9.3705,-9.2791,-9.2427,-9.2207,-9.1876,-9.1803,-8.7969,-8.8789,-8.9648,-8.9961,-9.0039,-9.1053,-9.1793,-9.2148,-9.1601,-9.0195,-8.8378,-8.8197,-8.8098,-8.8303,-8.8829,-8.9609,-9.0512,-9.1098,-9.1374,-9.1429,-9.1364,-9.1248,-9.1018,-9.0675,-9.0329,-9.0098,-8.9829,-8.9521,-8.9594,-8.9252,-8.9021,-8.8556,-8.7709,-8.7132,-8.7094,-8.7401,-8.7902,-8.8286,-8.8632,-8.9056,-8.9056,-8.9363,-8.9017,-8.8825,-8.8825,-8.8786,-8.8363,-8.7748,-8.7555,-8.7555,-8.7555,-8.755,-8.8243,-8.9244,-9.0441,-9.1405,-9.2444,-9.3403,-9.3095,-9.2402,-9.1325,-9.2018,-9.2749,-9.3438,-9.3708,-9.3708,-9.3441,-9.4018,-9.4289,-9.4791,-9.5634,-9.6211,-9.6596,-9.725,-9.7288,-9.748,-9.748,-9.7865,-9.8288,-9.8673,-9.9635,-10.0596,-10.0404,-10.025,-9.9173,-9.8481,-9.7711,-9.6903,-9.6249,-9.6057,-9.6095,-9.5903,-9.5481,-9.4829,-9.4157,-9.3677,-9.3231,-9.3181,-9.3097,-9.3239,-9.3139,-9.2672,-9.2843,-9.3965,-9.492,-9.5645,-9.6329,-9.6919,-9.6132,-9.4926,-9.3911,-9.2927,-9.2491,-9.2159,-9.1839,-8.8008,-8.8789,-8.9687,-9.0508,-9.1289,-9.2187,-9.2539,-9.2304,-9.1523,-9.0195,-8.8633,-8.8306,-8.8213,-8.8404,-8.9079,-8.9839,-9.0766,-9.1556,-9.1897,-9.1771,-9.1741,-9.1476,-9.1287,-9.1133,-9.0902,-9.1133,-9.0864,-9.071,-9.0902,-9.0213,-8.9906,-8.9825,-8.921,-8.8594,-8.8632,-8.8632,-8.9056,-8.9671,-8.9782,-8.9863,-9.0017,-9.0479,-9.0017,-8.9556,-8.9594,-8.9633,-8.9171,-8.8363,-8.8209,-8.8517,-8.8094,-8.8209,-8.9013,-9.0329,-9.129,-9.1754,-9.3713,-9.4366,-9.3864,-9.3672,-9.3595,-9.3518,-9.398,-9.4134,-9.3903,-9.3941,-9.4403,-9.5251,-9.5828,-9.652,-9.7365,-9.798,-9.8211,-9.8327,-9.8288,-9.825,-9.8211,-9.8557,-9.9019,-9.9327,-10.0327,-10.1212,-10.0943,-10.0481,-9.925,-9.8365,-9.775,-9.7019,-9.6211,-9.6057,-9.6095,-9.5711,-9.5366,-9.5074,-9.4545,-9.4217,-9.392,-9.3863,-9.3946,-9.4217,-9.4457,-9.4484,-9.4796,-9.5364,-9.6159,-9.7007,-9.7687,-9.8366,-9.7403,-9.6441,-9.4383,-9.3314,-9.2885,-9.2399,-9.2055,-8.8789,-8.9648,-9.0508,-9.1367,-9.2148,-9.2461,-9.2304,-9.164,-9.082,-9.0039,-8.9414,-8.8833,-8.8857,-8.9267,-8.9531,-9.0156,-9.1203,-9.2268,-9.2649,-9.261,-9.2473,-9.2242,-9.1979,-9.1556,-9.1248,-9.121,-9.121,-9.121,-9.1133,-9.0829,-9.0825,-9.0671,-9.0864,-9.0248,-8.9325,-8.9094,-8.971,-8.9979,-9.0364,-9.0787,-9.0825,-9.1018,-9.0941,-9.0287,-9.0556,-9.0517,-9.0171,-8.9286,-8.9133,-8.944,-8.9017,-8.9402,-9.0283,-9.1633,-9.2674,-9.3482,-9.5212,-9.5481,-9.5672,-9.5788,-9.5403,-9.5093,-9.498,-9.5249,-9.5441,-9.5942,-9.6365,-9.6674,-9.7366,-9.7981,-9.8404,-9.8519,-9.8673,-9.8634,-9.8634,-9.8634,-9.8711,-9.9404,-9.9904,-10.0058,-10.0712,-10.1135,-10.1135,-10.0366,-9.9211,-9.8404,-9.775,-9.6711,-9.5788,-9.598,-9.6095,-9.5557,-9.5175,-9.5169,-9.4925,-9.4556,-9.4772,-9.4992,-9.5187,-9.5434,-9.5702,-9.6102,-9.6686,-9.7268,-9.784,-9.844,-9.8935,-9.9302,-9.9037,-9.7943,-9.5951,-9.4124,-9.3349,-9.2677,-9.1912,-8.9375,-9.0469,-9.1054,-9.1797,-9.2539,-9.2578,-9.2109,-9.1289,-9.0703,-9.0312,-8.9922,-8.9375,-8.9609,-9.0195,-9.0429,-9.1054,-9.2187,-9.299,-9.3561,-9.3571,-9.3454,-9.32,-9.2749,-9.2095,-9.1825,-9.1595,-9.1325,-9.121,-9.1248,-9.1556,-9.1825,-9.221,-9.2556,-9.1979,-9.1056,-9.0941,-9.0671,-9.0864,-9.1133,-9.1441,-9.1364,-9.1402,-9.1518,-9.121,-9.1133,-9.1133,-9.0941,-9.0556,-9.0094,-9.0248,-9.0479,-9.086,-9.1745,-9.2938,-9.4095,-9.5172,-9.6249,-9.6506,-9.6822,-9.7286,-9.6687,-9.5922,-9.6266,-9.6632,-9.6903,-9.721,-9.7519,-9.7981,-9.875,-9.9096,-9.9211,-9.925,-9.9519,-9.9558,-9.9558,-9.9596,-9.9481,-10.0135,-10.0366,-10.0596,-10.0673,-10.1019,-10.1058,-10.0135,-9.9173,-9.8481,-9.7788,-9.6634,-9.5595,-9.5903,-9.6134,-9.5749,-9.5403,-9.5444,-9.5243,-9.4905,-9.5235,-9.6006,-9.6317,-9.6604,-9.7465,-9.7996,-9.8542,-9.896,-9.9164,-9.9441,-10.0065,-10.0233,-9.9692,-9.8876,-9.7474,-9.5719,-9.4121,-9.2922,-9.1986,-8.9726,-9.1133,-9.1328,-9.1875,-9.25,-9.25,-9.2031,-9.1367,-9.1289,-9.082,-9.0156,-9.0156,-9.0508,-9.1211,-9.1328,-9.2187,-9.3554,-9.3945,-9.4246,-9.4388,-9.4389,-9.4121,-9.3557,-9.2826,-9.2476,-9.2168,-9.1787,-9.1325,-9.1364,-9.1941,-9.2672,-9.3364,-9.3595,-9.3364,-9.3056,-9.271,-9.2095,-9.1748,-9.1748,-9.1902,-9.171,-9.2014,-9.1902,-9.1633,-9.1325,-9.121,-9.1018,-9.071,-9.0787,-9.1018,-9.1364,-9.2014,-9.3054,-9.4475,-9.5209,-9.6189,-9.7471,-9.7402,-9.7479,-9.8003,-9.7769,-9.7013,-9.6892,-9.7585,-9.7902,-9.7941,-9.825,-9.8827,-9.9596,-9.9904,-10.0135,-10.0558,-10.0943,-10.0981,-10.1019,-10.0827,-10.0442,-10.0596,-10.0712,-10.0827,-10.0866,-10.0943,-10.0712,-9.9942,-9.8711,-9.8211,-9.748,-9.6788,-9.6019,-9.6057,-9.6249,-9.6211,-9.5942,-9.5865,-9.5637,-9.544,-9.6201,-9.7104,-9.7399,-9.7768,-9.8762,-9.9529,-9.9702,-9.99,-10.0051,-10.0365,-10.0707,-10.0582,-10.0142,-9.9134,-9.7629,-9.617,-9.4223,-9.3054,-9.2134,-8.9922,-9.0508,-9.1719,-9.2383,-9.25,-9.1914,-9.1875,-9.2148,-9.164,-9.1406,-9.1836,-9.1211,-9.1406,-9.2187,-9.2226,-9.2929,-9.3984,-9.5,-9.5351,-9.5476,-9.5301,-9.5007,-9.4326,-9.3403,-9.3092,-9.2707,-9.2245,-9.1633,-9.2018,-9.2518,-9.2979,-9.3595,-9.4364,-9.4557,-9.4518,-9.4364,-9.3326,-9.2633,-9.263,-9.2361,-9.2172,-9.2438,-9.2249,-9.2056,-9.1402,-9.1287,-9.1095,-9.1518,-9.1787,-9.2018,-9.2826,-9.3708,-9.4667,-9.5342,-9.5971,-9.7611,-9.8043,-9.7935,-9.8242,-9.8084,-9.7866,-9.8005,-9.7954,-9.7896,-9.821,-9.8518,-9.8827,-9.9673,-10.0288,-10.0596,-10.075,-10.1096,-10.1404,-10.1481,-10.152,-10.1473,-10.1199,-10.1199,-10.128,-10.0904,-10.0943,-10.0404,-10.0211,-9.9135,-9.8019,-9.7634,-9.7173,-9.6596,-9.6288,-9.6288,-9.648,-9.648,-9.6288,-9.6134,-9.6442,-9.6367,-9.7288,-9.813,-9.8298,-9.8732,-9.9922,-10.055,-10.0709,-10.0749,-10.0673,-10.0866,-10.1134,-10.0739,-9.9962,-9.8504,-9.7083,-9.575,-9.4383,-9.3144,-9.2207,-8.9883,-9.0625,-9.164,-9.2265,-9.2383,-9.1289,-9.1445,-9.2304,-9.1679,-9.164,-9.2031,-9.1875,-9.2109,-9.2461,-9.2578,-9.3047,-9.3945,-9.5078,-9.5719,-9.5912,-9.6077,-9.5928,-9.5211,-9.4287,-9.398,-9.3592,-9.3018,-9.2402,-9.2595,-9.3018,-9.348,-9.4788,-9.5365,-9.5403,-9.5365,-9.5018,-9.4441,-9.3862,-9.3477,-9.3092,-9.2861,-9.2749,-9.2787,-9.2364,-9.1672,-9.1325,-9.1402,-9.2172,-9.2592,-9.2938,-9.3823,-9.4975,-9.5863,-9.6444,-9.7226,-9.8644,-9.8977,-9.8554,-9.8398,-9.8359,-9.8246,-9.832,-9.8554,-9.8735,-9.8966,-9.9288,-9.9904,-10.0635,-10.0981,-10.125,-10.1327,-10.1404,-10.1558,-10.1673,-10.1817,-10.1928,-10.192,-10.1881,-10.1572,-10.1058,-10.0558,-9.9904,-9.9134,-9.8057,-9.7442,-9.7365,-9.7057,-9.6519,-9.6288,-9.6288,-9.6634,-9.6942,-9.6634,-9.6365,-9.6749,-9.7173,-9.7712,-9.8327,-9.8672,-9.936,-10.0789,-10.1211,-10.1096,-10.1134,-10.1212,-10.1173,-10.0899,-10.0282,-9.9439,-9.7853,-9.6449,-9.5443,-9.4147,-9.293,-9.2134,-8.9609,-9.0976,-9.1172,-9.1679,-9.2187,-9.0742,-9.0976,-9.2304,-9.1601,-9.1406,-9.164,-9.2265,-9.2539,-9.2617,-9.2812,-9.3242,-9.4101,-9.5117,-9.5898,-9.6133,-9.6594,-9.6608,-9.6171,-9.552,-9.4903,-9.4672,-9.4095,-9.3059,-9.2903,-9.3249,-9.4287,-9.6134,-9.6172,-9.6095,-9.598,-9.5557,-9.5057,-9.4634,-9.44,-9.4093,-9.321,-9.3172,-9.3326,-9.2556,-9.1902,-9.1479,-9.1748,-9.2284,-9.3046,-9.3697,-9.4744,-9.6089,-9.7153,-9.7759,-9.8643,-9.9101,-9.9492,-9.9023,-9.8515,-9.8359,-9.8164,-9.8203,-9.8398,-9.9101,-9.9607,-9.9891,-10.048,-10.1019,-10.1366,-10.1327,-10.1327,-10.1481,-10.1674,-10.1858,-10.2012,-10.2177,-10.2303,-10.1953,-10.122,-10.0613,-9.9635,-9.9018,-9.8557,-9.7595,-9.7019,-9.7057,-9.6903,-9.6365,-9.6442,-9.6442,-9.6903,-9.7403,-9.7365,-9.7211,-9.748,-9.7827,-9.7904,-9.8327,-9.8942,-9.9519,-10.0596,-10.1019,-10.1289,-10.1289,-10.125,-10.0739,-10.0295,-9.9622,-9.8523,-9.6749,-9.5576,-9.5007,-9.3927,-9.261,-9.217,-8.8945,-8.9375,-9.0039,-9.082,-9.1445,-9.0469,-9.0625,-9.1562,-9.1406,-9.1679,-9.2226,-9.2461,-9.2578,-9.2656,-9.3164,-9.3594,-9.4023,-9.5,-9.5937,-9.6211,-9.6641,-9.6684,-9.6435,-9.5597,-9.5441,-9.5289,-9.4674,-9.3751,-9.3672,-9.3864,-9.421,-9.5326,-9.5865,-9.6288,-9.6288,-9.5865,-9.5634,-9.5211,-9.4941,-9.4557,-9.3787,-9.3441,-9.3364,-9.2864,-9.2399,-9.2464,-9.3003,-9.4086,-9.4733,-9.535,-9.6989,-9.8311,-9.9328,-9.914,-9.9375,-9.9804,-9.9648,-9.914,-9.8633,-9.8242,-9.7929,-9.8398,-9.8828,-9.9648,-10.019,-10.0363,-10.0747,-10.1289,-10.1558,-10.1404,-10.1404,-10.1597,-10.1824,-10.2031,-10.224,-10.2435,-10.2617,-10.1758,-10.0898,-9.9847,-9.8769,-9.821,-9.7749,-9.7325,-9.6788,-9.6557,-9.648,-9.6403,-9.6788,-9.698,-9.748,-9.7942,-9.8288,-9.8327,-9.8481,-9.8442,-9.8519,-9.8981,-9.9635,-10.0096,-10.0481,-10.0904,-10.1289,-10.1289,-10.1133,-10.054,-9.9717,-9.8694,-9.7422,-9.5753,-9.4784,-9.4222,-9.3415,-9.2207,-9.195,-8.8398,-8.8789,-8.9648,-9.0508,-9.1054,-9.0351,-9.0703,-9.1679,-9.1484,-9.1797,-9.2539,-9.2578,-9.2578,-9.2578,-9.3125,-9.3359,-9.3594,-9.4687,-9.5273,-9.5742,-9.6174,-9.6217,-9.594,-9.5749,-9.552,-9.5443,-9.4943,-9.4405,-9.4595,-9.448,-9.4788,-9.548,-9.6095,-9.6288,-9.6288,-9.6249,-9.6057,-9.5595,-9.5289,-9.4864,-9.4208,-9.3782,-9.3631,-9.3284,-9.3276,-9.3389,-9.4094,-9.5115,-9.5625,-9.6166,-9.7309,-9.8806,-9.957,-9.9804,-9.9844,-10.0,-9.9844,-9.9219,-9.8594,-9.8047,-9.7695,-9.8281,-9.9297,-10.0117,-10.0469,-10.0721,-10.1553,-10.2067,-10.1904,-10.175,-10.1827,-10.202,-10.2174,-10.2318,-10.2417,-10.2593,-10.2109,-10.125,-10.0195,-9.9044,-9.8124,-9.7403,-9.7094,-9.6826,-9.6519,-9.7057,-9.6865,-9.7134,-9.7403,-9.7711,-9.8173,-9.8557,-9.8942,-9.9211,-9.9327,-9.925,-9.9096,-9.9673,-10.025,-10.0558,-10.0789,-10.1058,-10.1289,-10.1171,-10.0854,-10.0168,-9.9287,-9.821,-9.6717,-9.5124,-9.4224,-9.3492,-9.2684,-9.2207,-9.2391,-8.7929,-8.8633,-8.9336,-9.0234,-9.0976,-9.0312,-9.0976,-9.2265,-9.1836,-9.1875,-9.2539,-9.2578,-9.2578,-9.2578,-9.2578,-9.2578,-9.2969,-9.3945,-9.4531,-9.5117,-9.5625,-9.5959,-9.6139,-9.6057,-9.5865,-9.5481,-9.502,-9.5441,-9.594,-9.5401,-9.5211,-9.6095,-9.6288,-9.6288,-9.6288,-9.6288,-9.6172,-9.598,-9.5711,-9.5434,-9.4694,-9.3933,-9.3921,-9.3917,-9.4006,-9.4036,-9.4853,-9.56,-9.6203,-9.678,-9.7578,-9.9179,-10.0078,-10.0469,-10.0195,-10.0234,-9.9922,-9.9062,-9.8203,-9.7773,-9.7812,-9.8281,-9.957,-10.0351,-10.0703,-10.1406,-10.2226,-10.2422,-10.2265,-10.2233,-10.2311,-10.2366,-10.2481,-10.2687,-10.2763,-10.2578,-10.1758,-10.0976,-9.9922,-9.8711,-9.79,-9.7182,-9.6826,-9.6596,-9.6749,-9.7288,-9.775,-9.8134,-9.8481,-9.8827,-9.9211,-9.9442,-9.9673,-9.9942,-10.0173,-10.0058,-9.9827,-9.9904,-10.0404,-10.075,-10.1019,-10.1212,-10.1171,-10.0928,-10.0525,-9.9775,-9.8879,-9.7756,-9.6191,-9.4742,-9.4264,-9.3712,-9.3345,-9.3015,-9.3308,-8.7578,-8.7734,-8.7929,-8.8867,-9.0078,-9.0039,-9.0976,-9.2383,-9.2422,-9.25,-9.2539,-9.2578,-9.2578,-9.2578,-9.2578,-9.2617,-9.2734,-9.3437,-9.4179,-9.4883,-9.5134,-9.5786,-9.6112,-9.5903,-9.6134,-9.5865,-9.5481,-9.5634,-9.6132,-9.5518,-9.5441,-9.6249,-9.6288,-9.6288,-9.6288,-9.6288,-9.6249,-9.6134,-9.5858,-9.5495,-9.5455,-9.4879,-9.4505,-9.473,-9.5305,-9.5673,-9.6274,-9.6953,-9.7298,-9.7672,-9.8281,-9.9922,-10.0664,-10.082,-10.039,-10.0,-9.9726,-9.8984,-9.8203,-9.7929,-9.8047,-9.8828,-9.9961,-10.0703,-10.125,-10.2031,-10.2617,-10.2812,-10.2734,-10.2773,-10.2829,-10.2841,-10.2914,-10.3159,-10.3279,-10.2539,-10.1758,-10.1328,-10.0703,-9.9609,-9.8662,-9.8051,-9.7633,-9.7326,-9.7019,-9.7519,-9.7904,-9.8327,-9.9135,-9.9635,-10.0173,-10.0289,-10.0404,-10.075,-10.1058,-10.0866,-10.0712,-10.0596,-10.0519,-10.0904,-10.1173,-10.125,-10.1131,-10.076,-10.009,-9.9353,-9.8347,-9.7443,-9.6189,-9.4964,-9.4484,-9.4116,-9.3822,-9.3859,-9.4116]}]]